[[{"header":{"parameterUnit":"m.s-1","parameterCategory":1,"la1":30.6,"la2":28.766,"lo1":-90.7593,"lo2":-88.6598,"dy":0.0162,"dx":0.0183,"nx":116,"ny":114,"refTime":"2023-07-26T12:00:00:Z","depth":0,"parameterNumber":2,"parameterNumberName":"U-component_of_WINDS"},"data":[0.0,0.0,0.0,0.0,0.0,0.0,0.0,0.0,0.0,0.0,0.0,0.0,0.0,0.0,0.0,0.0,0.0,0.0,0.0,0.0,0.0,0.0,0.0,0.0,0.0,0.0,0.0,0.0,0.0,0.0,0.0,0.0,0.0,0.0,0.0,0.0,0.0,0.0,0.0,0.0,0.0,0.0,0.0,0.0,0.0,0.0,0.0,0.0,0.0,0.0,0.0,0.0,0.0,0.0,0.0,0.0,0.0,0.0,0.0,0.0,0.0,0.0,0.0,0.0,0.0,0.0,0.0,0.0,0.0,0.0,0.0,0.0,0.0,0.0,0.0,0.0,0.0,0.0,0.0,0.0,0.0,0.0,0.0,0.0,0.0,0.0,0.0,0.0,0.0,0.0,0.0,0.0,0.0,0.0,0.0,0.0,0.0,0.0,0.0,0.0,0.0,0.0,0.0,0.0,0.0,0.0,0.0,0.0,0.0,0.0,0.0,0.0,0.0,0.0,0.0,0.0,0.0,0.0,0.0,0.0,0.0,0.0,0.0,0.0,0.0,0.0,0.0,0.0,0.0,0.0,0.0,0.0,0.0,0.0,0.0,0.0,0.0,0.0,0.0,0.0,0.0,0.0,0.0,0.0,0.0,0.0,0.0,0.0,0.0,0.0,0.0,0.0,0.0,0.0,0.0,0.0,0.0,0.0,0.0,0.0,0.0,0.0,0.0,0.0,0.0,0.0,0.0,0.0,0.0,0.0,0.0,0.0,0.0,0.0,0.0,0.0,0.0,0.0,0.0,0.0,0.0,0.0,0.0,0.0,0.0,0.0,0.0,0.0,0.0,0.0,0.0,0.0,0.0,0.0,0.0,0.0,0.0,0.0,0.0,0.0,0.0,0.0,0.0,0.0,0.0,0.0,0.0,0.0,0.0,0.0,0.0,0.0,0.0,0.0,0.0,0.0,0.0,0.0,0.0,0.0,0.0,0.0,0.0,0.0,0.0,0.0,0.0,0.0,0.0,0.0,0.0,0.0,0.0,0.0,0.0,0.0,0.0,0.0,0.0,0.0,0.0,0.0,0.0,0.0,0.0,0.0,0.0,0.0,0.0,0.0,0.0,0.0,0.0,0.0,0.0,0.0,0.0,0.0,0.0,0.0,0.0,0.0,0.0,0.0,0.0,0.0,0.0,0.0,0.0,0.0,0.0,0.0,0.0,0.0,0.0,0.0,0.0,0.0,0.0,0.0,0.0,0.0,0.0,0.0,0.0,0.0,0.0,0.0,0.0,0.0,0.0,0.0,0.0,0.0,0.0,0.0,0.0,0.0,0.0,0.0,0.0,0.0,0.0,0.0,0.0,0.0,0.0,0.0,0.0,0.0,0.0,0.0,0.0,0.0,0.0,0.0,0.0,0.0,0.0,0.0,0.0,0.0,0.0,0.0,0.0,0.0,0.0,0.0,0.0,0.0,0.0,0.0,0.0,0.0,0.0,0.0,0.0,0.0,0.0,0.0,0.0,0.0,0.0,0.0,0.0,0.0,0.0,0.0,0.0,0.0,0.0,0.0,0.0,0.0,0.0,0.0,0.0,0.0,0.0,0.0,0.0,0.0,0.0,0.0,0.0,0.0,0.0,0.0,0.0,0.0,0.0,0.0,0.0,0.0,0.0,0.0,0.0,0.0,0.0,0.0,0.0,0.0,0.0,0.0,0.0,0.0,0.0,0.0,0.0,0.0,0.0,0.0,0.0,0.0,0.0,0.0,0.0,0.0,0.0,0.0,0.0,0.0,0.0,0.0,0.0,0.0,0.0,0.0,0.0,0.0,0.0,0.0,0.0,0.0,0.0,0.0,0.0,0.0,0.0,0.0,0.0,0.0,0.0,0.0,0.0,0.0,0.0,0.0,0.0,0.0,0.0,0.0,0.0,0.0,0.0,0.0,0.0,0.0,0.0,0.0,0.0,0.0,0.0,0.0,0.0,0.0,0.0,0.0,0.0,0.0,0.0,0.0,0.0,0.0,0.0,0.0,0.0,0.0,0.0,0.0,0.0,0.0,0.0,0.0,0.0,0.0,0.0,0.0,0.0,0.0,0.0,0.0,0.0,0.0,0.0,0.0,0.0,0.0,0.0,0.0,0.0,0.0,0.0,0.0,0.0,0.0,0.0,0.0,0.0,0.0,0.0,0.0,0.0,0.0,0.0,0.0,0.0,0.0,0.0,0.0,0.0,0.0,0.0,0.0,0.0,0.0,0.0,0.0,0.0,0.0,0.0,0.0,0.0,0.0,0.0,0.0,0.0,0.0,0.0,0.0,0.0,0.0,0.0,0.0,0.0,0.0,0.0,0.0,0.0,0.0,0.0,0.0,0.0,0.0,0.0,0.0,0.0,0.0,0.0,0.0,0.0,0.0,0.0,0.0,0.0,0.0,0.0,0.0,0.0,0.0,0.0,0.0,0.0,0.0,0.0,0.0,0.0,0.0,0.0,0.0,0.0,0.0,0.0,0.0,0.0,0.0,0.0,0.0,0.0,0.0,0.0,0.0,0.0,0.0,0.0,0.0,0.0,0.0,0.0,0.0,0.0,0.0,0.0,0.0,0.0,0.0,0.0,0.0,0.0,0.0,0.0,0.0,0.0,0.0,0.0,0.0,0.0,0.0,0.0,0.0,0.0,0.0,0.0,0.0,0.0,0.0,0.0,0.0,0.0,0.0,0.0,0.0,0.0,0.0,0.0,0.0,0.0,0.0,0.0,0.0,0.0,0.0,0.0,0.0,0.0,0.0,0.0,0.0,0.0,0.0,0.0,0.0,0.0,0.0,0.0,0.0,0.0,0.0,0.0,0.0,0.0,0.0,0.0,0.0,0.0,0.0,0.0,0.0,0.0,0.0,0.0,0.0,0.0,0.0,0.0,0.0,0.0,0.0,0.0,0.0,0.0,0.0,0.0,0.0,0.0,0.0,0.0,0.0,0.0,0.0,0.0,0.0,0.0,0.0,0.0,0.0,0.0,0.0,0.0,0.0,0.0,0.0,0.0,0.0,0.0,0.0,0.0,0.0,0.0,0.0,0.0,0.0,0.0,0.0,0.0,0.0,0.0,0.0,0.0,0.0,0.0,0.0,0.0,0.0,0.0,0.0,0.0,0.0,0.0,0.0,0.0,0.0,0.0,0.0,0.0,0.0,0.0,0.0,0.0,0.0,0.0,0.0,0.0,0.0,0.0,0.0,0.0,0.0,0.0,0.0,0.0,0.0,0.0,0.0,0.0,0.0,0.0,0.0,0.0,0.0,0.0,0.0,0.0,0.0,0.0,0.0,0.0,0.0,0.0,0.0,0.0,0.0,0.0,0.0,0.0,0.0,0.0,0.0,0.0,0.0,0.0,0.0,0.0,0.0,0.0,0.0,0.0,0.0,0.0,0.0,0.0,0.0,0.0,0.0,0.0,0.0,0.0,0.0,0.0,0.0,0.0,0.0,0.0,0.0,0.0,0.0,0.0,0.0,0.0,0.0,0.0,0.0,0.0,0.0,0.0,0.0,0.0,0.0,0.0,0.0,0.0,0.0,0.0,0.0,0.0,0.0,0.0,0.0,0.0,0.0,0.0,0.0,0.0,0.0,0.0,0.0,0.0,0.0,0.0,0.0,0.0,0.0,0.0,0.0,0.0,0.0,0.0,0.0,0.0,0.0,0.0,0.0,0.0,0.0,0.0,0.0,0.0,0.0,0.0,0.0,0.0,0.0,0.0,0.0,0.0,0.0,0.0,0.0,0.0,0.0,0.0,0.0,0.0,0.0,0.0,0.0,0.0,0.0,0.0,0.0,0.0,0.0,0.0,0.0,0.0,0.0,0.0,0.0,0.0,0.0,0.0,0.0,0.0,0.0,0.0,0.0,0.0,0.0,0.0,0.0,0.0,0.0,0.0,0.0,0.0,0.0,0.0,0.0,0.0,0.0,0.0,0.0,0.0,0.0,0.0,0.0,0.0,0.0,0.0,0.0,0.0,0.0,0.0,0.0,0.0,0.0,0.0,0.0,0.0,0.0,0.0,0.0,0.0,0.0,0.0,0.0,0.0,0.0,0.0,0.0,0.0,0.0,0.0,0.0,0.0,0.0,0.0,0.0,0.0,0.0,0.0,0.0,0.0,0.0,0.0,0.0,0.0,0.0,0.0,0.0,0.0,0.0,0.0,0.0,0.0,0.0,0.0,0.0,0.0,0.0,0.0,0.0,0.0,0.0,0.0,0.0,0.0,0.0,0.0,0.0,0.0,0.0,0.0,0.0,0.0,0.0,0.0,0.0,0.0,0.0,0.0,0.0,0.0,0.0,0.0,0.0,0.0,0.0,0.0,0.0,0.0,0.0,0.0,0.0,0.0,0.0,0.0,0.0,0.0,0.0,0.0,0.0,0.0,0.0,0.0,0.0,0.0,0.0,0.0,0.0,0.0,0.0,0.0,0.0,0.0,0.0,0.0,0.0,0.0,0.0,0.0,0.0,0.0,0.0,0.0,0.0,0.0,0.0,0.0,0.0,0.0,0.0,0.0,0.0,0.0,0.0,0.0,0.0,0.0,0.0,0.0,0.0,0.0,0.0,0.0,0.0,0.0,0.0,0.0,0.0,0.0,0.0,0.0,0.0,0.0,0.0,0.0,0.0,0.0,0.0,0.0,0.0,0.0,0.0,0.0,0.0,0.0,0.0,0.0,0.0,0.0,0.0,0.0,0.0,0.0,0.0,0.0,0.0,0.0,0.0,0.0,0.0,0.0,0.0,0.0,0.0,0.0,0.0,0.0,0.0,0.0,0.0,0.0,0.0,0.0,0.0,0.0,0.0,0.0,0.0,0.0,0.0,0.0,0.0,0.0,0.0,0.0,0.0,0.0,0.0,0.0,0.0,0.0,0.0,0.0,0.0,0.0,0.0,0.0,0.0,0.0,0.0,0.0,0.0,0.0,0.0,0.0,0.0,0.0,0.0,0.0,0.0,0.0,0.0,0.0,0.0,0.0,0.0,0.0,0.0,0.0,0.0,0.0,0.0,0.0,0.0,0.0,0.0,0.0,0.0,0.0,0.0,0.0,0.0,0.0,0.0,0.0,0.0,0.0,0.0,0.0,0.0,0.0,0.0,0.0,0.0,0.0,0.0,0.0,0.0,0.0,0.0,0.0,0.0,0.0,0.0,0.0,0.0,0.0,0.0,0.0,0.0,0.0,0.0,0.0,0.0,0.0,0.0,0.0,0.0,0.0,0.0,0.0,0.0,0.0,0.0,0.0,0.0,0.0,0.0,0.0,0.0,0.0,0.0,0.0,0.0,0.0,0.0,0.0,0.0,0.0,0.0,0.0,0.0,0.0,0.0,0.0,0.0,0.0,0.0,0.0,0.0,0.0,0.0,0.0,0.0,0.0,0.0,0.0,0.0,0.0,0.0,0.0,0.0,0.0,0.0,0.0,0.0,0.0,0.0,0.0,0.0,0.0,0.0,0.0,0.0,0.0,0.0,0.0,0.0,0.0,0.0,0.0,0.0,0.0,0.0,0.0,0.0,0.0,0.0,0.0,0.0,0.0,0.0,0.0,0.0,0.0,0.0,0.0,0.0,0.0,0.0,0.0,0.0,0.0,0.0,0.0,0.0,0.0,0.0,0.0,0.0,0.0,0.0,0.0,0.0,0.0,0.0,0.0,0.0,0.0,0.0,0.0,0.0,0.0,0.0,0.0,0.0,0.0,0.0,0.0,0.0,0.0,0.0,0.0,0.0,0.0,0.0,0.0,0.0,0.0,0.0,0.0,0.0,0.0,0.0,0.0,0.0,0.0,0.0,0.0,0.0,0.0,0.0,0.0,0.0,0.0,0.0,0.0,0.0,0.0,0.0,0.0,0.0,0.0,0.0,0.0,0.0,0.0,0.0,0.0,0.0,0.0,0.0,0.0,0.0,0.0,0.0,0.0,0.0,0.0,0.0,0.0,0.0,0.0,0.0,0.0,0.0,0.0,0.0,0.0,0.0,0.0,0.0,0.0,0.0,0.0,0.0,0.0,0.0,0.0,0.0,0.0,0.0,0.0,0.0,0.0,0.0,0.0,0.0,0.0,0.0,0.0,0.0,0.0,0.0,0.0,0.0,0.0,0.0,-3.3111,0.0,0.0,0.0,0.0,0.0,0.0,0.0,0.0,0.0,0.0,0.0,0.0,0.0,0.0,0.0,0.0,0.0,0.0,0.0,0.0,0.0,0.0,0.0,0.0,0.0,0.0,0.0,0.0,0.0,0.0,0.0,0.0,0.0,0.0,0.0,0.0,0.0,0.0,0.0,-3.2086,-3.2551,-3.3245,-3.3251,-3.2669,-3.1632,0.0,0.0,0.0,0.0,0.0,0.0,0.0,0.0,0.0,0.0,0.0,0.0,0.0,0.0,0.0,0.0,0.0,0.0,0.0,0.0,0.0,0.0,0.0,0.0,0.0,0.0,0.0,0.0,0.0,0.0,0.0,0.0,0.0,0.0,0.0,0.0,0.0,0.0,0.0,0.0,0.0,0.0,0.0,0.0,0.0,0.0,0.0,0.0,0.0,0.0,0.0,0.0,0.0,0.0,0.0,0.0,0.0,0.0,0.0,0.0,0.0,0.0,0.0,0.0,0.0,0.0,0.0,0.0,0.0,0.0,0.0,-3.3803,0.0,0.0,0.0,0.0,0.0,0.0,0.0,0.0,0.0,0.0,0.0,0.0,0.0,0.0,0.0,0.0,0.0,0.0,0.0,0.0,0.0,0.0,0.0,0.0,0.0,0.0,0.0,0.0,0.0,0.0,0.0,0.0,0.0,0.0,0.0,0.0,0.0,-3.308,-3.3678,-3.4417,-3.5226,-3.5255,-3.4544,-3.3249,-3.287,0.0,0.0,0.0,0.0,0.0,0.0,0.0,0.0,0.0,0.0,0.0,0.0,0.0,0.0,0.0,0.0,0.0,0.0,0.0,0.0,0.0,0.0,0.0,0.0,0.0,0.0,0.0,0.0,0.0,0.0,0.0,0.0,0.0,0.0,0.0,0.0,0.0,0.0,0.0,0.0,0.0,0.0,0.0,0.0,0.0,0.0,0.0,0.0,0.0,0.0,0.0,0.0,0.0,0.0,0.0,0.0,0.0,0.0,0.0,0.0,0.0,0.0,0.0,0.0,0.0,-4.3739,-4.3028,-4.2519,-4.2047,-3.8539,-3.6279,-3.4988,0.0,0.0,0.0,0.0,0.0,0.0,0.0,0.0,0.0,0.0,0.0,0.0,0.0,0.0,0.0,0.0,0.0,0.0,0.0,0.0,0.0,0.0,0.0,0.0,0.0,0.0,0.0,0.0,0.0,0.0,0.0,0.0,0.0,0.0,-3.2003,-3.2576,-3.3775,-3.5501,-3.6698,-3.7415,-3.7678,-3.7721,-3.7419,-3.5538,-3.4392,-3.3857,0.0,0.0,0.0,0.0,0.0,0.0,0.0,0.0,0.0,0.0,0.0,0.0,0.0,0.0,0.0,0.0,0.0,0.0,0.0,0.0,0.0,0.0,0.0,0.0,0.0,0.0,0.0,0.0,0.0,0.0,0.0,0.0,0.0,0.0,0.0,0.0,0.0,0.0,0.0,0.0,0.0,-3.038,-3.125,0.0,0.0,0.0,0.0,0.0,0.0,0.0,0.0,0.0,0.0,0.0,0.0,0.0,0.0,-4.3278,-4.5124,-4.6067,-4.6067,-4.7009,-4.7086,-4.6413,-4.6269,-4.5393,-4.3932,-4.3382,0.0,-3.7559,-3.6742,0.0,0.0,0.0,0.0,0.0,0.0,0.0,0.0,0.0,0.0,0.0,0.0,0.0,0.0,0.0,0.0,0.0,0.0,0.0,0.0,0.0,0.0,0.0,0.0,0.0,0.0,0.0,0.0,0.0,0.0,0.0,0.0,-3.1596,-3.2664,-3.3982,-3.554,-3.76,-3.8826,-3.9298,-4.0397,-4.0927,-4.0919,-4.0193,-3.8429,-3.5975,-3.5146,0.0,0.0,0.0,0.0,0.0,0.0,0.0,0.0,0.0,0.0,0.0,0.0,0.0,0.0,0.0,0.0,0.0,0.0,0.0,0.0,0.0,0.0,0.0,0.0,0.0,0.0,0.0,0.0,0.0,0.0,0.0,0.0,0.0,0.0,0.0,0.0,0.0,0.0,0.0,-3.1029,-3.2027,-3.3319,-3.2763,-3.2305,0.0,0.0,0.0,0.0,0.0,0.0,0.0,0.0,0.0,-4.2736,-4.4914,-4.6663,-4.7875,-4.9586,-5.0452,-5.0452,-5.0798,-5.0529,-4.9692,-4.924,-4.8086,-4.6413,-4.597,-4.4179,-4.142,-3.9167,-3.682,-3.4526,0.0,0.0,0.0,0.0,0.0,-3.2235,0.0,0.0,0.0,0.0,0.0,0.0,0.0,0.0,0.0,0.0,0.0,0.0,0.0,0.0,0.0,-3.3186,0.0,0.0,0.0,0.0,0.0,0.0,0.0,-3.1029,-3.137,-3.3413,-3.5274,-3.6957,-3.9107,-4.0435,-4.1068,-4.2447,-4.3189,-4.3312,-4.3622,-4.1821,-3.8463,-3.7212,-3.5596,0.0,0.0,0.0,0.0,0.0,0.0,0.0,0.0,0.0,0.0,0.0,0.0,0.0,0.0,0.0,0.0,0.0,0.0,0.0,0.0,0.0,0.0,0.0,0.0,0.0,0.0,0.0,0.0,0.0,0.0,0.0,0.0,0.0,0.0,0.0,0.0,0.0,0.0,-3.2525,-3.3812,-3.5445,-3.511,-3.477,0.0,0.0,0.0,0.0,0.0,0.0,-4.1836,-4.3789,-4.563,-4.7327,-4.973,-5.1394,-5.2278,-5.3538,-5.4164,-5.4164,-5.3741,-5.3087,-5.2192,-5.1164,-4.974,-4.8067,-4.7259,-4.5913,-4.4094,-4.1389,-3.8826,-3.653,-3.5674,-3.476,0.0,-3.3679,-3.3658,-3.3576,0.0,0.0,0.0,0.0,0.0,0.0,0.0,0.0,0.0,0.0,0.0,0.0,0.0,0.0,-3.144,-3.2996,-3.4256,-3.4313,0.0,0.0,0.0,0.0,-3.0227,-3.0586,-3.1731,-3.4231,-3.6117,-3.7381,-3.9534,-4.1295,-4.2701,-4.3241,-4.3733,-4.4147,-4.4147,-4.316,-4.1309,-4.032,-3.8357,-3.5675,0.0,0.0,0.0,0.0,0.0,0.0,0.0,0.0,0.0,0.0,0.0,0.0,0.0,0.0,0.0,0.0,0.0,0.0,0.0,0.0,0.0,0.0,0.0,0.0,0.0,0.0,0.0,0.0,0.0,0.0,0.0,0.0,0.0,0.0,0.0,0.0,0.0,0.0,0.0,-3.718,-3.7345,0.0,0.0,0.0,0.0,-3.9881,-4.1922,-4.4228,-4.6802,-4.8769,-5.0665,-5.2482,-5.4327,-5.57,-5.6575,-5.6739,-5.681,-5.6791,-5.5203,-5.3972,-5.3087,-5.1433,-4.974,-4.8067,-4.7259,-4.5913,-4.4229,-4.3299,-4.1404,-3.9031,-3.8228,-3.6969,-3.5499,-3.4729,-3.448,-3.4422,0.0,0.0,0.0,0.0,0.0,0.0,0.0,0.0,0.0,0.0,0.0,0.0,0.0,-3.0272,-3.2359,-3.3938,-3.4804,-3.4594,-3.3102,0.0,0.0,0.0,-2.9321,-3.0057,-3.2292,-3.4383,-3.6236,-3.7852,-4.0083,-4.1548,-4.2265,-4.3424,-4.4123,-4.4305,-4.4784,-4.4545,-4.3551,-4.1974,-3.9929,-3.7521,-3.5137,-3.2705,0.0,0.0,0.0,0.0,0.0,0.0,0.0,0.0,0.0,0.0,0.0,0.0,0.0,0.0,0.0,0.0,0.0,0.0,0.0,0.0,0.0,0.0,0.0,0.0,0.0,0.0,0.0,0.0,0.0,0.0,0.0,0.0,0.0,0.0,0.0,0.0,0.0,-4.102,-4.1366,0.0,0.0,-4.2237,-4.3031,-4.4739,-4.6709,-4.8756,-5.0801,-5.2828,-5.4268,-5.4998,-5.632,-5.7206,-5.7599,-5.7152,-5.667,-5.6156,-5.503,-5.376,-5.2327,-5.1202,-4.974,-4.8067,-4.7259,-4.624,-4.5114,-4.4833,-4.3222,-4.0819,-4.002,-3.9039,-3.7986,-3.7182,-3.6576,-3.6025,0.0,0.0,0.0,0.0,0.0,0.0,0.0,0.0,0.0,0.0,0.0,-2.5449,-2.7974,-3.0415,-3.2485,-3.3883,-3.446,-3.4082,-3.2503,0.0,0.0,0.0,-2.8826,-3.0042,-3.24,-3.4444,-3.6335,-3.8057,-3.9956,-4.1156,-4.1743,-4.2903,-4.3559,-4.3829,-4.434,-4.4609,-4.4534,-4.3137,-4.147,-3.9559,-3.7379,-3.4915,-3.2428,0.0,0.0,0.0,0.0,0.0,0.0,0.0,0.0,0.0,0.0,0.0,0.0,0.0,0.0,0.0,0.0,0.0,0.0,0.0,0.0,0.0,0.0,0.0,0.0,0.0,0.0,0.0,0.0,0.0,0.0,0.0,0.0,0.0,0.0,0.0,-4.1287,-4.4342,-4.5204,-4.5865,-4.6691,-4.7059,-4.785,-4.9288,-5.0898,-5.2585,-5.4335,-5.5568,-5.6436,-5.6866,-5.7405,-5.775,-5.7896,-5.7203,-5.6472,-5.5662,-5.4577,-5.3164,-5.1471,-5.0337,-4.9048,-4.7663,-4.6817,-4.6124,-4.5594,-4.5594,-4.4603,-4.2964,-4.1875,-4.0949,-4.0112,-3.8975,-3.8057,-3.7205,0.0,0.0,0.0,0.0,0.0,0.0,0.0,0.0,0.0,0.0,-2.3031,-2.512,-2.7628,-2.9901,-3.172,-3.2696,-3.3229,-3.2742,-3.087,-2.9413,0.0,-2.7193,-2.8841,-3.0465,-3.2033,-3.4373,-3.6356,-3.7978,-3.9079,-4.0177,-4.1272,-4.1534,-4.2065,-4.2744,-4.2744,-4.3307,-4.4224,-4.3864,-4.3056,-4.1838,-3.9254,-3.7198,-3.537,0.0,0.0,0.0,0.0,0.0,0.0,0.0,0.0,0.0,0.0,0.0,0.0,0.0,0.0,0.0,0.0,0.0,0.0,0.0,0.0,0.0,0.0,0.0,0.0,0.0,0.0,0.0,0.0,0.0,0.0,0.0,0.0,0.0,-3.8106,-4.1337,-4.4473,-4.6947,-4.8728,-5.0088,-5.0875,-5.1709,-5.2543,-5.3353,-5.4332,-5.5604,-5.7301,-5.6966,-5.7153,-5.8101,-5.7696,-5.7519,-5.7643,-5.7015,-5.6314,-5.55,-5.3902,-5.2279,-5.0587,-4.8875,-4.7663,-4.6846,-4.597,-4.5594,-4.5594,-4.5594,-4.5575,-4.5402,-4.3739,-4.2609,-4.1724,-3.9983,-3.8819,-3.7873,0.0,0.0,0.0,0.0,0.0,0.0,0.0,0.0,0.0,0.0,-2.2405,-2.491,-2.7629,-2.9912,-3.1579,-3.2239,-3.2103,-3.1249,-2.9398,0.0,0.0,-2.6268,-2.7815,-2.957,-3.1467,-3.3623,-3.5568,-3.7363,-3.8672,-3.9599,-4.0134,-4.0782,-4.1235,-4.1458,-4.1819,-4.2333,-4.2923,-4.3217,-4.329,-4.3098,-4.188,-4.0334,-3.8591,0.0,0.0,0.0,0.0,0.0,0.0,0.0,0.0,0.0,0.0,0.0,0.0,0.0,0.0,0.0,0.0,0.0,0.0,0.0,0.0,0.0,0.0,0.0,0.0,0.0,0.0,0.0,0.0,0.0,0.0,0.0,0.0,-4.0211,-4.1109,-4.4369,-4.7609,-5.0181,-5.2024,-5.339,-5.4197,-5.4516,-5.4975,-5.5783,-5.6172,-5.6611,-5.7076,-5.7126,-5.7053,-5.6912,-5.6395,-5.6263,-5.6542,-5.5309,-5.4332,-5.3617,-5.2656,-5.1315,-4.9643,-4.8587,-4.7663,-4.6846,-4.597,-4.5594,-4.5594,-4.5594,-4.5229,-4.4547,-4.3508,-4.2959,-4.2563,-4.082,-3.9264,-3.7797,0.0,0.0,0.0,0.0,0.0,0.0,0.0,0.0,0.0,0.0,-2.1761,-2.4297,-2.6693,-2.8935,-3.0423,-3.0751,-3.0377,-2.9434,-2.7833,0.0,0.0,-2.6173,-2.7794,-2.959,-3.1529,-3.3361,-3.5242,-3.7113,-3.8174,-3.8985,-3.953,-4.0134,-4.044,-4.058,-4.0883,-4.1322,-4.1792,-4.2346,-4.2808,-4.3171,-4.3294,-4.2218,-4.0462,-3.9765,-3.7863,-3.5571,-3.5233,-3.4038,-3.2497,-3.1926,0.0,0.0,0.0,0.0,0.0,0.0,0.0,0.0,0.0,0.0,0.0,0.0,0.0,0.0,0.0,0.0,0.0,0.0,0.0,0.0,0.0,0.0,0.0,0.0,-4.0078,-4.3237,-4.4987,-4.7537,-5.0199,-5.282,-5.4444,-5.5654,-5.6442,-5.6561,-5.6804,-5.7281,-5.7385,-5.7261,-5.693,-5.6759,-5.6376,-5.5705,-5.5175,-5.4844,-5.4789,-5.4082,-5.321,-5.2177,-5.1503,-5.0308,-4.87,-4.7914,-4.7125,0.0,-4.5825,-4.5594,-4.5594,-4.5594,-4.5094,0.0,0.0,0.0,0.0,0.0,-3.8849,-3.7774,0.0,0.0,0.0,0.0,0.0,0.0,0.0,0.0,0.0,0.0,0.0,-2.3418,-2.5361,-2.7412,-2.8633,-2.8633,-2.8252,-2.75,0.0,0.0,-2.5841,-2.6579,-2.8309,-3.0037,-3.1752,-3.3257,-3.4928,-3.6869,-3.7536,-3.8303,-3.9206,-3.953,-3.9788,-4.0032,-4.0032,-4.0338,-4.0833,-4.1348,-4.1868,-4.2368,-4.3681,-4.3146,-4.1572,-4.1371,-3.9773,-3.7658,-3.7739,-3.6971,-3.5833,-3.507,0.0,0.0,0.0,0.0,0.0,0.0,0.0,0.0,0.0,0.0,0.0,0.0,0.0,0.0,0.0,0.0,0.0,0.0,0.0,0.0,0.0,0.0,0.0,0.0,-4.2551,-4.5891,-4.9097,-5.064,-5.2354,-5.4779,-5.6028,-5.7,-5.7737,-5.7927,-5.7997,-5.7997,-5.7997,-5.7611,-5.6712,0.0,0.0,0.0,0.0,-5.346,-5.2945,-5.3088,-5.2445,-5.1009,-5.0392,-4.9285,-4.7717,-4.7079,-4.6349,-4.5577,-4.5577,-4.5577,-4.5577,-4.5586,-4.5028,-4.4085,-4.3278,-4.2374,-4.1239,-3.8873,-3.793,0.0,0.0,0.0,0.0,0.0,0.0,0.0,0.0,0.0,0.0,-1.8571,-2.0644,-2.2728,-2.4473,-2.5996,-2.6875,-2.6875,-2.6484,-2.5967,0.0,-2.5879,-2.6507,-2.7182,-2.8578,-2.9904,-3.1065,-3.2219,-3.3658,-3.5344,-3.6406,-3.7507,-3.8579,-3.9102,-3.953,-3.9788,-3.9788,-3.9942,-4.0287,-4.0593,-4.1034,-4.1607,-4.2466,-4.3096,-4.3515,-4.3224,-4.2262,-4.0937,-4.0129,-3.932,-3.8467,-3.7255,-3.6761,-3.6312,-3.4322,0.0,0.0,0.0,0.0,0.0,0.0,0.0,0.0,0.0,0.0,0.0,0.0,0.0,0.0,0.0,0.0,0.0,0.0,0.0,0.0,-4.2328,-4.5514,-4.8558,-5.1242,-5.2809,-5.4116,-5.5328,-5.663,-5.7509,-5.7774,-5.7927,-5.7997,-5.7997,-5.7997,-5.7354,-5.5904,-5.5706,0.0,-5.3615,-5.2965,-5.2622,-5.2679,-5.1632,-5.066,-4.9829,0.0,0.0,-4.6697,-4.664,-4.6205,-4.5438,-4.5438,-4.5438,-4.5438,-4.5495,-4.4647,-4.3258,-4.2393,-4.1123,-3.9642,-3.843,-3.7565,-3.6815,0.0,0.0,0.0,0.0,0.0,0.0,0.0,0.0,0.0,0.0,-1.9512,-2.1152,-2.2656,-2.3994,-2.4775,-2.4766,-2.4766,0.0,-2.5106,-2.6094,-2.7033,-2.7826,-2.9105,-3.0125,-3.0792,-3.1835,-3.3068,-3.4458,-3.5795,-3.7066,-3.8198,-3.8945,-3.9426,-3.9697,-3.9697,-3.9788,-3.9929,-4.0185,-4.0427,-4.0769,-4.1706,-4.2309,-4.269,-4.3169,-4.27,-4.1719,-4.0988,-4.0338,-3.9622,-3.8715,-3.8182,-3.7674,-3.6357,-3.528,-3.4233,0.0,0.0,0.0,0.0,0.0,0.0,0.0,0.0,0.0,0.0,0.0,0.0,0.0,0.0,-3.6374,0.0,0.0,-4.3108,-4.5416,-4.8154,-5.052,-5.2161,-5.3593,-5.4829,-5.5649,-5.6732,-5.7437,-5.7601,-5.7839,-5.7997,-5.7997,-5.7629,-5.6877,-5.5647,-5.5207,-5.4274,-5.2702,-5.2364,-5.1855,-5.1157,-5.0152,-4.9314,-4.8634,-4.7631,-4.6832,-4.6187,-4.5883,-4.5573,-4.5239,-4.5239,-4.5279,-4.5234,-4.4471,-4.372,-4.2917,-4.1649,-4.0396,-3.9188,-3.8315,-3.745,-3.6577,0.0,0.0,0.0,0.0,0.0,0.0,0.0,0.0,0.0,0.0,-1.8404,-1.9637,-2.0693,-2.1934,-2.2685,0.0,0.0,-2.4108,-2.5057,-2.6445,-2.7646,-2.8506,-2.9744,-3.0561,-3.0819,-3.1768,-3.2794,-3.3882,-3.5265,-3.6633,-3.7882,-3.8681,-3.9274,-3.9697,-3.9697,-3.9697,-3.9697,-3.9929,-4.0032,-4.0083,-4.1034,-4.1229,-4.108,-4.2074,-4.2051,-4.1515,-4.1151,-4.0626,-3.9995,-3.9412,-3.8931,-3.8482,-3.7808,-3.6806,-3.5639,-3.4427,-3.2961,0.0,0.0,0.0,0.0,0.0,0.0,0.0,0.0,0.0,-3.5674,-3.6509,-3.8526,-4.0485,-4.1648,-4.4069,-4.6447,-4.8071,-5.0091,-5.1764,-5.2649,-5.3707,-5.4639,-5.5326,-5.6242,-5.6903,-5.7053,-5.7355,-5.7496,-5.7496,-5.6909,-5.6216,-5.5409,-5.4601,-5.35,-5.205,-5.1748,-5.0979,-4.969,-4.8882,-4.8173,-4.7473,-4.6159,-4.5575,-4.5644,-4.5067,-4.4876,-4.5014,-4.5014,-4.508,-4.5014,-4.3394,-4.2814,-4.2781,-4.1102,-3.9972,-3.9173,-3.8315,-3.7353,-3.6365,0.0,0.0,0.0,0.0,0.0,0.0,0.0,0.0,0.0,0.0,0.0,0.0,0.0,0.0,0.0,0.0,-2.2539,-2.3805,-2.5037,-2.7002,-2.8525,-2.945,-3.0588,-3.1197,-3.1255,-3.215,-3.2885,-3.3363,-3.4555,-3.5885,-3.7276,-3.7934,-3.8772,-3.9697,-3.9697,-3.9697,-3.9697,-3.9749,-3.9736,-3.98,-4.0134,-4.0246,-4.0109,-4.0074,-4.0609,-4.1264,-4.0885,-4.0459,-3.9929,-3.8859,-3.8856,-3.9185,-3.8497,-3.7778,-3.706,-3.6357,0.0,-3.2228,-3.157,-3.0883,-3.07,-3.1966,-3.2518,-3.316,0.0,0.0,-3.7637,-3.9709,-4.1177,-4.2663,-4.4548,-4.5874,-4.7361,-4.9509,-5.0608,-5.1757,-5.3213,-5.3316,-5.3366,-5.3566,-5.473,-5.5628,-5.5945,-5.5798,-5.5692,-5.5692,-5.5731,-5.5372,-5.4583,-5.3775,-5.2931,-5.2013,-5.062,-4.9795,-4.9612,-4.82,-4.7093,-4.6367,-4.5609,-4.4975,-4.4496,-4.4467,-4.4557,-4.4732,-4.4732,-4.4827,-4.4799,-4.3119,-4.2565,-4.2575,-4.0958,-3.9879,-3.9108,-3.83,-3.7007,-3.5615,0.0,0.0,0.0,0.0,0.0,0.0,0.0,0.0,0.0,0.0,0.0,0.0,0.0,0.0,0.0,0.0,-2.1816,-2.3218,-2.4998,-2.7058,-2.8676,-2.981,-3.1134,-3.1893,-3.2123,-3.2856,-3.3404,-3.3759,-3.48,-3.5782,-3.6747,-3.7651,-3.8497,-3.9233,-3.9546,-3.9697,-3.9697,-3.9697,-3.9697,-3.9749,-4.0147,-4.0003,-3.9531,-3.9841,-3.9349,-3.8505,-3.8616,-3.8436,0.0,0.0,-3.7165,-3.7659,-3.7375,-3.709,-3.6746,-3.6103,-3.4577,0.0,-3.2243,-3.2168,-3.2587,0.0,-3.5055,-3.6029,-3.7344,-3.891,-4.0447,-4.1677,-4.3485,-4.5156,-4.6188,-4.7659,-4.9018,0.0,-5.0727,-5.1454,-5.208,-5.2185,-5.2047,-5.1758,-5.2166,-5.306,-5.4594,-5.493,-5.5106,-5.5268,-5.4979,-5.4481,-5.3757,-5.2949,-5.1922,-5.0639,-4.9959,-4.9372,-4.8838,-4.7297,-4.636,-4.6135,-4.4858,-4.4193,-4.4064,-4.4109,-4.4185,-4.4288,-4.4331,-4.4163,-4.3766,-4.2618,-4.2013,-4.1656,-4.0547,-3.9366,-3.8242,-3.802,-3.719,-3.6135,0.0,0.0,0.0,0.0,0.0,0.0,0.0,0.0,0.0,0.0,0.0,0.0,0.0,0.0,0.0,-2.0192,-2.1243,-2.2729,-2.4904,-2.6983,-2.8775,-3.0228,-3.1722,-3.2711,-3.3187,-3.3781,-3.4197,-3.4361,-3.5141,-3.5836,-3.6434,-3.7314,-3.809,-3.8655,-3.922,-3.9471,-3.9484,-3.9634,-3.9736,-3.9826,-4.0122,-3.9767,-3.9112,-3.9237,-3.8016,-3.621,-3.6753,-3.6406,0.0,0.0,-3.5265,-3.5699,-3.5911,-3.5971,-3.5833,-3.537,-3.4397,-3.3469,-3.3365,0.0,0.0,-3.6325,-3.759,-3.8702,-3.9631,-4.1177,-4.2513,-4.2882,-4.4784,-4.6437,-4.6656,-4.7994,-4.9244,-4.9666,-5.0221,-5.076,-5.1134,-5.099,-5.072,-5.0281,-4.9849,-5.0327,-5.2148,-5.2949,-5.3434,-5.3708,-5.3379,-5.2962,-5.2501,-5.1775,-5.0804,-4.9647,-4.9372,-4.893,-4.8324,-4.6709,-4.5938,-4.601,-4.4355,-4.3667,-4.3816,-4.3867,-4.3897,-4.3961,-4.4005,-4.3629,-4.2936,-4.2169,-4.1512,-4.0877,-4.014,-3.9054,-3.7871,-3.7797,-3.714,-3.6226,0.0,0.0,0.0,0.0,0.0,0.0,0.0,0.0,0.0,0.0,0.0,0.0,0.0,0.0,0.0,-1.9528,-2.0836,-2.2541,-2.4757,-2.6972,-2.9075,-3.0999,-3.25,-3.3647,-3.4413,-3.5048,-3.5256,-3.5051,-3.5366,-3.5815,-3.6407,-3.6725,-3.7268,-3.8052,-3.8642,-3.8944,-3.8982,-3.9471,-3.9839,-4.0083,-3.9726,-3.9356,-3.8853,-3.7813,-3.6494,-3.5351,-3.6007,0.0,0.0,0.0,-3.3559,-3.3694,-3.4369,-3.4563,0.0,-3.4548,-3.4054,-3.3784,0.0,0.0,-3.6866,-3.8811,-3.9813,-4.0561,-4.1422,-4.2462,-4.3288,-4.3365,-4.4681,-4.5797,-4.5663,-4.6171,-4.7087,-4.8599,-4.8976,-4.9576,-5.1014,-5.0091,-4.925,-4.9233,-4.8248,-4.7713,0.0,-4.904,-4.9778,-5.0042,-5.0337,-5.0553,-5.0657,-5.0046,-4.9647,-4.961,-4.8783,-4.8343,-4.8306,-4.6709,-4.5902,-4.5883,-4.4286,-4.3531,-4.3599,-4.3736,-4.3804,-4.3804,-4.3804,-4.3389,-4.2647,-4.1854,-4.1157,-4.0532,-3.9802,-3.9123,-3.8481,-3.7694,-3.6539,-3.5346,0.0,0.0,0.0,0.0,0.0,0.0,0.0,0.0,0.0,0.0,0.0,0.0,0.0,0.0,0.0,0.0,-2.0601,-2.2307,-2.4262,-2.6634,-2.8711,-3.0281,-3.2112,-3.333,-3.377,-3.4317,-3.4584,-3.4556,-3.4824,-3.5081,-3.5276,-3.6058,-3.6616,-3.7126,-3.8203,-3.8675,-3.8762,-3.9316,-3.961,-3.9705,-3.9494,-3.9269,-3.8957,-3.7949,-3.6501,-3.4968,0.0,0.0,0.0,-3.1138,-3.1465,-3.2198,-3.2452,0.0,-3.3829,-3.3829,-3.3978,-3.4474,-3.5789,0.0,-3.8901,-4.0876,-4.1863,-4.2521,-4.3259,-4.3364,-4.3223,-4.2865,-4.3487,-4.3993,-4.3714,-4.4202,-4.5016,-4.623,-4.6969,-4.7781,-4.8852,-4.9032,-4.869,-4.7738,-4.7338,0.0,0.0,0.0,0.0,-4.9471,-4.9771,-4.984,-4.9607,-4.9396,-4.9076,-4.8686,-4.8393,-4.8247,-4.8306,-4.6709,-4.5902,-4.5883,-4.4268,-4.3496,-4.3549,-4.3583,-4.36,-4.3582,-4.3031,-4.2398,-4.1649,-4.0834,-4.0122,-3.9477,-3.8721,-3.8016,-3.7326,-3.6595,-3.5704,-3.487,0.0,0.0,0.0,0.0,0.0,0.0,0.0,0.0,0.0,0.0,0.0,0.0,0.0,0.0,0.0,0.0,0.0,-2.228,-2.4201,-2.6187,-2.8066,-2.9764,-3.1363,-3.2475,-3.2912,-3.3371,-3.3662,-3.3683,-3.4055,-3.4294,-3.4359,-3.5228,-3.5763,-3.5991,-3.7095,-3.7677,-3.79,-3.8523,-3.897,-3.9336,-3.8861,-3.8698,-3.8569,-3.72,-3.5787,0.0,0.0,0.0,0.0,-3.0464,-3.0522,-3.0928,-3.163,-3.2781,-3.3888,-3.4143,-3.4831,-3.5863,-3.7449,-3.9155,-4.0831,-4.2327,-4.3195,-4.3633,-4.3629,-4.3165,-4.2474,-4.1464,-4.1482,-4.1501,-4.0935,-4.1681,-4.2779,-4.4069,-4.5341,-4.6591,-4.7753,-4.8325,-4.8274,-4.731,-4.7043,0.0,0.0,0.0,0.0,-4.8119,-4.8425,-4.8551,-4.8331,-4.846,-4.8372,-4.8026,-4.8088,-4.8041,-4.7845,-4.6544,-4.5608,-4.5021,-4.3975,-4.3515,-4.3515,-4.3515,-4.3332,-4.3039,-4.2525,-4.1695,-4.0696,-4.0181,-3.9559,-3.8847,-3.809,-3.7357,-3.6632,-3.5924,-3.5154,-3.4531,0.0,0.0,0.0,0.0,0.0,0.0,0.0,0.0,0.0,0.0,0.0,0.0,0.0,0.0,0.0,0.0,0.0,0.0,-2.4594,-2.5661,-2.7157,-2.9283,-3.0265,-3.1137,-3.1944,-3.2252,-3.2431,-3.2418,-3.2989,-3.3339,-3.3567,-3.4161,-3.4507,-3.4682,-3.5294,-3.5907,-3.6465,-3.7103,-3.7966,-3.8881,-3.7886,-3.7688,-3.7678,-3.5611,0.0,0.0,0.0,0.0,0.0,0.0,0.0,0.0,-3.2048,-3.3559,-3.4788,-3.5444,-3.6582,-3.8033,-3.9978,-4.1489,-4.271,-4.3245,-4.3828,-4.3973,-4.2695,-4.1949,-4.1036,-3.9232,-3.8833,-3.8513,0.0,0.0,-4.0351,-4.2116,-4.4047,-4.5883,-4.7551,-4.7872,-4.7922,0.0,0.0,0.0,0.0,0.0,0.0,-4.6114,0.0,-4.6813,-4.6916,-4.729,-4.7547,-4.7675,-4.7868,-4.7667,-4.6997,-4.6213,-4.5039,-4.3479,-4.3479,-4.3497,-4.3515,-4.3515,-4.3057,-4.2304,-4.2268,-4.135,-3.99,-3.9845,-3.943,-3.87,-3.7853,-3.7132,-3.648,-3.5636,-3.4878,-3.434,0.0,0.0,0.0,0.0,0.0,0.0,0.0,0.0,0.0,0.0,0.0,0.0,0.0,0.0,0.0,0.0,0.0,0.0,-2.3845,-2.5358,-2.6639,-2.7606,-2.8662,-2.9403,-2.9694,-2.9978,-3.021,-3.027,-3.0672,-3.1152,-3.1676,-3.1888,-3.2283,-3.2836,-3.3692,-3.4149,-3.44,-3.5983,-3.6814,-3.7055,0.0,-3.6404,-3.6424,0.0,0.0,0.0,0.0,0.0,0.0,0.0,0.0,0.0,0.0,-3.5624,-3.6791,-3.7464,-3.8945,-4.0591,-4.1632,-4.3219,-4.4586,-4.4751,-4.4541,-4.3973,-4.2695,-4.0897,-3.9068,-3.7594,-3.6728,-3.6106,0.0,0.0,0.0,-3.9655,-4.1488,0.0,-4.5916,-4.7682,0.0,-4.7956,0.0,-4.8003,-4.6946,-4.6973,0.0,0.0,-4.7234,-4.7421,-4.7213,-4.7391,-4.7434,-4.7254,-4.7493,-4.7342,-4.6782,-4.5459,-4.4346,-4.3429,-4.3429,-4.3464,-4.3515,-4.3515,-4.3057,-4.2268,-4.168,-4.0836,-3.9845,-3.9239,-3.8906,-3.8591,-3.7177,-3.6526,-3.6205,-3.48,-3.4157,-3.4036,0.0,0.0,0.0,0.0,0.0,0.0,0.0,0.0,0.0,0.0,0.0,0.0,0.0,0.0,0.0,0.0,0.0,0.0,0.0,-2.5088,-2.5924,-2.6611,-2.7403,-2.7874,-2.7927,-2.8338,-2.86,-2.8666,-2.9282,-2.9812,-3.0261,-3.0269,-3.0503,-3.0966,-3.15,-3.1897,-3.2268,-3.3931,0.0,0.0,0.0,0.0,0.0,0.0,0.0,0.0,0.0,0.0,0.0,0.0,0.0,-3.4547,-3.6237,-3.7868,-3.9275,-3.9969,0.0,-4.2806,-4.3504,-4.4676,-4.5678,-4.5364,-4.4586,-4.3389,-4.1504,-3.9107,-3.682,-3.5183,-3.4031,0.0,0.0,0.0,0.0,0.0,0.0,0.0,-4.5221,-4.7584,-4.8968,0.0,-4.9238,0.0,-4.8325,-4.8026,-4.787,0.0,-4.7718,-4.7385,-4.6882,-4.709,-4.7075,-4.6713,-4.6695,-4.628,-4.5432,-4.4244,-4.3505,-4.3178,-4.3233,-4.3323,-4.3464,-4.3464,-4.2839,-4.1754,0.0,-4.0451,-3.9331,-3.8891,-3.8707,-3.8542,-3.6927,-3.6303,-3.6097,-3.4453,-3.3873,-3.3855,0.0,0.0,0.0,0.0,0.0,0.0,0.0,0.0,0.0,0.0,0.0,0.0,0.0,0.0,0.0,0.0,0.0,0.0,0.0,0.0,0.0,-2.6149,-2.6508,-2.6704,-2.6763,-2.7264,-2.7554,0.0,0.0,0.0,0.0,0.0,0.0,0.0,0.0,0.0,0.0,0.0,0.0,0.0,0.0,0.0,0.0,0.0,0.0,0.0,0.0,0.0,0.0,0.0,-3.5537,-3.6866,-3.8332,-4.0098,-4.1788,-4.2575,-4.3614,-4.4706,-4.5274,-4.5933,-4.6262,-4.5484,-4.4242,-4.2467,-3.9888,-3.718,-3.4696,-3.2751,0.0,-3.0734,-3.1006,-3.2215,-3.3974,-3.654,0.0,-4.2094,-4.4651,-4.7123,-4.8954,-4.9712,-4.9965,-5.005,-4.9949,-4.9373,-4.8968,-4.8866,-4.7987,-4.7141,-4.6433,-4.6719,-4.6664,-4.6021,-4.5505,-4.4741,-4.3717,-4.2971,-4.2673,-4.2806,-4.2937,-4.3105,-4.3305,-4.3323,-4.248,-4.1029,0.0,0.0,-3.8661,-3.8661,-3.8661,-3.8508,-3.6894,-3.6285,-3.6101,-3.4412,-3.3807,-3.3807,0.0,0.0,0.0,0.0,0.0,0.0,0.0,0.0,0.0,0.0,0.0,0.0,0.0,0.0,0.0,0.0,0.0,0.0,0.0,0.0,0.0,0.0,-2.6394,-2.6693,-2.7026,0.0,0.0,0.0,0.0,0.0,0.0,0.0,0.0,0.0,0.0,0.0,0.0,0.0,0.0,0.0,0.0,0.0,0.0,0.0,0.0,0.0,0.0,0.0,0.0,0.0,-3.6178,-3.7674,-4.0098,-4.1848,-4.3185,-4.4436,-4.5349,-4.5965,-4.607,-4.6636,-4.683,-4.5603,-4.3898,-4.1871,-3.917,-3.6118,0.0,0.0,-3.0685,-2.9919,-3.0304,-3.1211,-3.251,-3.432,0.0,0.0,0.0,0.0,-4.7312,0.0,0.0,0.0,0.0,0.0,0.0,0.0,0.0,0.0,-4.6907,-4.7056,-4.651,-4.5086,-4.3955,-4.3333,-4.3219,-4.242,-4.2133,-4.2318,-4.2456,-4.2614,-4.2844,-4.2957,-4.2123,-4.0599,0.0,0.0,-3.8372,-3.8372,-3.8435,-3.8361,-3.675,-3.619,-3.6101,-3.4412,-3.3807,-3.3807,0.0,0.0,0.0,0.0,0.0,0.0,0.0,0.0,0.0,0.0,0.0,0.0,0.0,0.0,0.0,0.0,0.0,0.0,0.0,0.0,0.0,0.0,0.0,0.0,0.0,0.0,0.0,0.0,0.0,0.0,0.0,0.0,0.0,0.0,0.0,0.0,0.0,0.0,0.0,0.0,0.0,0.0,0.0,0.0,0.0,0.0,0.0,0.0,0.0,0.0,-3.5848,-3.7509,-4.0883,-4.2566,-4.3618,-4.5334,-4.6067,-4.6396,-4.6741,-4.707,-4.698,-4.5618,-4.3569,-4.1197,-3.8482,0.0,0.0,0.0,-2.946,-2.8741,-2.9375,0.0,0.0,0.0,0.0,0.0,0.0,0.0,0.0,0.0,0.0,0.0,0.0,0.0,0.0,0.0,0.0,0.0,-4.6394,-4.5778,-4.4978,-4.384,-4.2914,-4.2265,-4.1973,-4.1611,-4.1534,-4.1796,-4.192,-4.2151,-4.242,-4.2104,-4.1372,-4.0311,0.0,0.0,-3.8053,-3.8121,-3.8188,-3.8089,-3.6555,-3.5982,-3.583,-3.4193,-3.3591,-3.3605,0.0,0.0,0.0,0.0,0.0,0.0,0.0,0.0,-2.9792,-3.1573,-3.2064,-3.1541,-2.9692,-2.9057,0.0,0.0,0.0,0.0,0.0,0.0,0.0,0.0,0.0,0.0,0.0,0.0,0.0,0.0,0.0,0.0,0.0,0.0,0.0,0.0,0.0,0.0,0.0,0.0,0.0,0.0,0.0,0.0,0.0,0.0,0.0,0.0,0.0,0.0,0.0,0.0,-3.5087,-3.6641,-4.0074,-4.1938,-4.3245,-4.5155,-4.5888,-4.6247,-4.692,-4.7189,-4.698,-4.5618,-4.3314,-4.0681,-3.8018,-3.4336,0.0,0.0,-2.8528,-2.7815,-2.8469,0.0,-2.9975,0.0,0.0,0.0,0.0,0.0,0.0,0.0,0.0,0.0,0.0,0.0,0.0,0.0,0.0,0.0,0.0,-4.4276,-4.3287,-4.2612,-4.1982,-4.1385,-4.0817,-4.0877,-4.1001,-4.1255,-4.1386,-4.1596,-4.1931,-4.1209,-4.0528,-3.9881,0.0,0.0,0.0,-3.7703,-3.772,-3.7518,-3.6179,-3.5593,-3.5299,-3.3873,-3.3334,-3.3349,0.0,0.0,0.0,0.0,0.0,0.0,0.0,0.0,-2.9697,-3.1561,-3.2921,-3.3612,-3.3404,-3.1556,0.0,0.0,0.0,0.0,0.0,0.0,0.0,0.0,0.0,0.0,0.0,0.0,0.0,0.0,0.0,0.0,0.0,0.0,0.0,0.0,0.0,0.0,0.0,0.0,0.0,0.0,0.0,0.0,0.0,0.0,0.0,0.0,0.0,0.0,0.0,0.0,0.0,-3.4968,-3.6522,-3.911,-4.1833,-4.324,0.0,0.0,-4.6232,-4.686,-4.698,-4.5618,-4.3314,-4.0681,-3.8018,0.0,0.0,-2.9849,-2.8528,-2.7665,-2.7866,-2.8516,-2.9235,0.0,0.0,-3.4414,0.0,0.0,0.0,0.0,0.0,0.0,0.0,0.0,0.0,0.0,0.0,0.0,0.0,-4.3369,-4.2303,-4.1563,-4.0939,-4.0603,-4.0534,-4.0541,-4.0631,-4.0769,-4.0836,-4.096,-4.1082,-4.0458,-3.9761,-3.8971,0.0,0.0,0.0,-3.6997,-3.682,-3.6452,-3.5577,-3.4926,-3.4333,-3.3456,-3.3132,-3.3132,0.0,0.0,0.0,0.0,0.0,0.0,0.0,-2.8957,-3.1017,-3.3092,-3.3854,-3.4368,-3.4812,-3.3686,0.0,0.0,0.0,0.0,0.0,0.0,0.0,0.0,0.0,0.0,0.0,0.0,0.0,0.0,0.0,0.0,0.0,0.0,0.0,0.0,0.0,0.0,0.0,0.0,0.0,0.0,0.0,0.0,0.0,0.0,0.0,0.0,0.0,0.0,0.0,0.0,0.0,0.0,-3.3918,-3.5534,0.0,0.0,-4.2237,-4.3254,-4.4721,-4.5603,-4.5783,-4.4466,-4.2162,-3.9514,-3.6866,0.0,-3.0552,-2.9265,-2.8259,-2.7625,-2.7675,-2.8027,-2.848,0.0,0.0,0.0,0.0,0.0,0.0,0.0,0.0,0.0,0.0,0.0,0.0,0.0,0.0,0.0,0.0,-4.2018,-4.1586,-4.1281,-4.0629,-4.0246,-4.0246,-4.0246,-4.0337,-4.0436,-4.0024,-3.9945,-4.0106,-3.895,-3.8291,-3.8005,0.0,0.0,0.0,-3.6632,-3.6319,-3.5723,-3.4953,-3.4234,-3.3529,-3.2735,-3.2436,-3.247,0.0,0.0,0.0,0.0,0.0,0.0,-2.7003,-2.9194,-3.1363,-3.3292,-3.4095,-3.471,-3.5227,-3.5268,-3.4668,-3.3206,0.0,0.0,0.0,0.0,0.0,0.0,0.0,0.0,0.0,0.0,0.0,0.0,0.0,0.0,0.0,0.0,0.0,0.0,0.0,0.0,0.0,0.0,0.0,0.0,0.0,0.0,0.0,0.0,0.0,0.0,0.0,0.0,0.0,0.0,0.0,0.0,0.0,0.0,0.0,0.0,-3.9529,-4.0891,-4.2671,-4.3643,-4.3913,-4.3015,-4.0786,-3.8197,0.0,0.0,-3.0148,-2.8861,-2.8079,-2.76,-2.76,-2.7675,-2.8001,0.0,0.0,-3.1792,0.0,0.0,0.0,0.0,0.0,0.0,0.0,0.0,0.0,0.0,0.0,0.0,0.0,-4.0984,-4.0865,-4.0865,-4.0383,-4.0096,-4.0096,-4.0096,-4.0044,-3.9915,-3.9406,-3.9129,-3.9046,-3.7746,-3.7209,0.0,0.0,0.0,0.0,-3.6014,-3.5563,-3.4866,-3.4146,-3.3423,-3.2714,-3.2157,-3.1931,-3.1932,0.0,0.0,0.0,0.0,0.0,0.0,0.0,0.0,-3.0094,-3.1351,-3.3433,-3.4794,-3.4811,-3.6142,-3.6539,0.0,0.0,0.0,0.0,0.0,0.0,0.0,0.0,0.0,0.0,0.0,0.0,-3.3368,-3.3368,0.0,0.0,0.0,0.0,0.0,0.0,0.0,0.0,0.0,0.0,0.0,0.0,0.0,0.0,0.0,0.0,0.0,0.0,0.0,0.0,0.0,0.0,0.0,0.0,0.0,0.0,0.0,-3.6387,-3.8721,-4.0068,-4.092,-4.1452,-4.1399,-3.9394,-3.6911,0.0,-3.2422,-3.0148,-2.8861,-2.8079,-2.76,-2.76,-2.76,-2.7875,-2.8665,-2.9485,0.0,0.0,0.0,0.0,0.0,0.0,0.0,0.0,0.0,0.0,0.0,0.0,0.0,0.0,0.0,-4.0113,-4.0113,-4.0096,-4.0096,-4.0096,-4.0096,-3.974,-3.9005,-3.9005,-3.8616,-3.7889,-3.7151,0.0,0.0,0.0,0.0,0.0,-3.5018,-3.44,-3.3831,-3.3093,-3.2414,-3.18,-3.18,-3.18,-3.1696,0.0,0.0,0.0,0.0,0.0,0.0,0.0,0.0,-2.8506,-3.0972,-3.2349,-3.3475,0.0,0.0,0.0,0.0,0.0,0.0,0.0,0.0,0.0,0.0,0.0,0.0,0.0,0.0,-3.2878,-3.415,-3.415,-3.415,-3.415,0.0,0.0,0.0,0.0,0.0,0.0,0.0,0.0,0.0,0.0,0.0,0.0,0.0,0.0,0.0,0.0,0.0,0.0,0.0,0.0,0.0,0.0,0.0,0.0,-3.0283,-3.2632,0.0,-3.6686,-3.7838,-3.8571,-3.8138,-3.6372,-3.4337,-3.2811,-3.0776,-2.8951,-2.8094,-2.775,-2.76,-2.76,-2.76,-2.7685,-2.7935,-2.9026,0.0,0.0,0.0,0.0,0.0,0.0,0.0,0.0,0.0,0.0,0.0,0.0,0.0,0.0,0.0,-3.9807,-4.007,-4.0096,-4.0096,-4.0096,-3.9605,-3.9225,-3.8988,-3.7997,-3.7371,-3.711,-3.6332,0.0,0.0,0.0,0.0,0.0,-3.4672,-3.3867,-3.2794,-3.2536,-3.2012,-3.1385,-3.1385,-3.1385,-3.1285,0.0,0.0,0.0,0.0,0.0,0.0,0.0,0.0,-2.7505,-2.93,-3.0927,-3.2364,0.0,0.0,0.0,0.0,0.0,0.0,0.0,0.0,0.0,0.0,0.0,0.0,0.0,-3.3389,-3.4134,-3.5374,-3.5639,-3.5639,-3.5374,-3.5374,-3.481,0.0,0.0,0.0,0.0,0.0,0.0,0.0,0.0,0.0,-3.1511,0.0,0.0,0.0,0.0,0.0,0.0,0.0,0.0,0.0,0.0,0.0,0.0,0.0,-2.9849,-3.1988,0.0,-3.456,-3.5128,-3.5026,-3.3664,0.0,0.0,-2.9654,-2.8412,-2.7735,-2.76,-2.76,-2.76,-2.76,-2.7675,-2.7944,-2.8967,0.0,0.0,0.0,0.0,0.0,0.0,0.0,0.0,0.0,0.0,0.0,0.0,0.0,0.0,0.0,-3.9256,-3.9277,-3.9446,-3.9539,-3.9606,-3.8814,-3.8333,-3.8094,-3.7118,-3.6527,-3.6287,0.0,0.0,0.0,0.0,0.0,0.0,-3.3778,-3.3139,-3.2276,-3.1989,-3.1616,-3.119,-3.119,-3.1021,-3.0702,0.0,0.0,0.0,0.0,0.0,0.0,0.0,0.0,0.0,0.0,0.0,0.0,0.0,0.0,0.0,0.0,0.0,0.0,0.0,0.0,0.0,0.0,0.0,0.0,0.0,-3.5211,-3.5994,-3.6795,-3.7533,-3.755,-3.688,-3.688,-3.6101,-3.4658,-3.4658,0.0,0.0,0.0,0.0,0.0,0.0,0.0,0.0,0.0,0.0,0.0,0.0,0.0,0.0,0.0,0.0,0.0,0.0,0.0,0.0,0.0,0.0,0.0,0.0,-3.1286,0.0,0.0,0.0,0.0,-2.9666,-2.8996,0.0,-2.7735,-2.76,-2.76,-2.76,-2.76,-2.7809,-2.8427,-2.9116,0.0,0.0,0.0,0.0,0.0,0.0,0.0,0.0,0.0,0.0,0.0,0.0,0.0,0.0,0.0,0.0,-3.7768,-3.8133,-3.8447,-3.869,-3.7835,-3.7114,-3.6545,-3.6384,-3.5981,-3.5368,0.0,0.0,0.0,0.0,0.0,0.0,-3.2581,-3.2276,-3.2158,-3.1461,-3.119,-3.119,-3.119,-3.0734,-2.9989,0.0,0.0,0.0,0.0,0.0,0.0,0.0,0.0,0.0,0.0,0.0,0.0,0.0,0.0,0.0,0.0,0.0,0.0,0.0,0.0,0.0,0.0,0.0,0.0,0.0,-3.5211,-3.5994,-3.6795,-3.7533,-3.7821,-3.7652,-3.7652,-3.7144,-3.6271,-3.6271,0.0,0.0,0.0,0.0,0.0,0.0,0.0,0.0,0.0,0.0,0.0,-3.0043,-3.0043,0.0,0.0,0.0,0.0,0.0,0.0,0.0,0.0,-2.7705,-2.7944,-2.8393,0.0,-3.0073,-3.0238,-2.9654,-2.9011,0.0,-2.8334,-2.7794,-2.763,-2.76,-2.76,-2.76,-2.76,-2.7645,-2.7809,-2.8843,0.0,0.0,0.0,0.0,0.0,0.0,0.0,0.0,0.0,0.0,0.0,0.0,0.0,0.0,0.0,0.0,-3.6325,-3.5904,-3.627,-3.7486,-3.6737,-3.6272,-3.613,-3.5533,-3.4931,-3.4353,0.0,0.0,0.0,0.0,0.0,-3.2564,-3.2378,-3.1972,-3.1427,-3.1258,-3.119,-3.119,-3.119,-3.0734,-2.9989,0.0,0.0,0.0,0.0,0.0,0.0,0.0,0.0,0.0,0.0,0.0,0.0,0.0,0.0,0.0,0.0,0.0,0.0,0.0,0.0,0.0,0.0,0.0,0.0,-3.5013,-3.6096,-3.6874,-3.7297,-3.8379,-3.8734,-3.8396,-3.8396,-3.8007,-3.728,-3.6831,0.0,0.0,0.0,0.0,0.0,-3.1211,0.0,0.0,0.0,0.0,0.0,-2.9606,-2.9606,0.0,-2.9235,-2.8891,-2.8547,0.0,0.0,0.0,0.0,-2.76,-2.76,-2.76,-2.8124,-2.8678,-2.8678,-2.8423,-2.8128,-2.8128,-2.763,-2.7151,-2.7151,0.0,0.0,0.0,0.0,0.0,0.0,0.0,0.0,0.0,0.0,0.0,0.0,0.0,0.0,0.0,0.0,0.0,0.0,0.0,0.0,0.0,0.0,0.0,0.0,-3.4482,-3.4926,-3.6219,-3.538,-3.502,-3.5128,-3.4333,-3.3824,-3.3617,0.0,0.0,0.0,0.0,0.0,-3.1564,-3.1564,-3.1365,-3.1052,-3.0975,-3.0972,-3.0955,-3.0895,-3.0188,-2.9235,0.0,0.0,0.0,0.0,0.0,0.0,0.0,0.0,0.0,0.0,0.0,0.0,0.0,0.0,0.0,0.0,0.0,0.0,0.0,0.0,0.0,0.0,0.0,-3.6468,-3.5785,-3.7155,-3.7905,-3.7905,-3.9377,-3.9791,-3.9157,-3.9157,-3.87,-3.7848,-3.6858,-3.5771,0.0,0.0,0.0,0.0,-3.1277,0.0,0.0,0.0,0.0,0.0,0.0,0.0,0.0,-2.8368,-2.8143,-2.8038,-2.748,0.0,0.0,0.0,0.0,0.0,-2.742,-2.745,-2.7465,-2.757,-2.76,-2.76,-2.76,0.0,0.0,0.0,0.0,0.0,0.0,-2.7225,0.0,0.0,0.0,0.0,0.0,0.0,0.0,0.0,0.0,0.0,0.0,0.0,0.0,0.0,0.0,0.0,0.0,0.0,0.0,0.0,-3.3339,-3.3705,-3.4587,-3.3812,-3.3518,-3.3731,-3.2932,-3.2603,-3.2707,-3.1668,0.0,0.0,0.0,0.0,-3.0447,-3.0347,-3.0359,-3.0476,-3.0455,-3.0464,-3.0443,-3.0456,-2.9522,-2.8252,0.0,0.0,0.0,0.0,0.0,0.0,0.0,0.0,0.0,0.0,0.0,0.0,0.0,0.0,0.0,0.0,0.0,0.0,0.0,0.0,0.0,0.0,-3.7536,-3.6745,-3.6626,-3.7466,-3.7905,-3.7905,-3.9377,-4.0045,-3.9943,-3.9943,-3.9191,-3.7848,-3.6858,-3.5771,-3.4659,-3.3975,-3.2956,-3.1672,-3.0586,0.0,0.0,0.0,0.0,0.0,0.0,0.0,0.0,-2.6288,-2.6063,-2.6048,-2.5944,0.0,0.0,0.0,0.0,0.0,-2.6587,-2.6761,-2.6896,-2.7465,-2.76,-2.76,-2.76,-2.7525,0.0,0.0,0.0,0.0,0.0,0.0,0.0,0.0,0.0,0.0,0.0,0.0,0.0,0.0,0.0,0.0,0.0,0.0,0.0,0.0,0.0,0.0,0.0,0.0,0.0,0.0,0.0,-3.153,-3.1813,-3.1992,-3.2113,-3.2164,-3.1615,-3.1123,-3.0672,-3.0739,-3.0532,0.0,0.0,-2.9342,-2.9313,-2.8721,-2.851,-2.858,-2.9116,-2.9362,-2.9408,-3.0007,-2.9297,-2.7889,0.0,0.0,0.0,0.0,0.0,0.0,0.0,0.0,0.0,0.0,0.0,0.0,0.0,0.0,0.0,0.0,0.0,0.0,0.0,0.0,0.0,-3.9795,-3.8248,-3.7381,-3.7381,-3.8108,-3.8481,-3.8481,-3.9571,-4.0096,-4.0096,-4.0096,-3.9292,-3.7865,-3.7181,-3.6065,-3.4643,-3.3806,-3.272,-3.1491,0.0,0.0,0.0,0.0,0.0,0.0,0.0,0.0,0.0,0.0,-2.5615,-2.5591,-2.5506,0.0,0.0,0.0,0.0,0.0,-2.5725,-2.6026,-2.6342,-2.6587,-2.7054,-2.7488,-2.7488,-2.7104,0.0,0.0,0.0,0.0,0.0,0.0,0.0,0.0,0.0,0.0,0.0,0.0,0.0,0.0,0.0,0.0,0.0,0.0,0.0,0.0,0.0,0.0,0.0,0.0,0.0,0.0,0.0,0.0,-3.034,-3.0148,-3.037,-3.0933,-3.0345,-2.9974,-2.9762,-2.9596,-2.9192,0.0,0.0,-2.8207,-2.8001,-2.7695,-2.7611,-2.7745,-2.7946,-2.8033,-2.7996,-2.7838,-2.7405,-2.6784,0.0,0.0,0.0,0.0,0.0,0.0,0.0,0.0,0.0,0.0,0.0,0.0,0.0,0.0,0.0,0.0,0.0,0.0,0.0,0.0,-3.9334,-3.9793,-3.857,-3.799,-3.8159,-3.8531,-3.8819,-3.8988,-3.974,-4.0096,-4.0096,-4.0096,-3.9292,-3.7882,-3.7484,-3.6307,-3.4578,-3.346,-3.2337,-3.1206,0.0,0.0,0.0,0.0,0.0,0.0,0.0,0.0,0.0,0.0,0.0,0.0,0.0,0.0,0.0,-2.4779,-2.4708,-2.469,-2.4717,-2.5063,-2.545,-2.5655,-2.6477,-2.7262,-2.7358,-2.685,0.0,0.0,0.0,0.0,0.0,0.0,0.0,0.0,0.0,0.0,0.0,0.0,0.0,0.0,0.0,0.0,0.0,0.0,0.0,0.0,0.0,0.0,0.0,0.0,0.0,0.0,0.0,0.0,-2.9142,-2.8457,-2.8688,-2.9829,-2.9169,-2.8925,-2.902,-2.8436,-2.7976,-2.758,-2.7261,-2.6958,-2.6666,-2.6509,-2.6535,-2.6681,-2.6688,-2.6776,-2.6834,-2.5951,-2.5691,-2.5727,0.0,0.0,0.0,0.0,0.0,0.0,0.0,0.0,0.0,0.0,0.0,0.0,0.0,0.0,0.0,0.0,0.0,0.0,0.0,0.0,-3.8557,-3.8344,-3.8058,-3.8227,-3.8903,-3.8311,-3.8311,-3.8988,-3.974,-4.0096,-4.0096,-4.0096,-3.9292,-3.7882,-3.7484,-3.6257,-3.4423,-3.2974,-3.1632,-3.0381,-2.931,0.0,0.0,0.0,0.0,0.0,0.0,0.0,0.0,0.0,0.0,0.0,0.0,0.0,-2.3408,-2.3147,-2.2975,-2.2991,-2.3473,-2.365,-2.3966,-2.5145,-2.6087,-2.6854,-2.7299,-2.7345,0.0,-2.7869,0.0,0.0,0.0,0.0,0.0,0.0,0.0,0.0,0.0,0.0,0.0,0.0,0.0,0.0,0.0,0.0,0.0,0.0,0.0,0.0,0.0,0.0,0.0,0.0,0.0,0.0,-2.775,-2.7091,-2.7405,-2.8719,-2.8157,-2.7916,-2.7911,-2.7487,-2.727,-2.7171,-2.598,-2.5444,-2.5373,-2.4765,-2.4503,-2.4585,-2.5188,-2.5858,-2.6368,-2.5598,-2.5336,-2.5265,0.0,0.0,0.0,0.0,0.0,0.0,0.0,0.0,0.0,0.0,0.0,0.0,0.0,0.0,0.0,0.0,0.0,0.0,0.0,0.0,-3.7529,-3.8179,-3.7572,-3.755,-3.8311,-3.8481,-3.8717,-3.8988,-3.974,-4.0096,-4.0096,-4.0096,-3.9268,-3.7745,-3.7361,-3.6083,-3.4152,-3.2615,-3.1322,-3.0179,-2.9109,-2.8225,0.0,0.0,0.0,0.0,0.0,0.0,0.0,0.0,-2.2715,-2.2328,0.0,0.0,-2.1815,-2.1899,-2.1536,-2.1219,-2.1551,-2.194,-2.2488,-2.3527,-2.431,0.0,0.0,-2.6931,-2.696,-2.7163,-2.7163,0.0,0.0,0.0,0.0,0.0,0.0,0.0,0.0,0.0,0.0,0.0,0.0,0.0,0.0,0.0,0.0,0.0,0.0,0.0,0.0,0.0,0.0,0.0,0.0,0.0,0.0,-2.6093,-2.6228,-2.6737,-2.6531,-2.6435,-2.642,-2.626,-2.5975,-2.5553,-2.507,-2.4667,-2.4344,-2.4079,-2.403,-2.4124,-2.4304,-2.4483,-2.4622,-2.4342,-2.4295,-2.4329,0.0,0.0,0.0,0.0,0.0,0.0,0.0,0.0,0.0,0.0,0.0,0.0,0.0,0.0,0.0,0.0,0.0,0.0,0.0,-3.588,-3.6167,-3.7148,-3.6475,-3.6417,-3.7178,-3.7922,-3.8413,-3.865,-3.9157,-3.9512,-3.9757,-3.9471,-3.8754,-3.7655,-3.6945,-3.5571,-3.3687,-3.2079,-3.0815,-2.9796,-2.8714,-2.7874,0.0,0.0,0.0,0.0,0.0,0.0,0.0,0.0,-2.1932,0.0,0.0,0.0,0.0,0.0,-2.039,-1.9971,-2.0209,-2.061,-2.1245,-2.2392,0.0,0.0,-2.5893,-2.6383,-2.6515,-2.6885,-2.6786,0.0,0.0,0.0,0.0,0.0,0.0,0.0,0.0,0.0,0.0,0.0,0.0,0.0,0.0,0.0,0.0,0.0,0.0,0.0,0.0,0.0,0.0,0.0,0.0,0.0,0.0,-2.5277,-2.5196,-2.4971,-2.4971,-2.5196,-2.56,-2.5367,-2.5023,-2.459,-2.438,-2.4088,-2.3739,-2.3739,-2.3797,-2.3861,-2.376,-2.3674,-2.3595,-2.3595,-2.3674,-2.3739,0.0,0.0,0.0,0.0,0.0,0.0,0.0,0.0,0.0,0.0,0.0,0.0,0.0,0.0,0.0,0.0,0.0,0.0,0.0,-3.4179,-3.451,-3.4977,-3.4678,-3.4844,-3.5566,-3.6366,-3.7144,-3.7905,-3.7905,-3.8278,-3.8971,-3.8106,-3.7696,-3.7621,-3.6224,-3.4644,-3.2983,-3.1294,-3.0042,-2.9093,-2.8032,-2.7195,-2.6587,0.0,0.0,0.0,0.0,0.0,0.0,0.0,-2.1445,-2.1309,0.0,0.0,0.0,0.0,-1.9485,-1.9345,-1.9696,-1.9795,-2.0214,-2.1943,0.0,0.0,-2.5115,-2.5754,-2.6301,-2.7301,0.0,0.0,0.0,0.0,0.0,0.0,0.0,0.0,0.0,0.0,0.0,0.0,0.0,0.0,0.0,0.0,0.0,0.0,0.0,0.0,0.0,0.0,0.0,0.0,0.0,0.0,0.0,-2.459,-2.4246,-2.358,-2.358,-2.4298,-2.557,-2.4889,-2.459,-2.456,-2.3894,-2.3595,-2.3595,-2.3595,-2.3595,-2.3595,-2.3595,-2.3595,-2.3595,-2.3595,-2.3595,-2.3595,0.0,0.0,0.0,0.0,0.0,0.0,0.0,0.0,0.0,0.0,0.0,0.0,0.0,0.0,0.0,0.0,0.0,0.0,0.0,-3.3687,-3.3748,-3.4209,-3.4389,-3.459,-3.481,-3.5571,-3.6603,-3.7905,-3.7905,-3.7959,-3.8089,-3.7821,-3.7273,-3.647,-3.5374,-3.408,-3.2517,-3.0174,-2.9144,-2.888,-2.6964,-2.6363,-2.6497,0.0,0.0,0.0,0.0,0.0,0.0,0.0,0.0,0.0,0.0,0.0,0.0,-1.868,-1.8204,-1.7761,-1.8097,-1.849,0.0,-2.0807,0.0,0.0,0.0,-2.5792,0.0,0.0,0.0,0.0,0.0,0.0,0.0,0.0,0.0,0.0,0.0,0.0,0.0,0.0,0.0,0.0,0.0,0.0,0.0,0.0,0.0,0.0,0.0,0.0,0.0,0.0,0.0,0.0,0.0,0.0,-2.2625,-2.2064,-2.2482,-2.322,-2.4193,-2.3999,-2.3909,-2.3894,-2.3684,-2.3595,-2.3595,-2.3595,-2.3595,-2.3595,-2.3595,-2.3595,-2.3595,-2.3595,-2.3595,-2.3595,0.0,0.0,0.0,0.0,0.0,0.0,0.0,0.0,0.0,0.0,0.0,0.0,0.0,0.0,0.0,0.0,0.0,0.0,0.0,0.0,-3.2557,-3.3014,-3.3737,-3.438,-3.4928,-3.5363,-3.6056,-3.6992,-3.6992,-3.7074,-3.7242,-3.6844,-3.6417,-3.5934,-3.4554,-3.308,-3.1524,-2.942,-2.824,-2.7676,-2.6189,-2.5689,-2.5689,0.0,0.0,0.0,0.0,0.0,0.0,0.0,0.0,0.0,-1.8965,0.0,0.0,-1.7731,-1.7324,-1.7012,-1.7599,-1.8208,0.0,-2.063,-2.1995,-2.3414,-2.5084,0.0,0.0,0.0,0.0,0.0,0.0,0.0,0.0,0.0,0.0,0.0,0.0,0.0,0.0,0.0,0.0,0.0,0.0,0.0,0.0,0.0,0.0,0.0,0.0,0.0,0.0,0.0,0.0,0.0,0.0,0.0,0.0,-2.1176,-2.1535,-2.1999,-2.2558,-2.3198,-2.348,-2.3465,-2.3197,-2.3093,-2.3063,-2.2831,-2.2727,-2.2727,-2.2727,-2.2727,-2.2757,-2.3003,-2.3114,-2.3202,0.0,0.0,0.0,0.0,0.0,0.0,0.0,0.0,0.0,0.0,0.0,0.0,0.0,0.0,0.0,0.0,0.0,0.0,0.0,0.0,-3.1237,-3.1591,-3.2881,-3.4224,-3.5566,-3.56,-3.5566,-3.5498,-3.5498,-3.5841,-3.6451,-3.5455,-3.5267,-3.567,-3.3616,-3.1791,-3.0164,-2.8646,-2.7202,-2.5864,-2.5408,-2.4918,-2.435,-2.3684,0.0,0.0,0.0,0.0,0.0,0.0,0.0,0.0,-1.8167,-1.776,-1.7393,-1.7002,-1.6782,-1.6881,-1.7863,0.0,0.0,-2.1004,-2.2711,0.0,0.0,0.0,0.0,0.0,0.0,0.0,0.0,0.0,0.0,0.0,0.0,0.0,0.0,0.0,0.0,0.0,0.0,0.0,0.0,0.0,0.0,0.0,0.0,0.0,0.0,0.0,0.0,0.0,0.0,0.0,0.0,0.0,0.0,0.0,-2.0625,-2.0681,-2.08,-2.2373,-2.3076,-2.3032,-2.2436,-2.215,-2.2106,-2.1574,-2.1344,-2.1344,-2.1344,-2.1344,-2.1418,-2.1966,-2.225,-2.2443,0.0,0.0,0.0,0.0,0.0,0.0,0.0,0.0,0.0,0.0,0.0,0.0,0.0,0.0,0.0,0.0,0.0,0.0,0.0,0.0,-3.1044,-3.0923,-3.2534,-3.4121,-3.5566,-3.56,-3.5312,-3.4742,-3.4742,-3.502,-3.5555,-3.4674,-3.4114,-3.3801,-3.1932,-3.0447,-2.9122,-2.6311,-2.5144,-2.506,-2.3251,-2.2757,-2.3047,-2.2353,-2.1695,0.0,0.0,0.0,0.0,0.0,0.0,0.0,-1.8048,-1.7578,-1.7199,-1.6846,-1.6641,-1.6694,-1.7363,-1.7953,0.0,0.0,-2.2464,-2.4205,0.0,0.0,0.0,0.0,0.0,0.0,0.0,0.0,0.0,0.0,0.0,0.0,0.0,0.0,0.0,0.0,0.0,0.0,0.0,0.0,0.0,0.0,0.0,0.0,0.0,0.0,0.0,0.0,0.0,0.0,-1.923,-1.923,-1.9079,0.0,-1.9251,-1.9461,-1.9516,-2.0838,-2.143,-2.1394,-2.1209,-2.113,-2.1116,-2.0986,-2.0928,-2.0928,-2.0928,-2.0928,-2.0963,-2.1141,-2.1227,-2.1283,0.0,0.0,0.0,0.0,0.0,0.0,0.0,0.0,0.0,0.0,0.0,0.0,0.0,0.0,0.0,0.0,0.0,0.0,0.0,0.0,0.0,0.0,-3.2253,-3.3406,-3.4518,-3.4535,-3.437,-3.3964,-3.3567,-3.3619,-3.4152,-3.352,-3.304,-3.2608,-3.0747,-2.9227,-2.7866,-2.5286,-2.3947,-2.3451,-2.2199,-2.1904,-2.2164,-2.1485,-2.1006,-2.0658,-2.0348,0.0,0.0,0.0,0.0,0.0,0.0,0.0,-1.7115,-1.6727,-1.6543,-1.6626,-1.7247,0.0,0.0,-2.1305,0.0,0.0,0.0,0.0,0.0,0.0,0.0,0.0,0.0,0.0,0.0,0.0,0.0,0.0,0.0,0.0,0.0,0.0,0.0,0.0,0.0,0.0,0.0,0.0,0.0,0.0,0.0,0.0,0.0,0.0,0.0,0.0,-1.8038,-1.8038,-1.7919,-1.7727,-1.803,-1.8227,-1.835,-1.9831,-2.0521,-2.0507,-2.0147,-1.9999,-1.997,-1.9667,-1.9555,-1.9555,-1.9555,-1.9555,-1.9583,-1.9913,-2.013,-2.029,0.0,0.0,0.0,0.0,0.0,0.0,0.0,0.0,0.0,0.0,0.0,0.0,0.0,0.0,0.0,0.0,0.0,0.0,0.0,0.0,0.0,0.0,-3.208,-3.2598,-3.3203,-3.322,0.0,-3.2831,-3.218,-3.206,-3.2463,-3.2389,-3.219,-3.1828,-2.9964,-2.8232,-2.6606,-2.4657,-2.3041,-2.1773,-2.1473,-2.135,-2.1291,-2.0737,-2.0543,-2.0434,-1.9884,-1.9708,-1.9654,-1.925,0.0,0.0,0.0,0.0,-1.7115,-1.665,-1.65,-1.6626,-1.7247,0.0,-1.9685,-2.1954,-2.3062,0.0,0.0,0.0,0.0,0.0,0.0,0.0,0.0,0.0,0.0,0.0,0.0,0.0,0.0,0.0,0.0,0.0,0.0,0.0,0.0,0.0,0.0,0.0,0.0,0.0,0.0,0.0,0.0,0.0,0.0,-1.6981,-1.7115,-1.7115,-1.7136,-1.7157,-1.7157,-1.722,-1.735,-1.8851,-1.9573,-1.961,-1.9009,-1.8769,-1.8728,-1.8221,-1.8043,-1.8043,-1.8043,-1.8043,-1.8084,-1.8611,-1.8962,-1.921,0.0,0.0,0.0,0.0,0.0,0.0,0.0,0.0,0.0,0.0,0.0,0.0,0.0,0.0,0.0,0.0,0.0,0.0,-2.764,0.0,0.0,-3.1545,-3.2156,-3.2476,-3.2446,-3.2446,-3.1816,-3.0548,-3.0758,-3.0792,-3.0655,-3.1671,-3.1892,-3.139,-2.9643,-2.7633,-2.5478,-2.3234,-2.1808,-2.0982,-2.0254,-1.9977,-1.9962,-1.9872,-1.9842,-1.9828,-1.9738,-1.9708,-1.9654,-1.925,-1.8969,0.0,0.0,0.0,0.0,-1.665,-1.65,-1.6626,0.0,0.0,-1.9786,0.0,-2.1041,0.0,0.0,0.0,0.0,0.0,0.0,0.0,0.0,0.0,0.0,0.0,0.0,0.0,0.0,0.0,0.0,0.0,0.0,0.0,0.0,0.0,0.0,0.0,0.0,0.0,0.0,0.0,-1.6565,-1.6565,-1.6565,0.0,-1.6761,-1.6761,-1.6825,-1.6939,-1.6939,-1.6939,-1.696,-1.7221,-1.7497,-1.7756,-1.7552,-1.7449,-1.7449,-1.737,-1.7323,-1.7323,-1.7323,-1.7323,-1.7357,-1.7547,-1.7657,-1.7691,0.0,0.0,0.0,0.0,0.0,0.0,0.0,0.0,0.0,0.0,0.0,0.0,0.0,0.0,0.0,-2.8393,-2.7625,-2.7356,-2.7965,-2.8811,-2.9618,-3.0382,-3.0933,-3.1169,-3.1055,-3.1072,-3.0548,-2.9482,-2.9881,-3.0129,-3.0205,-3.1137,-3.1254,-3.0672,0.0,0.0,0.0,-2.3376,-2.189,-2.0779,-2.0014,-1.9708,-1.9708,-1.9708,-1.9708,-1.9708,0.0,0.0,0.0,0.0,-1.8969,-1.8649,-1.7767,0.0,0.0,0.0,-1.65,-1.6626,-1.7247,-1.8129,-1.8982,0.0,-1.9962,0.0,0.0,0.0,0.0,0.0,0.0,0.0,0.0,0.0,0.0,0.0,0.0,0.0,0.0,0.0,0.0,0.0,0.0,0.0,0.0,0.0,0.0,0.0,0.0,0.0,0.0,-1.65,-1.65,-1.65,-1.65,0.0,-1.6599,-1.6599,-1.662,-1.6684,-1.6684,-1.6684,-1.6684,-1.6684,-1.6842,-1.7115,-1.7065,-1.7044,-1.7044,-1.7044,-1.7044,-1.7044,-1.7044,-1.7044,-1.7044,-1.7094,-1.7136,-1.7178,0.0,0.0,0.0,0.0,0.0,0.0,0.0,0.0,0.0,0.0,0.0,0.0,0.0,0.0,0.0,0.0,-2.7603,-2.7337,-2.8319,-2.8687,-2.8984,-2.9213,-2.969,-2.9815,-2.9514,-2.933,-2.8873,-2.8147,-2.8524,-2.8907,-2.9282,-3.0139,-3.028,0.0,-2.904,-2.7426,0.0,0.0,0.0,-2.0708,-1.9995,-1.9708,-1.9708,-1.9708,0.0,-1.9708,-1.9708,0.0,0.0,0.0,0.0,0.0,0.0,0.0,0.0,0.0,0.0,0.0,0.0,0.0,-1.8091,-1.8481,-1.9007,0.0,0.0,0.0,0.0,0.0,0.0,0.0,0.0,0.0,0.0,0.0,0.0,0.0,0.0,0.0,0.0,0.0,0.0,0.0,0.0,0.0,0.0,0.0,0.0,0.0,-1.65,-1.65,-1.65,-1.65,-1.65,-1.65,-1.65,-1.65,-1.65,-1.65,-1.65,-1.65,-1.65,-1.65,-1.6607,-1.6791,-1.6791,-1.6791,-1.6791,-1.6791,-1.6791,-1.6791,-1.6791,-1.6791,-1.6791,-1.6791,-1.6833,-1.6863,0.0,0.0,0.0,0.0,0.0,0.0,0.0,0.0,0.0,0.0,0.0,0.0,-2.9005,-2.8246,-2.778,-2.7871,-2.7787,-2.7933,-2.8373,-2.8834,-2.8895,-2.8471,-2.8973,0.0,-2.7942,-2.7232,-2.6522,0.0,-2.6129,-2.6519,-2.6987,-2.838,-2.8904,-2.8698,-2.8874,-2.7434,-2.4745,0.0,0.0,0.0,0.0,0.0,0.0,0.0,0.0,0.0,0.0,0.0,0.0,0.0,0.0,0.0,0.0,0.0,0.0,0.0,0.0,0.0,0.0,-1.6986,0.0,-1.7486,0.0,0.0,0.0,0.0,0.0,0.0,0.0,0.0,0.0,0.0,0.0,0.0,0.0,0.0,0.0,0.0,0.0,0.0,0.0,0.0,0.0,0.0,0.0,0.0,0.0,0.0,-1.65,-1.65,-1.65,-1.65,-1.65,-1.65,-1.65,-1.65,-1.65,-1.65,-1.65,-1.65,-1.65,-1.65,-1.6522,-1.6522,-1.6522,-1.6522,-1.6522,-1.6522,-1.6522,-1.6522,-1.6522,-1.6522,-1.6522,-1.6522,-1.6522,-1.6522,0.0,0.0,0.0,0.0,0.0,0.0,0.0,0.0,0.0,0.0,0.0,0.0,0.0,-2.8282,-2.8007,-2.8539,-2.8443,-2.8385,-2.8409,-2.8284,-2.8259,-2.8385,-2.8425,-2.8235,-2.7807,-2.708,-2.6336,0.0,0.0,-2.5646,-2.6178,-2.7047,-2.7309,-2.7165,-2.8,-2.7273,-2.5334,-2.3607,0.0,0.0,0.0,0.0,0.0,0.0,0.0,0.0,0.0,0.0,0.0,0.0,0.0,0.0,0.0,0.0,0.0,0.0,0.0,0.0,0.0,0.0,0.0,-1.6823,0.0,0.0,0.0,0.0,0.0,0.0,0.0,0.0,0.0,0.0,0.0,0.0,0.0,0.0,0.0,0.0,0.0,0.0,0.0,0.0,0.0,0.0,0.0,0.0,0.0,0.0,-1.6175,-1.6349,-1.6436,-1.6436,-1.6479,-1.65,-1.65,-1.6457,-1.6436,-1.6436,-1.6362,-1.6318,-1.6318,-1.6392,-1.6436,-1.6436,-1.6479,-1.65,-1.65,-1.65,-1.65,-1.65,-1.65,-1.65,-1.65,-1.65,-1.65,-1.65,0.0,0.0,0.0,0.0,0.0,0.0,0.0,0.0,0.0,0.0,0.0,0.0,0.0,0.0,-2.9108,-2.9349,-2.9223,-2.8878,-2.8367,-2.7947,-2.7779,-2.7972,-2.7742,-2.7572,-2.7418,0.0,0.0,0.0,0.0,0.0,0.0,-2.5293,-2.5453,-2.5247,-2.5918,-2.5787,0.0,0.0,0.0,-2.1276,0.0,0.0,-1.9708,0.0,0.0,0.0,0.0,0.0,0.0,0.0,0.0,0.0,0.0,0.0,0.0,0.0,0.0,0.0,-1.6522,0.0,0.0,0.0,0.0,0.0,0.0,0.0,0.0,0.0,0.0,0.0,0.0,0.0,0.0,0.0,0.0,0.0,0.0,0.0,0.0,0.0,0.0,0.0,0.0,0.0,0.0,0.0,0.0,0.0,-1.5935,-1.6132,-1.6306,-1.6392,-1.6392,-1.6414,-1.6479,-1.6328,-1.6241,-1.621,-1.6044,-1.6013,-1.6013,-1.6088,-1.6154,-1.621,-1.6241,-1.6349,-1.65,-1.65,-1.65,-1.65,-1.65,-1.65,-1.65,-1.65,-1.65,-1.6479,0.0,0.0,0.0,0.0,0.0,0.0,0.0,0.0,0.0,0.0,0.0,0.0,0.0,0.0,0.0,-3.021,-2.9995,-2.9432,-2.8304,-2.7893,-2.7504,-2.7119,-2.6975,-2.6842,-2.6691,0.0,0.0,0.0,0.0,0.0,0.0,0.0,-2.3378,-2.3061,-2.2802,-2.2987,-2.3475,0.0,-2.1874,-2.0643,0.0,-1.9708,-1.9708,0.0,0.0,0.0,-1.9708,-1.9708,0.0,0.0,0.0,0.0,0.0,0.0,0.0,0.0,0.0,0.0,0.0,0.0,0.0,0.0,0.0,0.0,0.0,0.0,0.0,0.0,0.0,0.0,0.0,0.0,0.0,0.0,0.0,0.0,0.0,0.0,0.0,0.0,0.0,0.0,0.0,0.0,0.0,0.0,0.0,-1.5635,-1.577,-1.5913,-1.611,-1.6371,-1.6253,-1.6253,-1.6371,-1.6098,-1.5913,-1.577,-1.5635,-1.5568,-1.5568,-1.5591,-1.5669,-1.5792,-1.5792,-1.6044,-1.6466,-1.6479,-1.6479,-1.6479,-1.6479,-1.6479,-1.6479,-1.6479,-1.6436,-1.6371,0.0,0.0,0.0,0.0,0.0,0.0,0.0,0.0,0.0,0.0,0.0,0.0,-3.1378,-3.1397,-3.128,-3.0985,-3.0215,-2.9543,-2.9036,-2.8062,-2.7371,-2.7101,-2.6891,-2.6742,-2.6691,0.0,0.0,0.0,0.0,0.0,0.0,0.0,0.0,0.0,-2.2089,-2.1799,-2.15,-2.1316,0.0,0.0,-1.9959,-1.9708,0.0,0.0,0.0,0.0,0.0,-1.9708,-1.969,0.0,-1.9446,-1.912,0.0,0.0,0.0,0.0,0.0,0.0,-1.6543,0.0,0.0,0.0,0.0,0.0,0.0,0.0,0.0,0.0,0.0,0.0,0.0,0.0,0.0,0.0,0.0,0.0,0.0,0.0,0.0,0.0,0.0,0.0,0.0,0.0,0.0,0.0,0.0,-1.4914,-1.4994,-1.5401,-1.5768,-1.6098,-1.5991,-1.5925,-1.5969,-1.5657,-1.5434,-1.5289,-1.5062,-1.496,-1.496,-1.5164,-1.5266,-1.5311,-1.5491,-1.5669,-1.5802,-1.5935,-1.5979,-1.5979,-1.5979,-1.5979,-1.5979,-1.5979,-1.5991,-1.5969,0.0,0.0,0.0,0.0,0.0,0.0,0.0,0.0,0.0,0.0,0.0,0.0,-3.2757,-3.2734,-3.2388,-3.1624,-3.0617,-2.9754,-2.908,-2.7971,-2.7231,-2.7023,-2.6808,-2.6691,-2.6691,0.0,0.0,0.0,0.0,0.0,0.0,0.0,0.0,0.0,0.0,0.0,0.0,0.0,0.0,0.0,-1.9872,0.0,0.0,-1.9708,-1.9708,0.0,0.0,0.0,-1.969,-1.965,-1.9505,0.0,0.0,0.0,0.0,0.0,0.0,0.0,0.0,0.0,0.0,0.0,0.0,0.0,0.0,-1.6333,0.0,0.0,0.0,0.0,0.0,0.0,0.0,0.0,0.0,0.0,0.0,0.0,0.0,0.0,0.0,0.0,0.0,0.0,0.0,0.0,-1.4221,-1.4441,-1.4639,-1.504,-1.5367,-1.5613,-1.5558,-1.5525,-1.5525,-1.5176,-1.4915,-1.4709,-1.4444,-1.4328,-1.4328,-1.4478,-1.4593,-1.4663,-1.4812,-1.4858,-1.488,-1.4994,-1.53,-1.5669,-1.5669,-1.5669,-1.5669,-1.5669,-1.5614,-1.5525,0.0,0.0,0.0,0.0,0.0,0.0,0.0,0.0,0.0,0.0,0.0,0.0,0.0,0.0,0.0,0.0,-3.1121,-3.0009,-2.8891,-2.7806,0.0,0.0,0.0,0.0,0.0,0.0,0.0,0.0,0.0,0.0,0.0,0.0,0.0,0.0,0.0,0.0,0.0,0.0,0.0,-1.9708,-1.9708,-1.9708,0.0,0.0,-1.9708,0.0,-1.9708,-1.9708,-1.9708,-1.969,-1.9578,0.0,0.0,0.0,0.0,0.0,-1.7136,0.0,0.0,0.0,0.0,0.0,0.0,0.0,-1.65,-1.6095,-1.5673,0.0,0.0,0.0,0.0,0.0,0.0,0.0,0.0,0.0,0.0,0.0,0.0,0.0,0.0,0.0,0.0,0.0,0.0,-1.3702,-1.3844,-1.4104,-1.4488,-1.4697,-1.4869,-1.5017,-1.5017,-1.5017,-1.4994,-1.4662,-1.4384,-1.4106,-1.3847,-1.3739,-1.3739,-1.375,-1.3823,-1.392,-1.3954,-1.3954,-1.3954,-1.3954,-1.4513,-1.5322,-1.5322,-1.5322,-1.5322,-1.5322,-1.5187,-1.4994,0.0,0.0,0.0,0.0,0.0,0.0,0.0,0.0,0.0,0.0,0.0,0.0,0.0,0.0,0.0,0.0,0.0,-3.0119,-2.9631,-2.8053,0.0,0.0,0.0,0.0,0.0,0.0,0.0,0.0,0.0,0.0,0.0,0.0,0.0,0.0,0.0,0.0,0.0,0.0,0.0,-1.9708,-1.9708,0.0,-1.9708,-1.9708,-1.9708,-1.9708,-1.9708,-1.9708,-1.969,0.0,-1.9593,-1.9483,0.0,0.0,0.0,0.0,0.0,0.0,0.0,0.0,0.0,0.0,0.0,0.0,-1.65,-1.6095,-1.5693,0.0,0.0,0.0,0.0,0.0,0.0,0.0,0.0,0.0,0.0,0.0,0.0,0.0,0.0,0.0,0.0,0.0,-1.322,-1.3244,-1.3416,-1.3644,-1.3939,-1.4104,-1.4291,-1.4535,-1.4535,-1.4489,-1.4385,-1.4093,-1.381,-1.3552,-1.3386,-1.3314,-1.3314,-1.342,-1.3491,-1.3529,-1.3634,-1.3681,-1.3681,-1.3681,-1.3907,-1.4294,-1.4294,-1.4294,-1.4294,-1.4294,-1.4258,-1.4212,0.0,0.0,0.0,0.0,0.0,0.0,0.0,0.0,0.0,0.0,0.0,0.0,0.0,0.0,0.0,0.0,0.0,0.0,0.0,0.0,0.0,0.0,0.0,0.0,0.0,0.0,0.0,0.0,0.0,0.0,0.0,0.0,0.0,0.0,0.0,0.0,0.0,0.0,-1.9708,-1.9708,-1.9708,0.0,-1.9708,-1.9708,-1.9708,-1.9708,-1.9708,-1.9708,-1.969,-1.9669,-1.965,0.0,0.0,-1.8912,-1.8519,0.0,-1.7434,-1.7044,0.0,0.0,0.0,-1.65,0.0,0.0,0.0,-1.6095,-1.5693,0.0,0.0,0.0,0.0,0.0,0.0,0.0,0.0,0.0,0.0,0.0,0.0,0.0,0.0,0.0,0.0,0.0,-1.3109,-1.3109,-1.3214,-1.3362,-1.3491,-1.3621,-1.3763,-1.3894,-1.3975,-1.3941,-1.38,-1.361,-1.343,-1.3248,-1.3104,-1.3045,-1.3045,-1.3118,-1.3152,-1.3152,-1.3224,-1.3248,-1.3248,-1.3248,-1.3344,-1.3478,-1.3705,-1.38,-1.38,-1.38,-1.3766,-1.3695,-3.5999,0.0,0.0,0.0,0.0,0.0,0.0,0.0,0.0,0.0,0.0,0.0,0.0,0.0,0.0,0.0,0.0,0.0,0.0,0.0,0.0,0.0,0.0,-2.6285,0.0,0.0,0.0,0.0,0.0,0.0,0.0,0.0,0.0,0.0,0.0,0.0,0.0,0.0,0.0,-1.9708,0.0,-1.9708,-1.9708,-1.9708,-1.9708,-1.9708,-1.9708,-1.9708,-1.9708,-1.9708,0.0,-1.9654,-1.9413,-1.9082,0.0,0.0,0.0,0.0,0.0,0.0,0.0,0.0,0.0,-1.65,0.0,0.0,0.0,-1.5693,0.0,0.0,0.0,0.0,0.0,0.0,0.0,0.0,0.0,0.0,0.0,0.0,0.0,0.0,0.0,0.0,-1.3061,-1.3061,-1.3104,-1.3132,-1.3132,-1.3276,-1.3334,-1.3334,-1.3467,-1.3467,-1.3334,-1.3228,-1.3142,-1.3061,-1.2954,-1.2905,-1.2905,-1.2905,-1.2905,-1.2905,-1.2905,-1.2905,-1.2905,-1.2905,-1.2905,-1.2954,-1.332,-1.3478,-1.3478,-1.3478,-1.3406,-1.33,-3.5542,-3.6128,0.0,0.0,0.0,0.0,0.0,0.0,0.0,0.0,0.0,0.0,0.0,0.0,0.0,0.0,0.0,0.0,-3.1096,0.0,0.0,0.0,0.0,0.0,-2.466,0.0,0.0,0.0,0.0,0.0,0.0,0.0,0.0,0.0,-1.9708,0.0,0.0,0.0,-1.9708,0.0,-1.9708,-1.9708,0.0,-1.9708,-1.9708,-1.9708,-1.9708,-1.9708,-1.9708,0.0,-1.9708,-1.9672,0.0,-1.9157,0.0,0.0,0.0,0.0,0.0,0.0,0.0,0.0,-1.65,0.0,0.0,0.0,-1.5693,-1.5693,0.0,0.0,0.0,0.0,0.0,0.0,0.0,0.0,0.0,0.0,0.0,0.0,0.0,0.0,0.0,0.0,0.0,-1.2929,-1.292,-1.292,-1.292,-1.3051,-1.3123,-1.3123,-1.3214,-1.3214,-1.3123,-1.3123,-1.3051,-1.2929,-1.2905,-1.2905,-1.2905,-1.2905,-1.2905,-1.2905,-1.2905,-1.2905,-1.2905,-1.2905,-1.2905,-1.2905,-1.2954,-1.2968,-1.2968,-1.2968,-1.2978,-1.2968,-3.4195,-3.4211,0.0,0.0,0.0,0.0,0.0,0.0,0.0,0.0,0.0,0.0,0.0,0.0,0.0,0.0,0.0,-3.3332,0.0,0.0,0.0,0.0,0.0,0.0,0.0,0.0,0.0,0.0,-2.1813,0.0,0.0,0.0,0.0,0.0,-1.9708,0.0,-1.9708,0.0,0.0,0.0,0.0,0.0,0.0,-1.9708,-1.9708,-1.9708,-1.9708,-1.9708,-1.9708,0.0,-1.9672,0.0,0.0,0.0,0.0,0.0,0.0,0.0,0.0,0.0,0.0,0.0,0.0,0.0,0.0,0.0,-1.617,0.0,0.0,0.0,0.0,0.0,0.0,0.0,0.0,0.0,0.0,0.0,0.0,0.0,0.0,0.0,0.0,0.0,0.0,0.0,0.0,-1.2905,-1.2905,-1.2954,-1.2978,-1.2978,-1.3007,-1.3007,-1.2978,-1.2978,-1.2954,-1.2905,-1.2905,-1.2905,-1.2905,-1.2905,-1.2905,-1.2905,-1.2905,-1.2905,-1.2905,-1.2905,-1.2905,-1.2905,-1.2905,-1.2905,-1.2905,-1.2905,-1.2905,-1.2905,-3.2726,0.0,0.0,0.0,0.0,0.0,0.0,0.0,0.0,0.0,0.0,0.0,-3.7091,-3.7146,0.0,0.0,0.0,-3.4906,0.0,0.0,-3.0463,0.0,0.0,0.0,0.0,0.0,0.0,0.0,0.0,0.0,0.0,0.0,0.0,0.0,0.0,-1.9708,-1.9708,0.0,0.0,-1.9708,-1.9708,-1.9708,-1.9708,-1.9708,-1.9708,-1.9708,-1.9708,-1.9708,-1.9708,-1.9672,-1.9614,0.0,-1.9284,0.0,0.0,0.0,0.0,0.0,-1.6939,0.0,0.0,0.0,0.0,0.0,0.0,0.0,0.0,0.0,0.0,0.0,0.0,0.0,0.0,0.0,0.0,0.0,0.0,0.0,0.0,0.0,0.0,0.0,0.0,0.0,0.0,0.0,-1.2905,0.0,-1.2905,-1.2905,-1.2905,-1.2905,-1.2905,-1.2905,-1.2905,-1.2905,-1.2905,-1.2905,-1.2905,-1.2905,-1.2905,-1.2905,-1.2905,-1.2905,-1.2905,-1.2905,-1.2905,-1.2905,-1.2905,-1.2905,-1.2905,-1.2905,-1.2905,-1.2905,-1.2905,-1.2905,-3.1339,-3.1798,0.0,0.0,0.0,0.0,0.0,0.0,0.0,0.0,0.0,0.0,0.0,0.0,0.0,0.0,0.0,-3.5566,-3.5498,0.0,-3.1157,0.0,0.0,-2.8248,0.0,0.0,0.0,0.0,0.0,0.0,0.0,0.0,0.0,0.0,0.0,-1.9708,-1.9708,-1.9708,-1.9708,-1.9708,-1.9708,-1.9708,-1.9708,0.0,-1.9708,-1.9708,-1.9708,0.0,0.0,-1.9629,-1.952,0.0,0.0,0.0,0.0,0.0,0.0,0.0,0.0,0.0,0.0,0.0,0.0,0.0,0.0,0.0,-1.65,0.0,0.0,0.0,0.0,0.0,0.0,0.0,0.0,0.0,0.0,0.0,0.0,0.0,0.0,0.0,0.0,0.0,0.0,0.0,-1.2905,0.0,-1.2905,-1.2905,-1.2905,-1.2905,-1.2905,-1.2905,-1.2905,-1.2905,-1.2905,-1.2905,-1.2905,-1.2905,-1.2905,-1.2905,-1.2905,-1.2905,-1.2905,-1.2905,-1.2905,-1.2905,-1.2905,-1.2905,-1.2905,-1.2905,-1.2905,-1.2905,-1.2905,-1.2905,0.0,0.0,0.0,0.0,0.0,0.0,0.0,-3.3884,0.0,0.0,0.0,0.0,0.0,0.0,-4.0087,0.0,0.0,-3.7956,-3.6485,-3.4962,0.0,0.0,0.0,-2.9623,0.0,0.0,0.0,0.0,0.0,0.0,0.0,0.0,0.0,0.0,0.0,-1.9708,0.0,0.0,0.0,0.0,0.0,-1.9708,-1.9708,0.0,0.0,-1.9632,-1.9632,-1.9578,0.0,-1.9413,-1.928,-1.9074,-1.876,-1.8378,-1.7982,-1.7659,-1.7308,0.0,0.0,0.0,-1.65,-1.65,0.0,0.0,0.0,0.0,0.0,0.0,0.0,0.0,0.0,0.0,0.0,0.0,0.0,0.0,0.0,0.0,0.0,0.0,0.0,0.0,0.0,0.0,0.0,-1.2905,-1.2905,-1.2905,0.0,-1.2905,-1.2905,-1.2905,-1.2905,-1.2905,-1.2905,-1.2905,-1.2905,-1.2905,-1.2905,-1.2905,-1.2905,-1.2905,-1.2905,-1.2905,-1.2905,-1.2905,-1.2905,-1.2905,-1.2905,-1.2905,-1.2905,-1.2905,-1.2905,-1.2905,-1.2905,-1.2905,-2.9375,0.0,0.0,0.0,0.0,0.0,0.0,0.0,0.0,0.0,-3.8328,0.0,-4.0773,0.0,-4.1204,0.0,-4.0273,-3.9114,-3.7692,-3.6349,0.0,-3.2803,-3.1857,0.0,0.0,0.0,0.0,0.0,0.0,-2.2665,0.0,0.0,0.0,0.0,0.0,0.0,-1.9708,0.0,-1.9708,0.0,0.0,-1.9654,0.0,0.0,-1.9541,0.0,0.0,-1.9376,-1.9195,-1.9139,-1.8965,-1.8697,-1.8358,-1.7982,-1.7611,-1.735,-1.7057,-1.6803,-1.6718,-1.6599,0.0,0.0,-1.65,0.0,0.0,0.0,0.0,0.0,0.0,0.0,0.0,0.0,0.0,0.0,0.0,0.0,0.0,-1.5768,0.0,0.0,0.0,0.0,0.0,0.0,-1.2905,-1.2905,-1.2905,-1.2905,0.0,0.0,-1.2905,-1.2905,-1.2905,-1.2905,-1.2905,-1.2905,-1.2905,-1.2905,-1.2905,-1.2905,-1.2905,-1.2905,-1.2905,-1.2905,-1.2905,-1.2905,-1.2905,-1.2905,-1.2905,-1.2905,-1.2905,-1.2905,-1.2905,-1.2905,-1.2905,-1.2905,0.0,0.0,0.0,0.0,-3.1511,0.0,0.0,0.0,-3.6479,0.0,-3.9665,-4.0696,-4.2083,-4.1644,-4.1255,-4.1178,-3.9918,0.0,-3.8913,-3.6878,0.0,0.0,-3.3225,-3.155,-3.0551,0.0,0.0,0.0,0.0,0.0,0.0,0.0,0.0,0.0,-1.9708,0.0,-1.9708,-1.9708,-1.969,-1.9672,-1.9596,-1.9574,-1.9538,-1.9339,0.0,-1.9339,-1.9284,-1.9101,-1.886,-1.8784,-1.8553,-1.8206,-1.7868,-1.7591,-1.7321,-1.7065,-1.6846,-1.6697,-1.6697,-1.6599,-1.65,-1.65,0.0,0.0,0.0,0.0,-1.65,0.0,0.0,0.0,0.0,0.0,0.0,0.0,0.0,0.0,0.0,0.0,0.0,0.0,0.0,0.0,0.0,-1.3007,-1.2905,-1.2905,-1.2905,0.0,0.0,0.0,0.0,-1.2905,-1.2905,-1.2905,-1.2905,-1.2905,-1.2905,-1.2905,-1.2905,-1.2905,-1.2905,-1.2905,-1.2905,-1.2905,-1.2905,-1.2905,-1.2905,-1.2905,-1.2905,-1.2881,-1.2881,-1.2881,-1.2881,-1.2881,-1.2905,-1.2905,-3.0303,-3.1091,-3.1964,0.0,-3.2886,-3.3372,0.0,0.0,0.0,0.0,-3.9783,-4.1068,-4.1441,-4.1796,-4.1769,-4.1107,-4.0719,0.0,0.0,0.0,0.0,-3.4303,-3.2976,-3.1873,-3.098,-2.8592,0.0,-2.6504,0.0,0.0,-2.1812,0.0,0.0,0.0,0.0,0.0,-1.9708,-1.965,-1.9541,-1.9398,-1.9376,-1.9265,0.0,0.0,-1.8707,-1.8611,-1.8726,-1.8649,-1.8422,-1.8266,-1.8048,-1.7821,-1.7584,-1.7287,-1.6994,-1.6825,-1.6663,-1.6543,-1.6543,-1.6522,-1.65,-1.65,-1.65,-1.65,0.0,0.0,0.0,0.0,0.0,0.0,0.0,0.0,0.0,0.0,0.0,0.0,0.0,0.0,0.0,0.0,0.0,0.0,0.0,-1.3002,-1.2905,-1.2905,-1.2905,0.0,0.0,0.0,0.0,-1.2905,-1.2905,-1.2905,-1.2905,-1.2905,-1.2905,-1.2905,-1.2905,-1.2905,-1.2905,-1.2905,-1.2905,-1.2905,-1.2905,-1.2905,-1.2905,-1.2905,-1.2832,-1.2749,-1.2749,-1.2627,-1.2505,-1.2783,-1.2905,-1.2905,-3.0643,0.0,0.0,-3.3694,0.0,0.0,-3.4928,0.0,0.0,-3.8768,-4.024,0.0,-4.1644,-4.1709,-4.1377,-4.0522,-4.0022,0.0,0.0,0.0,0.0,-3.4045,-3.2791,-3.1517,-3.0215,-2.8015,0.0,-2.5726,0.0,0.0,-2.1512,0.0,0.0,0.0,0.0,-1.969,0.0,-1.9468,-1.9284,-1.9101,-1.9007,0.0,0.0,-1.8364,-1.8167,-1.8028,-1.7988,-1.7968,-1.7928,-1.7787,-1.7578,-1.7365,-1.7225,-1.7015,-1.6782,-1.6641,-1.6543,-1.65,-1.65,-1.65,-1.65,-1.65,-1.65,-1.65,-1.65,-1.6479,-1.6457,0.0,0.0,0.0,0.0,0.0,0.0,0.0,0.0,0.0,0.0,0.0,0.0,0.0,0.0,0.0,0.0,0.0,0.0,0.0,0.0,0.0,0.0,0.0,0.0,-1.2905,-1.2905,-1.2905,-1.2905,-1.2905,-1.2905,-1.2905,-1.2905,-1.2856,-1.2808,-1.2808,-1.2783,-1.2735,-1.2735,-1.2735,-1.2725,-1.2652,-1.2603,-1.2505,-1.2406,-1.2224,-1.2076,-1.2298,-1.2455,-1.2554,0.0,0.0,0.0,0.0,0.0,0.0,0.0,-3.7195,0.0,-3.9791,0.0,-4.1279,-4.1905,-4.1182,-4.0361,-3.9568,0.0,-3.7569,-3.6648,-3.5782,-3.4886,-3.393,-3.2361,-3.0704,-2.8951,-2.7292,0.0,0.0,0.0,0.0,0.0,0.0,0.0,0.0,0.0,0.0,0.0,-1.9157,-1.8936,0.0,-1.85,-1.8383,-1.8305,-1.7868,-1.7679,-1.7578,-1.7261,-1.7261,-1.7413,-1.7352,-1.7178,-1.6939,-1.6876,-1.6782,-1.6654,-1.6522,-1.65,-1.65,-1.65,-1.65,-1.65,-1.65,-1.65,-1.65,-1.65,-1.6457,-1.6392,-1.6371,-1.6154,0.0,0.0,0.0,0.0,0.0,0.0,0.0,0.0,0.0,0.0,0.0,0.0,0.0,0.0,0.0,0.0,0.0,0.0,0.0,0.0,0.0,0.0,0.0,-1.2881,0.0,-1.2881,0.0,-1.2832,-1.2832,-1.2808,-1.2725,-1.2627,-1.2603,-1.2529,-1.2431,-1.2406,-1.2406,-1.2382,-1.2283,-1.22,-1.215,-1.1828,-1.1619,-1.1519,-1.1494,-1.1619,-1.1843,0.0,0.0,0.0,0.0,0.0,-3.6992,-3.821,-3.8633,-3.8903,-3.9157,-3.9733,0.0,-4.0323,-3.9435,-3.8702,-3.8335,-3.738,0.0,0.0,0.0,0.0,-3.2263,-3.0776,-2.9528,-2.8527,-2.6919,-2.5347,0.0,0.0,0.0,0.0,0.0,0.0,0.0,0.0,0.0,-1.9088,-1.8817,0.0,-1.8127,-1.7988,-1.7787,-1.7578,-1.7372,-1.724,-1.7094,-1.6854,-1.6918,-1.7073,-1.7002,-1.6876,-1.674,-1.674,-1.6641,-1.6522,-1.65,-1.65,-1.65,-1.65,-1.65,-1.65,-1.65,-1.65,-1.65,-1.65,-1.6457,-1.6383,-1.6253,-1.6013,-1.5814,-1.5724,0.0,0.0,0.0,0.0,0.0,0.0,0.0,0.0,0.0,0.0,0.0,0.0,0.0,0.0,0.0,0.0,0.0,0.0,0.0,0.0,0.0,0.0,0.0,0.0,0.0,0.0,-1.2406,-1.2298,-1.2224,-1.22,-1.2101,-1.2026,-1.2002,-1.1902,-1.1852,-1.1852,-1.1794,-1.1669,-1.1427,-1.0888,-1.0651,-1.06,-1.0379,-1.032,-1.0507,0.0,0.0,0.0,0.0,0.0,0.0,0.0,-3.8899,0.0,-3.9438,-3.9605,-3.9651,-3.9556,-3.856,-3.7676,-3.7024,-3.591,-3.467,-3.3309,-3.2677,-3.1784,-3.051,-2.9441,0.0,-2.7084,-2.5606,-2.4141,-2.2705,0.0,0.0,0.0,0.0,0.0,0.0,0.0,-1.9093,0.0,0.0,0.0,-1.772,-1.7475,-1.7323,-1.7178,-1.7002,-1.6897,-1.6812,-1.6663,-1.6663,-1.6735,-1.6693,-1.6663,-1.6599,-1.6599,-1.6543,-1.65,-1.65,-1.65,-1.65,-1.65,-1.6479,-1.6457,-1.6457,-1.6392,-1.634,-1.634,-1.621,-1.6035,-1.5869,-1.5501,-1.5175,-1.5006,-1.5051,0.0,0.0,0.0,0.0,0.0,0.0,0.0,0.0,0.0,0.0,0.0,0.0,0.0,0.0,0.0,0.0,0.0,0.0,0.0,0.0,0.0,0.0,0.0,0.0,0.0,-1.1977,-1.1927,-1.1828,-1.1678,-1.1628,-1.1519,-1.1377,-1.1318,-1.1301,-1.1267,-1.1091,-1.0829,-1.049,-1.0208,-1.0053,-0.9984,-0.984,-0.9788,-0.9891,0.0,-3.491,0.0,0.0,-3.7419,0.0,0.0,-3.8745,-3.9195,-3.9651,-3.9484,-3.9189,-3.883,-3.7736,-3.6626,-3.5663,-3.4331,-3.2998,-3.1793,-3.1173,-3.0306,-2.9113,-2.8271,-2.7209,-2.58,-2.4431,-2.3086,0.0,0.0,0.0,0.0,0.0,0.0,0.0,0.0,0.0,0.0,0.0,-1.7578,-1.7352,-1.7065,-1.6918,-1.6876,-1.6705,-1.6654,-1.6654,-1.6543,-1.65,-1.65,-1.65,-1.65,-1.65,-1.65,-1.65,-1.65,-1.65,-1.65,-1.65,-1.6479,-1.6414,-1.6362,-1.6328,-1.621,-1.61,-1.61,-1.5925,-1.5681,-1.5468,-1.4949,-1.449,-1.428,-1.4351,0.0,0.0,0.0,0.0,0.0,0.0,0.0,0.0,0.0,0.0,0.0,0.0,0.0,0.0,0.0,0.0,0.0,0.0,0.0,0.0,0.0,0.0,-1.1769,0.0,-1.1519,0.0,-1.136,-1.1234,-1.1006,-1.0981,-1.0863,-1.0659,-1.0633,-1.0608,-1.0608,-1.03,-1.001,-0.9718,-0.9666,-0.9562,-0.9465,-0.9439,-0.9439,-0.9465,0.0,0.0,0.0,0.0,0.0,0.0,0.0,-3.8546,-3.8551,-3.9023,-3.886,-3.8378,-3.759,-3.6281,-3.5177,-3.436,-3.2687,-3.1493,-3.1104,-2.9788,-2.8947,-2.8685,-2.744,-2.6381,-2.5653,-2.4305,-2.3002,0.0,0.0,0.0,0.0,0.0,0.0,0.0,0.0,0.0,0.0,-1.7577,-1.7246,-1.6939,-1.6782,-1.6663,-1.6531,-1.6522,-1.6522,-1.6522,-1.65,-1.65,-1.65,-1.65,-1.65,-1.65,-1.65,-1.65,-1.65,-1.65,-1.65,-1.65,-1.6436,-1.6318,-1.6188,-1.6066,-1.5935,-1.5836,-1.5836,-1.5681,-1.5446,-1.5198,-1.4558,-1.3986,-1.3716,-1.3681,-1.3658,0.0,0.0,0.0,0.0,0.0,0.0,0.0,0.0,0.0,0.0,0.0,0.0,0.0,0.0,0.0,0.0,0.0,0.0,0.0,0.0,-1.1377,-1.1352,-1.0812,0.0,-1.0523,-1.0285,-1.0149,-1.0123,-0.9994,-0.9917,-0.9899,-0.9769,-0.9718,-0.9718,-0.9569,-0.9465,-0.9413,-0.9159,-0.9061,-0.9035,-0.891,-0.8883,-0.8883,0.0,0.0,0.0,0.0,0.0,0.0,0.0,-3.7071,-3.674,-3.6441,-3.693,-3.6958,-3.6131,-3.4942,-3.3889,-3.3036,-3.1784,-3.0657,-2.9735,-2.906,-2.831,-2.744,-2.6497,-2.5689,-2.5008,-2.324,-2.2101,0.0,0.0,0.0,0.0,0.0,0.0,0.0,0.0,-1.7841,-1.7543,-1.7233,-1.6973,-1.6761,-1.6641,-1.6556,-1.65,-1.65,-1.65,-1.65,-1.65,-1.65,-1.65,-1.65,-1.65,-1.65,-1.65,-1.6479,-1.6436,-1.6436,-1.6328,-1.6185,-1.6175,-1.5979,-1.5736,-1.5601,-1.5434,-1.5232,-1.5153,-1.5051,-1.4857,-1.4513,-1.3954,-1.3478,-1.333,-1.3334,-1.3324,0.0,0.0,0.0,0.0,0.0,0.0,0.0,0.0,0.0,0.0,0.0,0.0,0.0,0.0,0.0,0.0,0.0,0.0,-1.1015,0.0,-1.0651,-1.0413,-1.0156,-1.0002,-0.9925,-0.9821,-0.971,-0.964,-0.9588,-0.951,-0.9439,-0.9387,-0.9415,-0.9484,-0.943,-0.9349,-0.9275,-0.9173,-0.9012,-0.8883,-0.8831,-0.8804,-0.8804,-3.3402,0.0,-3.4403,0.0,-3.5559,-3.5828,-3.5841,-3.558,-3.5141,-3.4344,-3.4901,-3.5169,-3.4672,-3.3651,-3.2675,-3.1875,-3.0806,-2.9753,-2.8793,-2.8464,-2.7784,-2.6583,-2.5911,0.0,-2.4461,-2.2467,-2.1379,-2.1318,-1.9894,0.0,0.0,0.0,0.0,0.0,-1.772,-1.7427,-1.7225,-1.6973,-1.6748,-1.662,-1.6543,-1.65,-1.65,-1.65,-1.65,-1.65,-1.65,-1.65,-1.6479,-1.6479,-1.6414,-1.6371,-1.6457,-1.6392,-1.6262,-1.6253,-1.6066,-1.5856,-1.5768,-1.5524,-1.5277,-1.5085,-1.4858,-1.4651,-1.4525,-1.4432,-1.4257,-1.3836,-1.3443,-1.3142,-1.3051,-1.3079,-1.3094,0.0,0.0,0.0,0.0,0.0,0.0,0.0,0.0,-1.2101,-1.1902,0.0,0.0,0.0,0.0,0.0,0.0,0.0,0.0,0.0,0.0,0.0,0.0,0.0,-0.9561,-0.9549,-0.9496,-0.9493,-0.9477,-0.9386,-0.9242,-0.9087,-0.9177,-0.9254,-0.9349,-0.9437,-0.9368,-0.9211,-0.9211,-0.9038,-0.8804,-0.8804,-0.8804,-0.8818,-3.1717,-3.2313,-3.2936,-3.3619,-3.4171,-3.4517,-3.4517,-3.4356,-3.3964,-3.3291,-3.3013,-3.2941,-3.3186,-3.2376,-3.1539,-3.089,-2.9477,-2.8622,-2.8607,-2.7989,-2.725,0.0,0.0,-2.4997,-2.413,-2.2197,-2.1099,-2.0922,0.0,0.0,-1.85,0.0,0.0,-1.77,-1.7352,-1.7094,-1.6897,-1.6761,-1.6633,-1.65,-1.65,-1.65,-1.65,-1.65,-1.65,-1.65,-1.65,-1.6457,-1.6392,-1.6392,-1.6241,-1.6054,-1.6328,-1.6219,-1.5979,-1.5859,-1.5714,-1.5524,-1.5198,-1.5006,-1.4823,-1.4489,-1.4326,-1.4176,-1.4048,-1.3894,-1.3692,-1.329,-1.3152,-1.3061,-1.2929,-1.2905,-1.2905,-1.2905,0.0,0.0,0.0,0.0,0.0,0.0,-1.2076,-1.1753,-1.1352,0.0,0.0,0.0,0.0,0.0,0.0,0.0,0.0,-0.9814,-0.9536,0.0,-0.9413,-0.9133,-0.9152,-0.9391,-0.926,-0.9392,-0.9688,-0.9365,-0.9051,-0.8824,-0.9084,-0.9211,-0.9237,-0.9559,-0.9506,-0.9211,-0.9211,-0.9038,-0.8804,-0.8804,-0.8804,-0.8844,-3.0685,-3.1152,-3.1748,-3.2405,-3.2962,-3.3287,-3.3331,-3.3184,-3.2795,-3.2132,-3.1578,-3.1264,-3.1362,-3.1097,-3.0471,0.0,-2.8858,-2.8412,0.0,-2.7225,-2.6431,-2.5671,-2.484,-2.3789,-2.2562,-2.1284,-2.0407,-1.9946,0.0,0.0,0.0,-1.7496,-1.7344,-1.722,-1.696,-1.6825,-1.6761,-1.662,-1.6543,-1.65,-1.65,-1.65,-1.65,-1.65,-1.6479,-1.6436,-1.6436,-1.6306,-1.611,-1.6022,-1.5768,-1.5512,-1.5524,-1.5524,-1.5501,-1.5356,-1.5062,-1.4754,-1.4651,-1.4396,-1.4116,-1.3905,-1.3752,-1.3624,-1.3481,-1.3382,-1.3292,-1.3162,-1.3051,-1.2954,-1.2905,-1.2905,-1.2881,-1.2783,0.0,0.0,0.0,0.0,0.0,0.0,0.0,-1.1276,0.0,-1.0395,0.0,0.0,0.0,0.0,0.0,0.0,0.0,0.0,-0.9438,0.0,-0.9589,-0.9511,-0.953,-0.9596,-0.9568,-0.9593,-0.9708,-0.9586,-0.9492,-0.9412,-0.9506,-0.9653,-0.9817,-0.994,-0.9806,-0.9546,-0.9546,-0.9239,-0.8804,-0.8804,-0.8904,-0.9084,-2.9542,-2.9883,-3.0377,-3.1268,-3.168,-3.1984,-3.2269,-3.2212,-3.1869,-3.1212,-3.072,-3.0244,-2.9752,-2.9665,0.0,-2.8588,-2.8289,0.0,-2.7416,-2.6673,-2.5874,-2.5039,-2.4139,-2.2953,-2.1472,0.0,0.0,-1.9065,-1.8016,-1.7413,-1.7261,-1.7094,-1.696,-1.6876,-1.6705,-1.662,-1.662,-1.6543,-1.65,-1.65,-1.6479,-1.6457,-1.6457,-1.6349,-1.6284,-1.6241,-1.6132,-1.5944,-1.5724,-1.558,-1.5277,-1.4937,-1.48,-1.4731,-1.4674,-1.4731,-1.4489,-1.414,-1.4035,-1.3834,-1.3621,-1.3464,-1.3344,-1.3238,-1.3118,-1.3065,-1.3027,-1.3027,-1.2954,-1.2905,-1.2905,-1.2856,-1.2783,-1.2652,0.0,0.0,0.0,0.0,0.0,0.0,0.0,0.0,0.0,-0.9899,0.0,0.0,0.0,0.0,0.0,0.0,0.0,-0.9336,-0.9315,0.0,-0.9708,-0.9715,-0.974,-0.9846,-0.999,-0.9983,-0.9846,-0.9846,-0.9786,-0.9722,-0.98,-0.9953,-1.0127,-1.0241,-1.0047,-0.9715,-0.9715,-0.9392,-0.8944,-0.8944,-0.9124,-0.9391,-2.8412,-2.8562,0.0,0.0,-3.0477,0.0,-3.1406,-3.1511,-3.1256,-3.0569,-3.0309,-2.9735,-2.85,-2.819,-2.8134,-2.824,0.0,0.0,0.0,-2.625,-2.5419,-2.444,-2.3595,0.0,-2.0717,-1.9998,-1.9145,-1.8178,-1.7375,-1.6981,-1.696,-1.6782,-1.6675,-1.6675,-1.6543,-1.65,-1.65,-1.65,-1.6479,-1.6457,-1.6392,-1.6349,-1.6328,-1.6066,-1.5966,-1.5901,-1.5657,-1.5423,-1.522,-1.5074,-1.4743,-1.4326,-1.4199,-1.3871,-1.3644,-1.4035,-1.3952,-1.3702,-1.3443,-1.3372,-1.3324,-1.3123,-1.3085,-1.3051,-1.2929,-1.2905,-1.2905,-1.2905,-1.2905,-1.2905,-1.2881,-1.2783,-1.2627,-1.248,-1.2224,-1.1902,-1.1502,0.0,0.0,0.0,0.0,0.0,0.0,-0.9335,-0.9133,0.0,0.0,0.0,0.0,0.0,-0.9052,-0.9231,-0.9244,-0.9397,-0.9769,-0.9775,-0.988,-1.0147,-1.0459,-1.0445,-1.0117,-1.0117,-1.0,-0.9789,-1.0033,-1.0117,-1.0167,-1.0479,-1.0258,-0.9742,-0.9742,-0.9532,-0.9244,-0.9244,-0.9459,-0.9753,0.0,0.0,-2.8861,-2.9654,-3.0193,-3.0731,-3.1406,-3.1409,-3.1113,-3.0443,-2.9699,-2.8913,-2.8121,-2.7365,-2.6874,-2.6806,-2.6849,-2.6585,-2.5977,-2.5023,-2.4145,-2.34,-2.2283,-2.1057,-1.9669,-1.9231,-1.8386,-1.7081,-1.6867,-1.6705,-1.6629,-1.6565,-1.6556,-1.6556,-1.6522,-1.6479,-1.6414,-1.6414,-1.6306,-1.6132,-1.6098,-1.5966,-1.579,-1.5724,-1.5524,-1.53,-1.5244,-1.4971,-1.4605,-1.4455,-1.4129,-1.3776,-1.3634,-1.3406,-1.3258,-1.3525,-1.343,-1.3244,-1.3196,-1.3089,-1.3017,-1.2954,-1.2954,-1.2929,-1.2905,-1.2905,-1.2905,-1.2905,-1.2905,-1.2856,-1.2783,-1.2627,-1.2431,-1.2101,-1.1828,-1.1477,-1.0972,0.0,0.0,0.0,-0.9725,-0.9543,-0.9465,-0.9211,-0.9035,0.0,0.0,0.0,0.0,0.0,-0.9072,-0.9559,-0.9579,-0.9826,-1.0378,-1.0385,-1.0419,-1.0486,-1.0559,-1.0553,-1.0486,-1.0486,-1.0445,-1.0385,-1.0452,-1.0486,-1.0492,-1.0566,-1.0372,-1.0013,-1.0013,-0.9833,-0.9579,-0.9579,-0.9766,-1.002,-2.7514,-2.7709,-2.8169,-2.9102,-2.9491,-3.0009,-3.094,-3.0763,-3.0264,-2.9532,-2.8636,-2.7804,-2.7061,-2.6389,-2.5933,-2.5811,-2.6123,-2.5961,-2.5099,-2.4156,-2.3275,-2.2483,-2.1245,-2.0051,-1.9015,-1.8494,-1.7715,-1.6599,-1.6599,-1.6565,-1.65,-1.65,-1.6479,-1.6457,-1.6457,-1.6371,-1.6219,-1.6154,-1.6001,-1.579,-1.5657,-1.5501,-1.5345,-1.5142,-1.4937,-1.4766,-1.4581,-1.4303,-1.4022,-1.3871,-1.3621,-1.3344,-1.3296,-1.3162,-1.3027,-1.3152,-1.3089,-1.3012,-1.3012,-1.2954,-1.2905,-1.2905,-1.2905,-1.2905,-1.2905,-1.2905,-1.2881,-1.2832,-1.2808,-1.2759,-1.2554,-1.2357,-1.2101,-1.1694,-1.1267,-1.0837,-1.037,-1.0035,0.0,-0.9465,-0.9316,-0.9185,-0.9133,-0.8982,-0.891,-0.891,0.0,0.0,-0.8804,-0.8804,-0.9011,-0.9466,-0.9613,-0.99,-1.0385,-1.0526,-1.0593,-1.0593,-1.0593,-1.0593,-1.0593,-1.0593,-1.0593,-1.0593,-1.0593,-1.0593,-1.0593,-1.0593,-1.0388,-1.0083,-1.0083,-1.002,-0.988,-0.9827,-0.9946,-1.0166,-2.7258,-2.7093,-2.729,-2.8443,-2.8564,-2.8899,-3.0074,-2.974,-2.9059,-2.8268,-2.7428,-2.6624,-2.5854,-2.5453,-2.5148,-2.4953,-2.5246,-2.508,-2.4204,-2.3364,-2.2494,-2.1519,-2.0345,-1.9318,-1.8462,-1.7785,-1.7131,-1.65,-1.65,-1.6479,-1.6479,-1.6436,-1.6392,-1.6328,-1.6306,-1.6132,-1.5879,-1.5736,-1.558,-1.539,-1.5096,-1.4971,-1.4857,-1.4466,-1.428,-1.421,-1.3858,-1.3644,-1.3501,-1.3406,-1.3224,-1.3061,-1.3061,-1.2978,-1.2905,-1.2905,-1.2905,-1.2905,-1.2905,-1.2905,-1.2905,-1.2905,-1.2905,-1.2905,-1.2905,-1.2881,-1.2832,-1.27,-1.2627,-1.2529,-1.2224,-1.1952,-1.1653,-1.1192,-1.0659,-1.0164,-0.9762,0.0,-0.9308,-0.905,-0.9064,-0.9065,-0.8938,-0.8938,-0.8938,-0.8938,-0.8938,0.0,0.0,-0.8898,-0.8958,-0.9204,-0.9486,-0.978,-1.0114,-1.0445,-1.0593,-1.0593,-1.0593,-1.0593,-1.0593,-1.0593,-1.0593,-1.0593,-1.0561,-1.0561,-1.0561,-1.0498,-1.0314,-1.0065,-1.0028,-0.9997,-0.9997,-0.9881,-0.9968,-1.011,-2.6642,-2.6604,-2.6782,-2.7421,-2.7537,-2.7767,-2.8527,-2.8339,-2.7838,-2.7131,-2.6479,-2.5831,-2.5214,-2.4723,-2.4294,-2.3802,-2.3566,-2.3329,-2.3058,-2.2141,-2.1107,-1.9976,-1.9538,-1.8818,-1.7785,-1.7046,-1.6597,-1.65,-1.6436,-1.6414,-1.6414,-1.6175,-1.6076,-1.6054,-1.5834,-1.5613,-1.54,-1.5266,-1.4971,-1.4581,-1.4535,-1.4303,-1.3975,-1.3915,-1.3763,-1.3563,-1.3481,-1.3334,-1.3172,-1.3148,-1.3051,-1.2929,-1.2929,-1.2929,-1.2905,-1.2905,-1.2905,-1.2905,-1.2905,-1.2905,-1.2905,-1.2905,-1.2905,-1.2905,-1.2905,-1.2808,-1.27,-1.2554,-1.2348,-1.2076,-1.1694,-1.1402,-1.104,-1.0454,-1.0105,-0.9744,0.0,0.0,-0.9357,-0.9199,-0.942,-0.9574,-0.9546,-0.9546,-0.9546,-0.9546,-0.9546,-0.9546,-0.9546,-0.9277,-0.9164,-0.9211,-0.9257,-0.9537,-1.0083,-1.0445,-1.0593,-1.0593,-1.0593,-1.0593,-1.0593,-1.0593,-1.0593,-1.0593,-1.0434,-1.0333,-1.0333,-1.0053,-0.9907,-0.9831,-0.9654,-0.9585,-0.9585,-0.9553,-0.952,-0.9434,-2.6133,-2.5934,-2.5869,-2.644,-2.6437,-2.6544,-2.7195,-2.6854,-2.6421,-2.599,-2.5358,-2.4667,-2.3995,-2.3673,-2.328,-2.2735,-2.2177,-2.1854,-2.1771,-2.1339,-2.054,-1.9329,-1.8877,-1.8124,-1.698,-1.6616,-1.6371,-1.6241,-1.6197,-1.611,-1.5979,-1.5834,-1.568,-1.5501,-1.539,-1.5142,-1.48,-1.4663,-1.4408,-1.4069,-1.3918,-1.3752,-1.3573,-1.3464,-1.3354,-1.3224,-1.3152,-1.3065,-1.2978,-1.2978,-1.2954,-1.2905,-1.2905,-1.2905,-1.2905,-1.2905,-1.2905,-1.2905,-1.2905,-1.2905,-1.2905,-1.2905,-1.2856,-1.2774,-1.2774,-1.2784,-1.2685,-1.2482,-1.2381,-1.2158,-1.1636,-1.1323,-1.0991,-1.0441,-1.0141,0.0,0.0,-0.9554,-0.9529,-0.9479,-0.9599,-0.9715,-0.9715,-0.9715,-0.9715,-0.9715,-0.9715,-0.9715,-0.9715,-0.9552,-0.9479,-0.9479,-0.9479,-0.9686,-1.0114,-1.0445,-1.0593,-1.0593,-1.0593,-1.0593,-1.0593,-1.0498,-1.0428,-1.0434,-1.0149,-0.9983,-0.9849,-0.9626,-0.9472,-0.9344,-0.9274,-0.9236,-0.9204,-0.9037,-0.8909,-0.8812,-2.5217,-2.4983,-2.4836,-2.5372,-2.5304,-2.5332,-2.5784,-2.5449,-2.5028,-2.4721,-2.4138,-2.3482,-2.2771,-2.2578,-2.2275,-2.1741,-2.1147,-2.0735,-2.0596,-2.0531,-1.9987,-1.882,-1.8072,-1.7242,-1.6331,-1.6241,-1.611,-1.5901,-1.5834,-1.568,-1.5479,-1.5367,-1.5187,-1.4926,-1.4834,-1.4581,-1.421,-1.4059,-1.3881,-1.3607,-1.3406,-1.331,-1.3262,-1.3113,-1.3051,-1.3036,-1.2929,-1.2905,-1.2905,-1.2905,-1.2905,-1.2905,-1.2905,-1.2905,-1.2905,-1.2905,-1.2881,-1.2856,-1.2881,-1.2881,-1.2856,-1.2856,-1.2778,-1.2731,-1.2681,-1.2705,-1.2661,-1.2396,-1.2265,-1.2047,-1.1495,-1.1192,-1.0851,-1.0437,0.0,0.0,0.0,-0.9827,-0.9786,-0.9786,-0.9876,-0.9916,-0.9916,-0.9916,-0.9916,-0.9916,-0.9916,-0.9916,-0.9916,-0.982,-0.9753,-0.9628,-0.9746,-0.9893,-1.0114,-1.0445,-1.0593,-1.0593,-1.0561,-1.053,-1.053,-1.0276,-1.0149,-1.0072,-0.9734,-0.944,-0.9262,-0.8979,-0.8786,-0.8624,-0.856,-0.8528,-0.849,-0.8226,-0.8096,-0.8004,-2.359,-2.3627,-2.3728,-2.415,-2.4213,-2.4239,-2.4249,-2.4132,-2.3807,-2.3249,-2.2901,-2.2487,-2.1845,-2.1683,-2.1385,-2.0832,-2.0648,-2.0291,-1.973,-1.9457,-1.8952,-1.8112,-1.6851,-1.6118,-1.6044,-1.579,-1.5657,-1.5635,-1.5334,-1.5153,-1.5131,-1.4697,-1.4489,-1.4443,-1.4069,-1.381,-1.3644,-1.3515,-1.3334,-1.3148,-1.3123,-1.3051,-1.2954,-1.2929,-1.2905,-1.2905,-1.2905,-1.2905,-1.2905,-1.2905,-1.2905,-1.2905,-1.2905,-1.2905,-1.2905,-1.2905,-1.2808,-1.2735,-1.2856,-1.2808,-1.27,-1.27,-1.2748,-1.2774,-1.2645,-1.2565,-1.2448,-1.2169,-1.1692,-1.122,-1.0893,-1.058,-1.0272,-0.9991,0.0,0.0,-0.9737,-0.9913,-1.0087,-1.0087,-1.0327,-1.0526,-1.0526,-1.0526,-1.0526,-1.0526,-1.0526,-1.0526,-1.0526,-1.0234,-0.987,-0.9424,-0.9857,-1.0094,-1.0083,-1.0445,-1.0593,-1.0593,-1.0396,-1.0333,-1.0308,-0.9989,-0.9728,-0.9524,-0.9087,-0.8765,-0.8522,-0.7907,-0.7619,-0.7587,-0.719,-0.7055,-0.7055,-0.7022,-0.6929,-0.6839,-2.2597,-2.2849,-2.299,-2.3151,-2.3356,-2.3369,-2.3012,-2.2945,-2.2696,-2.2125,-2.1977,-2.1678,-2.1041,-2.0897,-2.059,-1.9832,-1.9715,-1.9523,-1.9117,-1.8999,-1.8518,-1.7545,-1.669,-1.5991,-1.5446,-1.5345,-1.5142,-1.4846,-1.4743,-1.4535,-1.4303,-1.4116,-1.3952,-1.3776,-1.361,-1.3454,-1.3282,-1.3234,-1.3113,-1.2978,-1.2978,-1.2954,-1.2905,-1.2905,-1.2905,-1.2905,-1.2905,-1.2905,-1.2905,-1.2905,-1.2905,-1.2905,-1.2905,-1.2832,-1.2735,-1.2578,-1.2505,-1.2431,-1.2298,-1.2357,-1.2487,-1.26,-1.2433,-1.2263,-1.2385,-1.2271,-1.2093,-1.1908,-1.165,-1.1345,-1.1036,-1.0793,-1.055,-1.035,0.0,-1.0319,-1.0258,-1.0352,-1.0419,-1.0419,-1.0519,-1.0593,-1.0593,-1.0593,-1.0593,-1.0593,-1.0593,-1.0593,-1.0593,-1.036,-1.0061,-0.9649,-0.97,-0.9706,-0.967,-0.9945,-1.0047,-0.9907,-0.9843,-0.9808,-0.9849,-0.9388,-0.9141,-0.9036,-0.8299,-0.7884,-0.7652,-0.7199,-0.6937,-0.6806,-0.6642,-0.6643,-0.6689,-0.6511,-0.6481,-0.6477,-2.1607,-2.1878,-2.2068,-2.2246,-2.243,-2.2456,-2.2108,-2.2058,-2.1829,-2.1249,-2.1187,-2.0919,-2.017,-2.0066,-1.9773,-1.9117,-1.8936,-1.8789,-1.8587,-1.8398,-1.7906,-1.7056,-1.6348,-1.5613,-1.4891,-1.4766,-1.4535,-1.4221,-1.414,-1.3941,-1.3668,-1.3607,-1.3488,-1.3286,-1.3262,-1.3176,-1.3036,-1.3036,-1.2978,-1.2905,-1.2905,-1.2905,-1.2905,-1.2905,-1.2905,-1.2905,-1.2905,-1.2905,-1.2905,-1.2905,-1.2905,-1.2881,-1.2856,-1.2686,-1.248,-1.2249,-1.2076,-1.1954,-1.187,-1.1855,-1.1943,-1.2244,-1.2111,-1.1941,-1.2088,-1.1953,-1.1751,-1.1609,-1.1453,-1.1279,-1.1059,-1.087,-1.0713,-1.0624,-1.0593,-1.0593,-1.0593,-1.0593,-1.0593,-1.0593,-1.0673,-1.0727,-1.0727,-1.0814,-1.0861,-1.0861,-1.0716,-1.0559,-1.0346,-1.0174,-0.9888,-0.951,-0.93,-0.9053,-0.8802,-0.9293,-0.9472,-0.9332,-0.9312,-0.9288,-0.9332,-0.8764,-0.8511,-0.8407,-0.7648,-0.7185,-0.6983,-0.6589,-0.633,-0.6201,-0.6167,-0.6203,-0.6257,-0.6128,-0.6146,-0.6174,-2.0578,-2.0691,-2.0867,-2.1393,-2.1481,-2.1481,-2.1481,-2.1481,-2.1265,-2.059,-2.0488,-2.0157,-1.93,-1.9054,-1.8946,-1.8798,-1.836,-1.8093,-1.8093,-1.7529,-1.7014,-1.6598,-1.557,-1.4805,-1.4407,-1.401,-1.3797,-1.3787,-1.3515,-1.3396,-1.3396,-1.3186,-1.3109,-1.3085,-1.2954,-1.2905,-1.2905,-1.2905,-1.2905,-1.2905,-1.2905,-1.2905,-1.2905,-1.2905,-1.2905,-1.2905,-1.2905,-1.2905,-1.2905,-1.2905,-1.2905,-1.2881,-1.2735,-1.2431,-1.2076,-1.1927,-1.1603,-1.1362,-1.1625,-1.1301,-1.104,-1.1567,-1.1804,-1.1856,-1.1716,-1.1662,-1.1529,-1.1341,-1.1028,-1.0807,-1.0807,-1.0688,-1.0593,-1.0593,-1.0593,-1.0593,-1.0593,-1.0593,-1.0593,-1.0593,-1.0847,-1.0995,-1.0995,-1.1256,-1.1389,-1.1389,-1.0955,-1.0444,-0.9823,-0.96,-0.9274,-0.8808,-0.8598,-0.8172,-0.7493,-0.8501,-0.8985,-0.899,-0.8843,-0.8789,-0.8771,-0.815,-0.7828,-0.7659,-0.7126,-0.6774,-0.6551,-0.6027,-0.5786,-0.579,-0.5658,-0.5593,-0.561,-0.5749,-0.58,-0.5803,-2.0024,-2.0335,-2.0619,-2.0782,-2.0952,-2.0936,-2.0502,-2.037,-2.0104,-1.9514,-1.9373,-1.9126,-1.8614,-1.8456,-1.8186,-1.7717,-1.7551,-1.7346,-1.7067,-1.6405,-1.5825,-1.5362,-1.5218,-1.4697,-1.3726,-1.3586,-1.3454,-1.3316,-1.3234,-1.3138,-1.3065,-1.3002,-1.2954,-1.2954,-1.2929,-1.2905,-1.2905,-1.2905,-1.2905,-1.2905,-1.2905,-1.2905,-1.2905,-1.2905,-1.2905,-1.2905,-1.2905,-1.2832,-1.2759,-1.2759,-1.2627,-1.2431,-1.2101,-1.1852,-1.1622,-1.1403,-1.119,-1.1006,-1.1,-1.098,-1.1097,-1.1579,-1.1474,-1.1323,-1.1633,-1.1496,-1.1372,-1.1555,-1.1233,-1.0927,-1.0927,-1.0894,-1.0894,-1.0894,-1.0894,-1.0894,-1.0894,-1.072,-1.0667,-1.0868,-1.0942,-1.1009,-1.1073,-1.1131,-1.108,-1.0805,-1.0386,-0.9971,-0.9559,-0.9332,-0.8883,-0.8196,-0.7914,-0.7573,-0.7076,-0.7663,-0.7894,-0.7741,-0.7706,-0.7716,-0.7807,-0.7405,-0.7193,-0.7127,-0.6573,-0.6312,-0.6237,-0.5933,-0.5806,-0.5806,-0.5771,-0.5803,-0.5891,-0.5827,-0.5871,-0.5925,-1.9474,-1.9705,-1.9897,-1.9844,-1.9976,-1.9936,-1.9504,-1.9374,-1.9158,-1.8691,-1.8587,-1.8371,-1.7897,-1.7749,-1.7473,-1.6994,-1.6853,-1.6627,-1.6267,-1.565,-1.5066,-1.456,-1.4515,-1.4139,-1.3306,-1.3238,-1.3128,-1.3027,-1.3027,-1.2978,-1.2905,-1.2905,-1.2905,-1.2905,-1.2905,-1.2905,-1.2905,-1.2905,-1.2905,-1.2905,-1.2905,-1.2905,-1.2881,-1.2832,-1.2832,-1.2808,-1.27,-1.2603,-1.2529,-1.2431,-1.2175,-1.1852,-1.1553,-1.1319,-1.1144,-1.0923,-1.0775,-1.0675,-1.0726,-1.0717,-1.0822,-1.1246,-1.1225,-1.1139,-1.1455,-1.1407,-1.1343,-1.1526,-1.135,-1.1162,-1.1162,-1.1162,-1.1162,-1.1162,-1.1069,-1.0995,-1.0995,-1.0774,-1.07,-1.0955,-1.1022,-1.1073,-1.1188,-1.1141,-1.0835,-1.0155,-0.9872,-0.9474,-0.8825,-0.8639,-0.8216,-0.7544,-0.7259,-0.696,-0.658,-0.6817,-0.6946,-0.695,-0.7032,-0.7113,-0.7175,-0.6917,-0.6775,-0.675,-0.6358,-0.6175,-0.6168,-0.5955,-0.5891,-0.5891,-0.5891,-0.5912,-0.599,-0.5996,-0.604,-0.6122,-1.896,-1.8934,-1.8881,-1.8759,-1.8691,-1.8625,-1.8479,-1.8441,-1.8333,-1.8023,-1.7984,-1.7749,-1.719,-1.7011,-1.6814,-1.6542,-1.6228,-1.5941,-1.5701,-1.5198,-1.4661,-1.4124,-1.3665,-1.3322,-1.3085,-1.2954,-1.2905,-1.2905,-1.2905,-1.2905,-1.2905,-1.2905,-1.2905,-1.2905,-1.2905,-1.2905,-1.2905,-1.2881,-1.2881,-1.2881,-1.2856,-1.2856,-1.2832,-1.27,-1.2627,-1.2603,-1.2348,-1.2249,-1.2175,-1.1877,-1.1545,-1.1251,-1.1065,-1.088,-1.0655,-1.0529,-1.0404,-1.0378,-1.0691,-1.0572,-1.0404,-1.0742,-1.1035,-1.122,-1.122,-1.1357,-1.1435,-1.1462,-1.1449,-1.1429,-1.1429,-1.1429,-1.1429,-1.1429,-1.1243,-1.1069,-1.1069,-1.0854,-1.078,-1.1002,-1.1099,-1.1159,-1.1234,-1.104,-1.0484,-0.952,-0.9395,-0.8902,-0.7923,-0.774,-0.7423,-0.6889,-0.6662,-0.6406,-0.6082,-0.6082,-0.6253,-0.6552,-0.6727,-0.6816,-0.6835,-0.6649,-0.6563,-0.6563,-0.6374,-0.63,-0.6289,-0.6108,-0.6013,-0.6013,-0.6013,-0.6013,-0.6067,-0.6248,-0.63,-0.63,-1.8694,-1.8494,-1.8294,-1.8267,-1.787,-1.7551,-1.7523,-1.7329,-1.7162,-1.7078,-1.6994,-1.6825,-1.6524,-1.6371,-1.62,-1.5933,-1.5681,-1.5526,-1.5478,-1.4735,-1.4238,-1.4114,-1.3418,-1.3003,-1.2929,-1.2905,-1.2905,-1.2905,-1.2905,-1.2905,-1.2905,-1.2905,-1.2905,-1.2905,-1.2905,-1.2905,-1.2881,-1.2783,-1.2735,-1.2735,-1.2505,-1.2421,-1.2431,-1.2274,-1.215,-1.2076,-1.2002,-1.1778,-1.1452,-1.0913,-1.0845,-1.0939,-1.0585,-1.0516,-1.055,-1.0515,-1.0406,-1.0345,-1.0567,-1.0586,-1.0598,-1.0893,-1.1149,-1.1363,-1.1363,-1.1591,-1.1837,-1.2064,-1.1931,-1.177,-1.177,-1.177,-1.177,-1.177,-1.1752,-1.1712,-1.1712,-1.1423,-1.1281,-1.1434,-1.1343,-1.1169,-1.0929,-1.0029,-0.9281,-0.8897,-0.8439,-0.8005,-0.7593,-0.7408,-0.7105,-0.6688,-0.6488,-0.6271,-0.602,-0.602,-0.6076,-0.6115,-0.6182,-0.628,-0.644,-0.6398,-0.6377,-0.6377,-0.6338,-0.63,-0.6296,-0.6262,-0.6248,-0.6248,-0.6248,-0.6248,-0.6252,-0.6286,-0.63,-0.63,-1.7688,-1.7595,-1.7457,-1.739,-1.7123,-1.6881,-1.6797,-1.6637,-1.6552,-1.6467,-1.64,-1.6257,-1.6038,-1.5951,-1.5807,-1.5575,-1.5449,-1.541,-1.541,-1.4777,-1.4328,-1.4114,-1.3516,-1.3111,-1.2905,-1.2905,-1.2905,-1.2905,-1.2905,-1.2905,-1.2905,-1.2832,-1.2808,-1.2808,-1.2735,-1.271,-1.27,-1.2578,-1.248,-1.2406,-1.22,-1.2076,-1.2002,-1.1794,-1.1669,-1.1578,-1.1293,-1.1021,-1.0771,-1.0456,-1.0474,-1.0589,-1.0359,-1.0351,-1.0403,-1.0384,-1.0421,-1.0485,-1.0584,-1.0693,-1.0834,-1.0955,-1.1316,-1.1637,-1.1637,-1.1864,-1.2118,-1.2271,-1.2184,-1.2078,-1.2078,-1.2078,-1.2078,-1.2078,-1.1993,-1.187,-1.1764,-1.1477,-1.1253,-1.1297,-1.1042,-1.0603,-0.9884,-0.9041,-0.8399,-0.8016,-0.7676,-0.7365,-0.7099,-0.6988,-0.6756,-0.6451,-0.637,-0.6249,-0.6139,-0.6139,-0.6139,-0.6139,-0.6139,-0.6183,-0.63,-0.63,-0.63,-0.63,-0.63,-0.63,-0.63,-0.63,-0.63,-0.63,-0.63,-0.63,-0.63,-0.63,-0.63,-0.631,-1.6549,-1.6641,-1.6637,-1.6542,-1.6495,-1.6381,-1.621,-1.6181,-1.6124,-1.5999,-1.597,-1.5884,-1.5672,-1.5643,-1.5575,-1.541,-1.541,-1.541,-1.541,-1.5019,-1.459,-1.4124,-1.3704,-1.3285,-1.2866,-1.2832,-1.2832,-1.2856,-1.2856,-1.2832,-1.2808,-1.2676,-1.2627,-1.2603,-1.2455,-1.2406,-1.2382,-1.22,-1.2051,-1.1952,-1.1719,-1.1569,-1.1444,-1.1192,-1.1057,-1.0989,-1.0472,-1.0275,-1.024,-1.0245,-1.0256,-1.0292,-1.0263,-1.0297,-1.034,-1.034,-1.0454,-1.0593,-1.0593,-1.0807,-1.1002,-1.1056,-1.1504,-1.1919,-1.1966,-1.2131,-1.2305,-1.2305,-1.2305,-1.2305,-1.2305,-1.2305,-1.2298,-1.2268,-1.2061,-1.1837,-1.1585,-1.1301,-1.1032,-1.087,-1.0386,-0.9659,-0.8647,-0.8136,-0.768,-0.7142,-0.7069,-0.6914,-0.6563,-0.6563,-0.649,-0.63,-0.63,-0.63,-0.63,-0.6323,-0.6323,-0.63,-0.6323,-0.6323,-0.63,-0.63,-0.63,-0.63,-0.63,-0.63,-0.63,-0.63,-0.63,-0.63,-0.63,-0.63,-0.63,-0.63,-0.6317,-0.6354,-1.5842,-1.6035,-1.62,-1.6171,-1.598,-1.5817,-1.5788,-1.5633,-1.5536,-1.5497,-1.5497,-1.5468,-1.5439,-1.5449,-1.5439,-1.541,-1.541,-1.541,-1.541,-1.5019,-1.459,-1.4124,-1.3601,-1.3124,-1.2735,-1.2505,-1.2505,-1.2735,-1.2735,-1.2603,-1.2382,-1.2357,-1.2298,-1.2175,-1.2051,-1.1977,-1.1952,-1.1594,-1.1427,-1.1352,-1.0812,-1.0582,-1.0557,-1.0277,-1.0097,-0.9994,-0.9917,-0.9906,-0.9956,-0.9953,-1.01,-1.0287,-1.0174,-1.0322,-1.0564,-1.0564,-1.0591,-1.0593,-1.0593,-1.0807,-1.1056,-1.1303,-1.1617,-1.1973,-1.2184,-1.2271,-1.2305,-1.2305,-1.2305,-1.2305,-1.2305,-1.2305,-1.2224,-1.2077,-1.2013,-1.1877,-1.1465,-1.1249,-1.091,-1.0387,-0.9341,-0.8481,-0.797,-0.7399,-0.6942,-0.6718,-0.6528,-0.6416,-0.6338,-0.6338,-0.6338,-0.63,-0.63,-0.63,-0.63,-0.6422,-0.6422,-0.6303,-0.6426,-0.6419,-0.63,-0.63,-0.63,-0.63,-0.63,-0.63,-0.63,-0.63,-0.63,-0.63,-0.63,-0.63,-0.63,-0.63,-0.6378,-0.6487,-1.5142,-1.5459,-1.57,-1.57,-1.5594,-1.5546,-1.5546,-1.5449,-1.541,-1.541,-1.541,-1.541,-1.541,-1.541,-1.541,-1.541,-1.5332,-1.5284,-1.5284,-1.4955,-1.4544,-1.4136,-1.3763,-1.3364,-1.2885,-1.2745,-1.2532,-1.2211,-1.2236,-1.22,-1.2076,-1.1852,-1.1703,-1.1653,-1.1418,-1.1352,-1.1326,-1.0964,-1.0761,-1.0659,-1.0241,-1.0028,-0.9925,-0.9744,-0.964,-0.9584,-0.9587,-0.9666,-0.9811,-0.9967,-1.0204,-1.0454,-1.0392,-1.0486,-1.0593,-1.0593,-1.0593,-1.0626,-1.0787,-1.1015,-1.1303,-1.1597,-1.1897,-1.2144,-1.2124,-1.212,-1.2157,-1.2268,-1.2224,-1.212,-1.212,-1.1966,-1.1781,-1.1669,-1.1484,-1.1186,-1.0775,-1.0633,-1.0308,-0.9547,-0.8596,-0.7872,-0.7533,-0.7098,-0.681,-0.6655,-0.6585,-0.6508,-0.6422,-0.6419,-0.6381,-0.6303,-0.63,-0.6337,-0.6419,-0.648,-0.6525,-0.6508,-0.6569,-0.6521,-0.6303,-0.6381,-0.6419,-0.6422,-0.6511,-0.6508,-0.6502,-0.6453,-0.6419,-0.6412,-0.633,-0.63,-0.631,-0.6388,-0.646,-0.6538]},{"header":{"parameterUnit":"m.s-1","parameterCategory":1,"la1":30.6,"la2":28.766,"lo1":-90.7593,"lo2":-88.6598,"dy":0.0162,"dx":0.0183,"nx":116,"ny":114,"refTime":"2023-07-26T12:00:00:Z","depth":0,"parameterNumber":3,"parameterNumberName":"V-component_of_WINDS"},"data":[0.0,0.0,0.0,0.0,0.0,0.0,0.0,0.0,0.0,0.0,0.0,0.0,0.0,0.0,0.0,0.0,0.0,0.0,0.0,0.0,0.0,0.0,0.0,0.0,0.0,0.0,0.0,0.0,0.0,0.0,0.0,0.0,0.0,0.0,0.0,0.0,0.0,0.0,0.0,0.0,0.0,0.0,0.0,0.0,0.0,0.0,0.0,0.0,0.0,0.0,0.0,0.0,0.0,0.0,0.0,0.0,0.0,0.0,0.0,0.0,0.0,0.0,0.0,0.0,0.0,0.0,0.0,0.0,0.0,0.0,0.0,0.0,0.0,0.0,0.0,0.0,0.0,0.0,0.0,0.0,0.0,0.0,0.0,0.0,0.0,0.0,0.0,0.0,0.0,0.0,0.0,0.0,0.0,0.0,0.0,0.0,0.0,0.0,0.0,0.0,0.0,0.0,0.0,0.0,0.0,0.0,0.0,0.0,0.0,0.0,0.0,0.0,0.0,0.0,0.0,0.0,0.0,0.0,0.0,0.0,0.0,0.0,0.0,0.0,0.0,0.0,0.0,0.0,0.0,0.0,0.0,0.0,0.0,0.0,0.0,0.0,0.0,0.0,0.0,0.0,0.0,0.0,0.0,0.0,0.0,0.0,0.0,0.0,0.0,0.0,0.0,0.0,0.0,0.0,0.0,0.0,0.0,0.0,0.0,0.0,0.0,0.0,0.0,0.0,0.0,0.0,0.0,0.0,0.0,0.0,0.0,0.0,0.0,0.0,0.0,0.0,0.0,0.0,0.0,0.0,0.0,0.0,0.0,0.0,0.0,0.0,0.0,0.0,0.0,0.0,0.0,0.0,0.0,0.0,0.0,0.0,0.0,0.0,0.0,0.0,0.0,0.0,0.0,0.0,0.0,0.0,0.0,0.0,0.0,0.0,0.0,0.0,0.0,0.0,0.0,0.0,0.0,0.0,0.0,0.0,0.0,0.0,0.0,0.0,0.0,0.0,0.0,0.0,0.0,0.0,0.0,0.0,0.0,0.0,0.0,0.0,0.0,0.0,0.0,0.0,0.0,0.0,0.0,0.0,0.0,0.0,0.0,0.0,0.0,0.0,0.0,0.0,0.0,0.0,0.0,0.0,0.0,0.0,0.0,0.0,0.0,0.0,0.0,0.0,0.0,0.0,0.0,0.0,0.0,0.0,0.0,0.0,0.0,0.0,0.0,0.0,0.0,0.0,0.0,0.0,0.0,0.0,0.0,0.0,0.0,0.0,0.0,0.0,0.0,0.0,0.0,0.0,0.0,0.0,0.0,0.0,0.0,0.0,0.0,0.0,0.0,0.0,0.0,0.0,0.0,0.0,0.0,0.0,0.0,0.0,0.0,0.0,0.0,0.0,0.0,0.0,0.0,0.0,0.0,0.0,0.0,0.0,0.0,0.0,0.0,0.0,0.0,0.0,0.0,0.0,0.0,0.0,0.0,0.0,0.0,0.0,0.0,0.0,0.0,0.0,0.0,0.0,0.0,0.0,0.0,0.0,0.0,0.0,0.0,0.0,0.0,0.0,0.0,0.0,0.0,0.0,0.0,0.0,0.0,0.0,0.0,0.0,0.0,0.0,0.0,0.0,0.0,0.0,0.0,0.0,0.0,0.0,0.0,0.0,0.0,0.0,0.0,0.0,0.0,0.0,0.0,0.0,0.0,0.0,0.0,0.0,0.0,0.0,0.0,0.0,0.0,0.0,0.0,0.0,0.0,0.0,0.0,0.0,0.0,0.0,0.0,0.0,0.0,0.0,0.0,0.0,0.0,0.0,0.0,0.0,0.0,0.0,0.0,0.0,0.0,0.0,0.0,0.0,0.0,0.0,0.0,0.0,0.0,0.0,0.0,0.0,0.0,0.0,0.0,0.0,0.0,0.0,0.0,0.0,0.0,0.0,0.0,0.0,0.0,0.0,0.0,0.0,0.0,0.0,0.0,0.0,0.0,0.0,0.0,0.0,0.0,0.0,0.0,0.0,0.0,0.0,0.0,0.0,0.0,0.0,0.0,0.0,0.0,0.0,0.0,0.0,0.0,0.0,0.0,0.0,0.0,0.0,0.0,0.0,0.0,0.0,0.0,0.0,0.0,0.0,0.0,0.0,0.0,0.0,0.0,0.0,0.0,0.0,0.0,0.0,0.0,0.0,0.0,0.0,0.0,0.0,0.0,0.0,0.0,0.0,0.0,0.0,0.0,0.0,0.0,0.0,0.0,0.0,0.0,0.0,0.0,0.0,0.0,0.0,0.0,0.0,0.0,0.0,0.0,0.0,0.0,0.0,0.0,0.0,0.0,0.0,0.0,0.0,0.0,0.0,0.0,0.0,0.0,0.0,0.0,0.0,0.0,0.0,0.0,0.0,0.0,0.0,0.0,0.0,0.0,0.0,0.0,0.0,0.0,0.0,0.0,0.0,0.0,0.0,0.0,0.0,0.0,0.0,0.0,0.0,0.0,0.0,0.0,0.0,0.0,0.0,0.0,0.0,0.0,0.0,0.0,0.0,0.0,0.0,0.0,0.0,0.0,0.0,0.0,0.0,0.0,0.0,0.0,0.0,0.0,0.0,0.0,0.0,0.0,0.0,0.0,0.0,0.0,0.0,0.0,0.0,0.0,0.0,0.0,0.0,0.0,0.0,0.0,0.0,0.0,0.0,0.0,0.0,0.0,0.0,0.0,0.0,0.0,0.0,0.0,0.0,0.0,0.0,0.0,0.0,0.0,0.0,0.0,0.0,0.0,0.0,0.0,0.0,0.0,0.0,0.0,0.0,0.0,0.0,0.0,0.0,0.0,0.0,0.0,0.0,0.0,0.0,0.0,0.0,0.0,0.0,0.0,0.0,0.0,0.0,0.0,0.0,0.0,0.0,0.0,0.0,0.0,0.0,0.0,0.0,0.0,0.0,0.0,0.0,0.0,0.0,0.0,0.0,0.0,0.0,0.0,0.0,0.0,0.0,0.0,0.0,0.0,0.0,0.0,0.0,0.0,0.0,0.0,0.0,0.0,0.0,0.0,0.0,0.0,0.0,0.0,0.0,0.0,0.0,0.0,0.0,0.0,0.0,0.0,0.0,0.0,0.0,0.0,0.0,0.0,0.0,0.0,0.0,0.0,0.0,0.0,0.0,0.0,0.0,0.0,0.0,0.0,0.0,0.0,0.0,0.0,0.0,0.0,0.0,0.0,0.0,0.0,0.0,0.0,0.0,0.0,0.0,0.0,0.0,0.0,0.0,0.0,0.0,0.0,0.0,0.0,0.0,0.0,0.0,0.0,0.0,0.0,0.0,0.0,0.0,0.0,0.0,0.0,0.0,0.0,0.0,0.0,0.0,0.0,0.0,0.0,0.0,0.0,0.0,0.0,0.0,0.0,0.0,0.0,0.0,0.0,0.0,0.0,0.0,0.0,0.0,0.0,0.0,0.0,0.0,0.0,0.0,0.0,0.0,0.0,0.0,0.0,0.0,0.0,0.0,0.0,0.0,0.0,0.0,0.0,0.0,0.0,0.0,0.0,0.0,0.0,0.0,0.0,0.0,0.0,0.0,0.0,0.0,0.0,0.0,0.0,0.0,0.0,0.0,0.0,0.0,0.0,0.0,0.0,0.0,0.0,0.0,0.0,0.0,0.0,0.0,0.0,0.0,0.0,0.0,0.0,0.0,0.0,0.0,0.0,0.0,0.0,0.0,0.0,0.0,0.0,0.0,0.0,0.0,0.0,0.0,0.0,0.0,0.0,0.0,0.0,0.0,0.0,0.0,0.0,0.0,0.0,0.0,0.0,0.0,0.0,0.0,0.0,0.0,0.0,0.0,0.0,0.0,0.0,0.0,0.0,0.0,0.0,0.0,0.0,0.0,0.0,0.0,0.0,0.0,0.0,0.0,0.0,0.0,0.0,0.0,0.0,0.0,0.0,0.0,0.0,0.0,0.0,0.0,0.0,0.0,0.0,0.0,0.0,0.0,0.0,0.0,0.0,0.0,0.0,0.0,0.0,0.0,0.0,0.0,0.0,0.0,0.0,0.0,0.0,0.0,0.0,0.0,0.0,0.0,0.0,0.0,0.0,0.0,0.0,0.0,0.0,0.0,0.0,0.0,0.0,0.0,0.0,0.0,0.0,0.0,0.0,0.0,0.0,0.0,0.0,0.0,0.0,0.0,0.0,0.0,0.0,0.0,0.0,0.0,0.0,0.0,0.0,0.0,0.0,0.0,0.0,0.0,0.0,0.0,0.0,0.0,0.0,0.0,0.0,0.0,0.0,0.0,0.0,0.0,0.0,0.0,0.0,0.0,0.0,0.0,0.0,0.0,0.0,0.0,0.0,0.0,0.0,0.0,0.0,0.0,0.0,0.0,0.0,0.0,0.0,0.0,0.0,0.0,0.0,0.0,0.0,0.0,0.0,0.0,0.0,0.0,0.0,0.0,0.0,0.0,0.0,0.0,0.0,0.0,0.0,0.0,0.0,0.0,0.0,0.0,0.0,0.0,0.0,0.0,0.0,0.0,0.0,0.0,0.0,0.0,0.0,0.0,0.0,0.0,0.0,0.0,0.0,0.0,0.0,0.0,0.0,0.0,0.0,0.0,0.0,0.0,0.0,0.0,0.0,0.0,0.0,0.0,0.0,0.0,0.0,0.0,0.0,0.0,0.0,0.0,0.0,0.0,0.0,0.0,0.0,0.0,0.0,0.0,0.0,0.0,0.0,0.0,0.0,0.0,0.0,0.0,0.0,0.0,0.0,0.0,0.0,0.0,0.0,0.0,0.0,0.0,0.0,0.0,0.0,0.0,0.0,0.0,0.0,0.0,0.0,0.0,0.0,0.0,0.0,0.0,0.0,0.0,0.0,0.0,0.0,0.0,0.0,0.0,0.0,0.0,0.0,0.0,0.0,0.0,0.0,0.0,0.0,0.0,0.0,0.0,0.0,0.0,0.0,0.0,0.0,0.0,0.0,0.0,0.0,0.0,0.0,0.0,0.0,0.0,0.0,0.0,0.0,0.0,0.0,0.0,0.0,0.0,0.0,0.0,0.0,0.0,0.0,0.0,0.0,0.0,0.0,0.0,0.0,0.0,0.0,0.0,0.0,0.0,0.0,0.0,0.0,0.0,0.0,0.0,0.0,0.0,0.0,0.0,0.0,0.0,0.0,0.0,0.0,0.0,0.0,0.0,0.0,0.0,0.0,0.0,0.0,0.0,0.0,0.0,0.0,0.0,0.0,0.0,0.0,0.0,0.0,0.0,0.0,0.0,0.0,0.0,0.0,0.0,0.0,0.0,0.0,0.0,0.0,0.0,0.0,0.0,0.0,0.0,0.0,0.0,0.0,0.0,0.0,0.0,0.0,0.0,0.0,0.0,0.0,0.0,0.0,0.0,0.0,0.0,0.0,0.0,0.0,0.0,0.0,0.0,0.0,0.0,0.0,0.0,0.0,0.0,0.0,0.0,0.0,0.0,0.0,0.0,0.0,0.0,0.0,0.0,0.0,0.0,0.0,0.0,0.0,0.0,0.0,0.0,0.0,0.0,0.0,0.0,0.0,0.0,0.0,0.0,0.0,0.0,0.0,0.0,0.0,0.0,0.0,0.0,0.0,0.0,0.0,0.0,0.0,0.0,0.0,0.0,0.0,0.0,0.0,0.0,0.0,0.0,0.0,0.0,0.0,0.0,0.0,0.0,0.0,0.0,0.0,0.0,0.0,0.0,0.0,0.0,0.0,0.0,0.0,0.0,0.0,0.0,0.0,0.0,0.0,0.0,0.0,0.0,0.0,0.0,0.0,0.0,0.0,0.0,0.0,0.0,0.0,0.0,0.0,0.0,0.0,0.0,0.0,0.0,0.0,0.0,0.0,0.0,0.0,0.0,0.0,0.0,0.0,0.0,0.0,0.0,0.0,0.0,0.0,0.0,0.0,0.0,0.0,0.0,0.0,0.0,0.0,0.0,0.0,0.0,0.0,0.0,0.0,0.0,0.0,0.0,0.0,0.0,0.0,0.0,0.0,0.0,0.0,0.0,0.0,0.0,0.0,0.0,0.0,0.0,0.0,0.0,0.0,0.0,0.0,0.0,0.0,0.0,0.0,0.0,0.0,0.0,0.4801,0.0,0.0,0.0,0.0,0.0,0.0,0.0,0.0,0.0,0.0,0.0,0.0,0.0,0.0,0.0,0.0,0.0,0.0,0.0,0.0,0.0,0.0,0.0,0.0,0.0,0.0,0.0,0.0,0.0,0.0,0.0,0.0,0.0,0.0,0.0,0.0,0.0,0.0,0.0,2.4565,2.4307,2.3988,2.3067,2.1521,1.9479,0.0,0.0,0.0,0.0,0.0,0.0,0.0,0.0,0.0,0.0,0.0,0.0,0.0,0.0,0.0,0.0,0.0,0.0,0.0,0.0,0.0,0.0,0.0,0.0,0.0,0.0,0.0,0.0,0.0,0.0,0.0,0.0,0.0,0.0,0.0,0.0,0.0,0.0,0.0,0.0,0.0,0.0,0.0,0.0,0.0,0.0,0.0,0.0,0.0,0.0,0.0,0.0,0.0,0.0,0.0,0.0,0.0,0.0,0.0,0.0,0.0,0.0,0.0,0.0,0.0,0.0,0.0,0.0,0.0,0.0,0.0,0.4788,0.0,0.0,0.0,0.0,0.0,0.0,0.0,0.0,0.0,0.0,0.0,0.0,0.0,0.0,0.0,0.0,0.0,0.0,0.0,0.0,0.0,0.0,0.0,0.0,0.0,0.0,0.0,0.0,0.0,0.0,0.0,0.0,0.0,0.0,0.0,0.0,0.0,2.7269,2.703,2.701,2.7275,2.7236,2.562,2.2691,2.2171,0.0,0.0,0.0,0.0,0.0,0.0,0.0,0.0,0.0,0.0,0.0,0.0,0.0,0.0,0.0,0.0,0.0,0.0,0.0,0.0,0.0,0.0,0.0,0.0,0.0,0.0,0.0,0.0,0.0,0.0,0.0,0.0,0.0,0.0,0.0,0.0,0.0,0.0,0.0,0.0,0.0,0.0,0.0,0.0,0.0,0.0,0.0,0.0,0.0,0.0,0.0,0.0,0.0,0.0,0.0,0.0,0.0,0.0,0.0,0.0,0.0,0.0,0.0,0.0,0.0,0.7712,0.7587,0.7545,0.7414,0.6492,0.5665,0.4917,0.0,0.0,0.0,0.0,0.0,0.0,0.0,0.0,0.0,0.0,0.0,0.0,0.0,0.0,0.0,0.0,0.0,0.0,0.0,0.0,0.0,0.0,0.0,0.0,0.0,0.0,0.0,0.0,0.0,0.0,0.0,0.0,0.0,0.0,2.9197,2.9203,2.9231,2.946,2.985,3.0298,2.9971,2.9538,2.8973,2.6477,2.5102,2.4542,0.0,0.0,0.0,0.0,0.0,0.0,0.0,0.0,0.0,0.0,0.0,0.0,0.0,0.0,0.0,0.0,0.0,0.0,0.0,0.0,0.0,0.0,0.0,0.0,0.0,0.0,0.0,0.0,0.0,0.0,0.0,0.0,0.0,0.0,0.0,0.0,0.0,0.0,0.0,0.0,0.0,1.0983,1.1104,0.0,0.0,0.0,0.0,0.0,0.0,0.0,0.0,0.0,0.0,0.0,0.0,0.0,0.0,0.7631,0.7957,0.8123,0.8123,0.8289,0.8303,0.8184,0.8211,0.8004,0.7746,0.7601,0.0,0.5949,0.5205,0.0,0.0,0.0,0.0,0.0,0.0,0.0,0.0,0.0,0.0,0.0,0.0,0.0,0.0,0.0,0.0,0.0,0.0,0.0,0.0,0.0,0.0,0.0,0.0,0.0,0.0,0.0,0.0,0.0,0.0,0.0,0.0,3.1185,3.1405,3.1689,3.2071,3.3047,3.3602,3.3712,3.3897,3.3963,3.3881,3.233,3.0091,2.7356,2.6185,0.0,0.0,0.0,0.0,0.0,0.0,0.0,0.0,0.0,0.0,0.0,0.0,0.0,0.0,0.0,0.0,0.0,0.0,0.0,0.0,0.0,0.0,0.0,0.0,0.0,0.0,0.0,0.0,0.0,0.0,0.0,0.0,0.0,0.0,0.0,0.0,0.0,0.0,0.0,1.137,1.1657,1.2045,1.1803,1.1519,0.0,0.0,0.0,0.0,0.0,0.0,0.0,0.0,0.0,0.7776,0.8021,0.8228,0.8442,0.8743,0.8896,0.8896,0.8957,0.891,0.8818,0.8682,0.8479,0.8184,0.8106,0.7691,0.7024,0.616,0.5216,0.4239,0.0,0.0,0.0,0.0,0.0,0.0844,0.0,0.0,0.0,0.0,0.0,0.0,0.0,0.0,0.0,0.0,0.0,0.0,0.0,0.0,0.0,3.8514,0.0,0.0,0.0,0.0,0.0,0.0,0.0,3.3129,3.3129,3.3706,3.4437,3.5224,3.6388,3.7052,3.714,3.7472,3.7544,3.7402,3.701,3.4475,3.0458,2.927,2.7499,0.0,0.0,0.0,0.0,0.0,0.0,0.0,0.0,0.0,0.0,0.0,0.0,0.0,0.0,0.0,0.0,0.0,0.0,0.0,0.0,0.0,0.0,0.0,0.0,0.0,0.0,0.0,0.0,0.0,0.0,0.0,0.0,0.0,0.0,0.0,0.0,0.0,0.0,1.1999,1.2348,1.2945,1.2779,1.257,0.0,0.0,0.0,0.0,0.0,0.0,0.9803,0.9108,0.887,0.9146,0.9161,0.9178,0.9336,0.9501,0.9551,0.9551,0.9476,0.9361,0.9262,0.9022,0.8771,0.8476,0.8333,0.8096,0.7725,0.6973,0.6063,0.5175,0.4657,0.3922,0.0,0.2725,0.2206,0.1576,0.0,0.0,0.0,0.0,0.0,0.0,0.0,0.0,0.0,0.0,0.0,0.0,0.0,0.0,4.0151,4.2232,4.3453,4.3234,0.0,0.0,0.0,0.0,3.5469,3.503,3.5163,3.623,3.74,3.8541,3.8935,3.9618,4.0521,4.0059,3.9551,3.9058,3.9058,3.7189,3.4052,3.2577,3.0716,2.8504,0.0,0.0,0.0,0.0,0.0,0.0,0.0,0.0,0.0,0.0,0.0,0.0,0.0,0.0,0.0,0.0,0.0,0.0,0.0,0.0,0.0,0.0,0.0,0.0,0.0,0.0,0.0,0.0,0.0,0.0,0.0,0.0,0.0,0.0,0.0,0.0,0.0,0.0,0.0,1.3487,1.3547,0.0,0.0,0.0,0.0,1.2958,1.2169,1.1748,1.194,1.1203,1.0769,1.0857,1.0499,1.0386,1.0486,1.0132,0.9953,0.995,0.9734,0.9517,0.9361,0.9069,0.8771,0.8476,0.8333,0.8096,0.7749,0.7392,0.6882,0.6269,0.5713,0.499,0.4162,0.3842,0.3206,0.2483,0.0,0.0,0.0,0.0,0.0,0.0,0.0,0.0,0.0,0.0,0.0,0.0,0.0,3.9991,4.2747,4.4834,4.577,4.539,4.3237,0.0,0.0,0.0,3.6697,3.63,3.7066,3.8608,3.9805,4.068,4.1688,4.2279,4.245,4.2025,4.1689,4.1496,4.1037,3.9845,3.8109,3.5691,3.3208,3.0725,2.858,2.6307,0.0,0.0,0.0,0.0,0.0,0.0,0.0,0.0,0.0,0.0,0.0,0.0,0.0,0.0,0.0,0.0,0.0,0.0,0.0,0.0,0.0,0.0,0.0,0.0,0.0,0.0,0.0,0.0,0.0,0.0,0.0,0.0,0.0,0.0,0.0,0.0,0.0,1.493,1.5005,0.0,0.0,1.5009,1.4869,1.5187,1.4559,1.4269,1.4507,1.3601,1.2903,1.2697,1.1971,1.1444,1.1066,1.0592,1.0184,0.9839,0.9703,0.9479,0.9286,0.9028,0.8771,0.8476,0.8333,0.8153,0.7904,0.7805,0.7378,0.6831,0.6518,0.5965,0.5339,0.5019,0.4369,0.3667,0.0,0.0,0.0,0.0,0.0,0.0,0.0,0.0,0.0,0.0,0.0,3.5514,3.9399,4.2936,4.5754,4.7612,4.8423,4.7781,4.5357,0.0,0.0,0.0,3.8341,3.8194,3.9305,4.0958,4.2169,4.2921,4.3892,4.4328,4.418,4.385,4.3559,4.3259,4.2819,4.2056,4.1077,3.8841,3.6128,3.3194,3.1295,2.8974,2.6494,0.0,0.0,0.0,0.0,0.0,0.0,0.0,0.0,0.0,0.0,0.0,0.0,0.0,0.0,0.0,0.0,0.0,0.0,0.0,0.0,0.0,0.0,0.0,0.0,0.0,0.0,0.0,0.0,0.0,0.0,0.0,0.0,0.0,0.0,0.0,1.5334,1.6194,1.6453,1.6693,1.6994,1.6896,1.6886,1.7212,1.6784,1.658,1.6807,1.5737,1.4858,1.4442,1.3385,1.2473,1.1779,1.1054,1.0403,0.994,0.9685,0.9374,0.9076,0.8876,0.8648,0.8404,0.8255,0.8133,0.7988,0.7988,0.7764,0.7383,0.7148,0.6761,0.6308,0.5999,0.5391,0.4692,0.0,0.0,0.0,0.0,0.0,0.0,0.0,0.0,0.0,0.0,3.4551,3.8133,4.2747,4.6487,4.9196,5.0588,5.129,5.0418,4.7535,4.5291,0.0,4.0602,4.034,4.0798,4.1841,4.331,4.4497,4.5361,4.5554,4.5713,4.5837,4.5625,4.511,4.4359,4.4359,4.3782,4.28,4.199,3.954,3.5971,3.3674,3.163,2.9679,0.0,0.0,0.0,0.0,0.0,0.0,0.0,0.0,0.0,0.0,0.0,0.0,0.0,0.0,0.0,0.0,0.0,0.0,0.0,0.0,0.0,0.0,0.0,0.0,0.0,0.0,0.0,0.0,0.0,0.0,0.0,0.0,0.0,1.559,1.592,1.6517,1.7203,1.7736,1.8169,1.8517,1.8566,1.8671,1.8959,1.8642,1.8538,1.8757,1.7552,1.6659,1.6181,1.4586,1.3412,1.2779,1.16,1.0819,1.0286,0.9686,0.9218,0.892,0.8618,0.8404,0.8313,0.8106,0.7988,0.7988,0.7988,0.7985,0.7955,0.7712,0.737,0.6982,0.6736,0.6235,0.5576,0.0,0.0,0.0,0.0,0.0,0.0,0.0,0.0,0.0,0.0,3.5169,3.9385,4.3789,4.7522,5.005,5.0973,5.0758,4.9288,4.6368,0.0,0.0,4.0161,4.1432,4.2526,4.3311,4.4924,4.6145,4.6972,4.7018,4.6983,4.6887,4.6299,4.5896,4.5642,4.5338,4.4805,4.4158,4.3596,4.2079,3.984,3.7052,3.4754,3.2887,0.0,0.0,0.0,0.0,0.0,0.0,0.0,0.0,0.0,0.0,0.0,0.0,0.0,0.0,0.0,0.0,0.0,0.0,0.0,0.0,0.0,0.0,0.0,0.0,0.0,0.0,0.0,0.0,0.0,0.0,0.0,0.0,1.918,1.7768,1.787,1.8275,1.8762,1.9128,1.9432,1.9726,1.9708,1.9874,2.0166,1.9891,1.97,1.9792,1.8976,1.8126,1.7264,1.5972,1.4747,1.364,1.2388,1.1363,1.0665,0.9878,0.9395,0.9089,0.8676,0.8404,0.8313,0.8106,0.7988,0.7988,0.7988,0.7924,0.7855,0.7672,0.7526,0.7409,0.706,0.6659,0.6071,0.0,0.0,0.0,0.0,0.0,0.0,0.0,0.0,0.0,0.0,3.5685,4.0041,4.4206,4.7918,5.0259,5.0677,5.0059,4.8506,4.5868,0.0,0.0,4.1683,4.3523,4.4918,4.5661,4.7096,4.7954,4.8258,4.8099,4.7822,4.7424,4.6887,4.6624,4.6476,4.621,4.5792,4.531,4.4819,4.3943,4.2702,4.0461,3.7847,3.5173,3.3888,3.2054,3.0046,2.9629,2.8561,2.7268,2.6611,0.0,0.0,0.0,0.0,0.0,0.0,0.0,0.0,0.0,0.0,0.0,0.0,0.0,0.0,0.0,0.0,0.0,0.0,0.0,0.0,0.0,0.0,0.0,0.0,2.1142,2.1616,2.1277,2.0423,1.9964,2.0342,2.0356,2.0463,2.0753,2.0656,2.0675,2.0848,2.0674,2.0559,2.044,1.9752,1.9,1.8234,1.7,1.5856,1.4745,1.3422,1.2284,1.1448,1.0478,0.9779,0.9246,0.8772,0.8416,0.0,0.8029,0.7988,0.7988,0.7988,0.7901,0.0,0.0,0.0,0.0,0.0,0.6763,0.6448,0.0,0.0,0.0,0.0,0.0,0.0,0.0,0.0,0.0,0.0,0.0,4.0155,4.3927,4.7479,4.9593,4.9593,4.8934,4.7631,0.0,0.0,4.376,4.4344,4.6196,4.7605,4.8429,4.9422,4.9767,4.9374,4.8918,4.837,4.7666,4.7424,4.7207,4.6975,4.6975,4.6712,4.6254,4.5821,4.5293,4.4745,4.3491,4.0676,3.7105,3.5884,3.4119,3.2234,3.1807,3.1022,3.0068,2.9428,0.0,0.0,0.0,0.0,0.0,0.0,0.0,0.0,0.0,0.0,0.0,0.0,0.0,0.0,0.0,0.0,0.0,0.0,0.0,0.0,0.0,0.0,0.0,0.0,2.3224,2.4145,2.5219,2.3345,2.182,2.1924,2.1577,2.1382,2.1587,2.1299,2.1109,2.1109,2.1109,2.0969,2.0641,0.0,0.0,0.0,0.0,1.6728,1.5872,1.4598,1.3441,1.2423,1.1287,1.0307,0.9492,0.8991,0.8538,0.8088,0.8088,0.8088,0.8088,0.8038,0.794,0.7773,0.7631,0.7472,0.7272,0.6854,0.6688,0.0,0.0,0.0,0.0,0.0,0.0,0.0,0.0,0.0,0.0,3.1925,3.5667,3.9268,4.2388,4.5026,4.6549,4.6549,4.5872,4.4976,0.0,4.4711,4.5452,4.603,4.8154,4.9523,4.9957,5.0453,5.0611,5.0477,4.9765,4.899,4.8175,4.7752,4.7424,4.7207,4.7207,4.7077,4.6756,4.6491,4.6076,4.5506,4.4652,4.2722,4.0137,3.8157,3.6496,3.5041,3.3821,3.2993,3.2277,3.126,3.0846,3.047,2.88,0.0,0.0,0.0,0.0,0.0,0.0,0.0,0.0,0.0,0.0,0.0,0.0,0.0,0.0,0.0,0.0,0.0,0.0,0.0,0.0,2.3948,2.5294,2.6365,2.7103,2.6186,2.4948,2.3414,2.245,2.186,2.1601,2.1299,2.1109,2.1109,2.1109,2.0875,2.0347,2.0207,0.0,1.892,1.8173,1.7479,1.6736,1.5355,1.4288,1.341,0.0,0.0,1.0086,0.9595,0.9086,0.8627,0.8627,0.8627,0.8627,0.8432,0.8073,0.7628,0.7475,0.7251,0.699,0.6776,0.6624,0.6491,0.0,0.0,0.0,0.0,0.0,0.0,0.0,0.0,0.0,0.0,3.3795,3.6637,3.9242,4.1559,4.2912,4.2895,4.2895,0.0,4.3375,4.5196,4.6705,4.7713,4.9907,5.1142,5.1246,5.1571,5.1533,5.1086,5.0182,4.93,4.8453,4.788,4.751,4.7309,4.7309,4.7207,4.7062,4.6844,4.6609,4.6284,4.5415,4.41,4.2411,4.008,3.8363,3.691,3.5162,3.4149,3.3543,3.2558,3.2039,3.1612,3.0507,2.9603,2.8725,0.0,0.0,0.0,0.0,0.0,0.0,0.0,0.0,0.0,0.0,0.0,0.0,0.0,0.0,2.164,0.0,0.0,2.4826,2.6023,2.7175,2.8148,2.8691,2.8047,2.6816,2.5068,2.3499,2.248,2.2111,2.1481,2.1109,2.1109,2.0975,2.0702,2.0254,2.0094,1.9687,1.8922,1.8415,1.7918,1.7303,1.6174,1.5194,1.4406,1.3153,1.2057,1.1089,1.0593,1.0103,0.9616,0.9616,0.9521,0.9357,0.8795,0.8251,0.7761,0.7531,0.7214,0.6866,0.6756,0.6603,0.6491,0.0,0.0,0.0,0.0,0.0,0.0,0.0,0.0,0.0,0.0,3.1796,3.3926,3.5932,3.799,3.9292,0.0,0.0,4.1651,4.3291,4.5805,4.7885,4.9373,5.1388,5.2404,5.232,5.2481,5.2101,5.1189,5.0247,4.9282,4.8378,4.7767,4.7433,4.7309,4.7309,4.7309,4.7309,4.7062,4.6975,4.6931,4.6076,4.5191,4.4053,4.1617,3.9731,3.8041,3.593,3.4775,3.4159,3.3217,3.2667,3.229,3.1725,3.0884,2.9905,2.8888,2.7657,0.0,0.0,0.0,0.0,0.0,0.0,0.0,0.0,0.0,2.4404,2.3823,2.4074,2.4506,2.4655,2.57,2.6816,2.7754,2.8629,2.9361,2.9939,2.9161,2.8066,2.6686,2.4601,2.3135,2.2762,2.1658,2.0998,2.0998,2.0784,2.0461,2.0167,1.9873,1.9472,1.8945,1.8516,1.8115,1.7657,1.6832,1.6002,1.5253,1.4222,1.3176,1.2124,1.1707,1.1189,1.0703,1.0703,1.0511,1.0186,0.9372,0.8711,0.8171,0.7803,0.7363,0.6951,0.6756,0.6586,0.6453,0.0,0.0,0.0,0.0,0.0,0.0,0.0,0.0,0.0,0.0,0.0,0.0,0.0,0.0,0.0,0.0,3.9039,4.1127,4.3257,4.6769,4.9407,5.0881,5.232,5.3095,5.3061,5.2592,5.1743,5.0525,4.9694,4.8718,4.7711,4.7265,4.7138,4.7309,4.7309,4.7309,4.7309,4.7266,4.7251,4.7222,4.6887,4.6094,4.4938,4.2693,4.0432,3.8227,3.6172,3.4939,3.4027,3.2751,3.2604,3.288,3.2303,3.17,3.1097,3.0507,0.0,2.7102,2.6549,2.5971,2.5703,2.641,2.6569,2.6614,0.0,0.0,2.6846,2.6596,2.6423,2.6336,2.6503,2.6753,2.7344,2.8584,2.9219,2.9807,3.0645,2.963,2.86,2.8182,2.5666,2.3756,2.3102,2.1629,2.0753,2.0753,2.0422,2.0154,1.9867,1.9573,1.9265,1.8931,1.8362,1.8001,1.7935,1.7068,1.6388,1.5796,1.4985,1.4019,1.2969,1.2646,1.2252,1.1829,1.1829,1.1541,1.1014,1.0402,0.968,0.8904,0.8333,0.7752,0.7204,0.684,0.6525,0.632,0.0,0.0,0.0,0.0,0.0,0.0,0.0,0.0,0.0,0.0,0.0,0.0,0.0,0.0,0.0,0.0,3.7787,4.0113,4.3189,4.6397,4.9049,5.0988,5.2202,5.2817,5.2677,5.22,5.1316,5.005,4.9355,4.8357,4.7034,4.7017,4.6909,4.6756,4.713,4.7309,4.7309,4.7309,4.7309,4.7266,4.6902,4.5917,4.4485,4.2537,3.9867,3.6941,3.5076,3.3782,0.0,0.0,3.1185,3.1599,3.1361,3.1122,3.0834,3.0294,2.9013,0.0,2.7115,2.6992,2.7283,0.0,2.8897,2.9372,2.9638,2.9789,2.9725,2.9183,2.8714,2.8354,2.8097,2.8073,2.8301,0.0,2.9287,2.9707,3.0068,2.945,2.8776,2.8249,2.6294,2.4672,2.3738,2.2333,2.1361,2.0939,2.0487,2.0032,1.9566,1.9272,1.8898,1.8368,1.8122,1.7909,1.7776,1.704,1.6531,1.6111,1.5501,1.4787,1.4052,1.3908,1.3667,1.3329,1.3184,1.2716,1.2035,1.1569,1.0719,0.9713,0.9221,0.8592,0.7867,0.7175,0.6725,0.6412,0.0,0.0,0.0,0.0,0.0,0.0,0.0,0.0,0.0,0.0,0.0,0.0,0.0,0.0,0.0,3.471,3.6517,3.8974,4.2385,4.5467,4.8128,5.0308,5.1388,5.1969,5.1967,5.128,5.0343,4.9187,4.8367,4.7341,4.6113,4.6285,4.6207,4.6067,4.6741,4.704,4.7055,4.7234,4.7251,4.7149,4.6564,4.5345,4.3629,4.1711,3.8685,3.5351,3.39,3.2422,0.0,0.0,2.9591,2.9955,3.0066,3.0116,3.0068,2.9679,2.8863,2.8084,2.7996,0.0,0.0,3.0211,3.1194,3.1903,3.2093,3.2316,3.2182,3.1227,3.0493,2.9798,2.9013,2.8695,2.8574,2.8819,2.9068,2.9307,2.9597,2.9143,2.855,2.8015,2.6645,2.5298,2.4317,2.2817,2.1657,2.1021,2.0357,1.9802,1.9304,1.8844,1.8428,1.8009,1.7909,1.7809,1.7589,1.7001,1.6607,1.6406,1.5871,1.5356,1.4927,1.4838,1.4688,1.4496,1.4298,1.3808,1.3076,1.2641,1.1756,1.0667,1.0241,0.9511,0.8656,0.7991,0.7303,0.6673,0.0,0.0,0.0,0.0,0.0,0.0,0.0,0.0,0.0,0.0,0.0,0.0,0.0,0.0,0.0,3.3152,3.5284,3.7701,4.04,4.4014,4.687,4.8776,4.9807,5.0595,5.114,4.9707,4.8525,4.7586,4.6299,4.5432,4.4959,4.475,4.491,4.5349,4.6052,4.6309,4.6354,4.704,4.7164,4.6828,4.6002,4.4484,4.2493,4.0021,3.6894,3.3767,3.3067,0.0,0.0,0.0,2.816,2.8273,2.8775,2.8938,0.0,2.8925,2.8512,2.8348,0.0,0.0,3.0934,3.2566,3.3407,3.3884,3.4222,3.4308,3.3897,3.2382,3.1431,3.0456,2.916,2.8086,2.7736,2.8555,2.849,2.8623,2.9453,2.8629,2.7935,2.7926,2.6607,2.5503,0.0,2.2803,2.1193,2.0664,1.9828,1.9216,1.894,1.8339,1.8009,1.7995,1.7756,1.7595,1.7582,1.7001,1.6707,1.67,1.6064,1.5683,1.5493,1.522,1.5083,1.5083,1.5083,1.4728,1.4114,1.365,1.2878,1.191,1.1413,1.0575,0.955,0.9398,0.8436,0.7111,0.0,0.0,0.0,0.0,0.0,0.0,0.0,0.0,0.0,0.0,0.0,0.0,0.0,0.0,0.0,0.0,3.3372,3.5785,3.8639,4.1506,4.4,4.6077,4.6942,4.7381,4.7453,4.6695,4.579,4.473,4.4174,4.3419,4.2604,4.2688,4.2777,4.2802,4.3755,4.4198,4.42,4.4831,4.5067,4.4879,4.3863,4.2668,4.1142,3.8533,3.5557,3.2608,0.0,0.0,0.0,2.6244,2.6402,2.7077,2.7231,0.0,2.8386,2.8386,2.8511,2.8863,3.003,0.0,3.2641,3.4299,3.5127,3.568,3.6138,3.5273,3.4074,3.304,3.1523,3.0024,2.8934,2.789,2.7317,2.7572,2.7667,2.7865,2.8276,2.8237,2.797,2.7354,2.6714,0.0,0.0,0.0,0.0,2.1511,2.0807,2.0073,1.9229,1.8961,1.8593,1.8021,1.7913,1.7799,1.7582,1.7001,1.6707,1.67,1.6112,1.5778,1.5689,1.5594,1.5547,1.554,1.5397,1.4962,1.4443,1.411,1.3473,1.2684,1.2162,1.1532,1.0835,1.0192,0.9525,0.8856,0.0,0.0,0.0,0.0,0.0,0.0,0.0,0.0,0.0,0.0,0.0,0.0,0.0,0.0,0.0,0.0,0.0,3.4064,3.6564,3.8642,4.0646,4.2606,4.3266,4.3588,4.3675,4.2906,4.2129,4.141,4.1129,4.0599,3.9876,4.0259,4.0334,4.0236,4.1108,4.1662,4.1908,4.2503,4.2809,4.274,4.1582,4.0337,3.8908,3.6239,3.3591,0.0,0.0,0.0,0.0,2.5619,2.5611,2.6009,2.66,2.7507,2.8436,2.8649,2.9227,3.0093,3.1424,3.2855,3.4261,3.5516,3.6245,3.6694,3.6609,3.5424,3.4013,3.2835,3.1117,2.9466,2.8266,2.7262,2.6667,2.6807,2.7042,2.7307,2.764,2.79,2.7871,2.7314,2.6956,0.0,0.0,0.0,0.0,2.2374,2.156,2.0734,1.9896,1.9579,1.9115,1.8496,1.8279,1.7962,1.7592,1.6998,1.66,1.6386,1.6005,1.5784,1.5784,1.5784,1.5772,1.5665,1.5478,1.5073,1.4561,1.4377,1.3911,1.3281,1.2837,1.2319,1.177,1.1026,1.0538,1.0024,0.0,0.0,0.0,0.0,0.0,0.0,0.0,0.0,0.0,0.0,0.0,0.0,0.0,0.0,0.0,0.0,0.0,0.0,3.4085,3.5482,3.6953,3.851,3.8912,3.9321,3.9801,3.8437,3.7721,3.7706,3.7287,3.7027,3.6873,3.7362,3.7575,3.7519,3.8097,3.8674,3.9276,3.9963,4.0359,4.0351,3.8976,3.7524,3.5912,3.3207,0.0,0.0,0.0,0.0,0.0,0.0,0.0,0.0,2.6892,2.816,2.9126,2.9741,3.0696,3.1913,3.3545,3.4813,3.5759,3.6367,3.6857,3.6897,3.5746,3.4811,3.3677,3.1841,3.0272,2.8759,0.0,0.0,2.583,2.6253,2.6466,2.6893,2.7523,2.7708,2.7738,0.0,0.0,0.0,0.0,0.0,0.0,2.3243,0.0,2.1334,2.1011,2.0256,1.9695,1.9383,1.8795,1.8178,1.763,1.7049,1.6393,1.5825,1.5825,1.5832,1.5784,1.5784,1.5671,1.5398,1.5384,1.505,1.4522,1.4502,1.4157,1.3704,1.3404,1.2922,1.2295,1.1924,1.1417,1.0663,0.0,0.0,0.0,0.0,0.0,0.0,0.0,0.0,0.0,0.0,0.0,0.0,0.0,0.0,0.0,0.0,0.0,0.0,3.1358,3.2312,3.3265,3.4243,3.4463,3.4579,3.4614,3.4108,3.3773,3.3692,3.3327,3.3334,3.3673,3.2877,3.2708,3.3123,3.3399,3.3632,3.3878,3.536,3.6019,3.594,0.0,3.4246,3.345,0.0,0.0,0.0,0.0,0.0,0.0,0.0,0.0,0.0,0.0,2.9892,3.0871,3.1436,3.2679,3.406,3.4856,3.6185,3.7412,3.755,3.7374,3.6897,3.5746,3.3938,3.2134,3.0852,2.9346,2.7893,0.0,0.0,0.0,2.5141,2.5486,0.0,2.6643,2.7529,0.0,2.7757,0.0,2.7715,2.6968,2.6644,0.0,0.0,2.4654,2.3643,2.2646,2.2225,2.143,2.0241,1.9672,1.9008,1.8193,1.7336,1.6635,1.6076,1.6076,1.5981,1.5784,1.5784,1.5671,1.5384,1.517,1.4863,1.4502,1.4282,1.4113,1.3951,1.3439,1.3114,1.291,1.2195,1.1845,1.1595,0.0,0.0,0.0,0.0,0.0,0.0,0.0,0.0,0.0,0.0,0.0,0.0,0.0,0.0,0.0,0.0,0.0,0.0,0.0,2.9635,3.0153,3.0748,3.0702,3.0619,3.0544,3.019,2.9942,2.9879,2.9798,2.9877,3.0064,2.9358,2.92,2.945,2.9568,2.9744,3.009,3.1572,0.0,0.0,0.0,0.0,0.0,0.0,0.0,0.0,0.0,0.0,0.0,0.0,0.0,2.8988,3.0407,3.1775,3.2955,3.3464,0.0,3.5918,3.6423,3.7487,3.8329,3.8065,3.7412,3.6408,3.4826,3.2669,3.0623,2.9262,2.7804,0.0,0.0,0.0,0.0,0.0,0.0,0.0,2.6438,2.7542,2.8271,0.0,2.8428,0.0,2.79,2.7519,2.736,0.0,2.6111,2.4997,2.4146,2.3607,2.2707,2.1412,2.0546,1.9585,1.8471,1.7708,1.7082,1.6683,1.6595,1.6359,1.5981,1.5981,1.5698,1.5197,0.0,1.4723,1.4315,1.4155,1.4088,1.4028,1.344,1.3213,1.3094,1.2412,1.212,1.2114,0.0,0.0,0.0,0.0,0.0,0.0,0.0,0.0,0.0,0.0,0.0,0.0,0.0,0.0,0.0,0.0,0.0,0.0,0.0,0.0,0.0,2.7798,2.751,2.7293,2.7234,2.6733,2.6434,0.0,0.0,0.0,0.0,0.0,0.0,0.0,0.0,0.0,0.0,0.0,0.0,0.0,0.0,0.0,0.0,0.0,0.0,0.0,0.0,0.0,0.0,0.0,2.9753,3.0934,3.2164,3.3646,3.5064,3.5646,3.6596,3.7513,3.799,3.8542,3.8818,3.8165,3.7123,3.5713,3.347,3.1198,2.9114,2.7542,0.0,2.511,2.4774,2.4331,2.4178,2.4589,0.0,2.5543,2.6367,2.7481,2.8335,2.8701,2.8848,2.8896,2.8838,2.8506,2.8271,2.8213,2.6874,2.5862,2.5408,2.471,2.3713,2.2508,2.128,2.0037,1.8726,1.8185,1.7785,1.7512,1.7293,1.6925,1.6407,1.6359,1.5936,1.5187,0.0,0.0,1.4215,1.4215,1.4215,1.4063,1.3474,1.3206,1.314,1.2525,1.2305,1.2305,0.0,0.0,0.0,0.0,0.0,0.0,0.0,0.0,0.0,0.0,0.0,0.0,0.0,0.0,0.0,0.0,0.0,0.0,0.0,0.0,0.0,0.0,2.5047,2.4728,2.4334,0.0,0.0,0.0,0.0,0.0,0.0,0.0,0.0,0.0,0.0,0.0,0.0,0.0,0.0,0.0,0.0,0.0,0.0,0.0,0.0,0.0,0.0,0.0,0.0,0.0,3.0357,3.1612,3.3646,3.5115,3.6317,3.7287,3.8052,3.8655,3.8743,3.9132,3.9295,3.8266,3.6835,3.5056,3.2867,3.0306,0.0,0.0,2.5691,2.4718,2.4213,2.4166,2.4001,2.3477,0.0,0.0,0.0,0.0,2.7661,0.0,0.0,0.0,0.0,0.0,0.0,0.0,0.0,0.0,2.6404,2.6017,2.473,2.2418,2.1083,2.0206,1.9753,1.9388,1.898,1.8565,1.8295,1.7924,1.7419,1.7192,1.6752,1.6146,0.0,0.0,1.4922,1.4922,1.4706,1.4295,1.3695,1.3351,1.314,1.2525,1.2305,1.2305,0.0,0.0,0.0,0.0,0.0,0.0,0.0,0.0,0.0,0.0,0.0,0.0,0.0,0.0,0.0,0.0,0.0,0.0,0.0,0.0,0.0,0.0,0.0,0.0,0.0,0.0,0.0,0.0,0.0,0.0,0.0,0.0,0.0,0.0,0.0,0.0,0.0,0.0,0.0,0.0,0.0,0.0,0.0,0.0,0.0,0.0,0.0,0.0,0.0,0.0,3.008,3.1474,3.4229,3.5717,3.6681,3.804,3.8655,3.8931,3.922,3.9496,3.9421,3.8278,3.6558,3.4492,3.229,0.0,0.0,0.0,2.472,2.3904,2.384,0.0,0.0,0.0,0.0,0.0,0.0,0.0,0.0,0.0,0.0,0.0,0.0,0.0,0.0,0.0,0.0,0.0,2.6517,2.5703,2.4485,2.2883,2.1866,2.1246,2.087,2.0633,2.0257,1.9712,1.9492,1.8988,1.828,1.7926,1.7402,1.6749,0.0,0.0,1.5616,1.545,1.5284,1.5004,1.4261,1.3902,1.3754,1.3168,1.2936,1.29,0.0,0.0,0.0,0.0,0.0,0.0,0.0,0.0,2.3381,2.5284,2.5734,2.5943,2.6039,2.6048,0.0,0.0,0.0,0.0,0.0,0.0,0.0,0.0,0.0,0.0,0.0,0.0,0.0,0.0,0.0,0.0,0.0,0.0,0.0,0.0,0.0,0.0,0.0,0.0,0.0,0.0,0.0,0.0,0.0,0.0,0.0,0.0,0.0,0.0,0.0,0.0,2.9377,3.0746,3.3552,3.519,3.6367,3.7889,3.8504,3.8806,3.9371,3.9597,3.9421,3.8278,3.6345,3.4135,3.1901,2.8875,0.0,0.0,2.3885,2.3185,2.3468,0.0,2.3209,0.0,0.0,0.0,0.0,0.0,0.0,0.0,0.0,0.0,0.0,0.0,0.0,0.0,0.0,0.0,0.0,2.4986,2.3994,2.3317,2.2676,2.2179,2.1874,2.1678,2.1401,2.0907,2.069,2.0175,1.933,1.8889,1.831,1.7652,0.0,0.0,0.0,1.6296,1.606,1.5733,1.4986,1.4562,1.4352,1.3815,1.3637,1.3601,0.0,0.0,0.0,0.0,0.0,0.0,0.0,0.0,2.2025,2.3837,2.492,2.5559,2.5574,2.5554,0.0,0.0,0.0,0.0,0.0,0.0,0.0,0.0,0.0,0.0,0.0,0.0,0.0,0.0,0.0,0.0,0.0,0.0,0.0,0.0,0.0,0.0,0.0,0.0,0.0,0.0,0.0,0.0,0.0,0.0,0.0,0.0,0.0,0.0,0.0,0.0,0.0,2.9276,3.0645,3.2817,3.5102,3.6282,0.0,0.0,3.8793,3.932,3.9421,3.8278,3.6345,3.4135,3.1901,0.0,0.0,2.5046,2.3885,2.306,2.2971,2.3195,2.3203,0.0,0.0,2.4097,0.0,0.0,0.0,0.0,0.0,0.0,0.0,0.0,0.0,0.0,0.0,0.0,0.0,2.4725,2.3873,2.3396,2.2751,2.2391,2.2353,2.2299,2.2176,2.1963,2.1713,2.1436,2.1159,2.0448,1.9878,1.9536,0.0,0.0,0.0,1.7796,1.712,1.6134,1.5747,1.5141,1.4441,1.4158,1.4021,1.4021,0.0,0.0,0.0,0.0,0.0,0.0,0.0,1.9763,2.1318,2.285,2.3431,2.3787,2.4038,2.3807,0.0,0.0,0.0,0.0,0.0,0.0,0.0,0.0,0.0,0.0,0.0,0.0,0.0,0.0,0.0,0.0,0.0,0.0,0.0,0.0,0.0,0.0,0.0,0.0,0.0,0.0,0.0,0.0,0.0,0.0,0.0,0.0,0.0,0.0,0.0,0.0,0.0,0.0,2.8461,2.9817,0.0,0.0,3.5441,3.6295,3.7525,3.8266,3.8417,3.7312,3.5378,3.3156,3.0934,0.0,2.5636,2.4556,2.3659,2.3078,2.3017,2.3052,2.3114,0.0,0.0,0.0,0.0,0.0,0.0,0.0,0.0,0.0,0.0,0.0,0.0,0.0,0.0,0.0,0.0,2.4137,2.3829,2.3654,2.3104,2.2828,2.2828,2.2828,2.2706,2.253,2.2186,2.1802,2.1381,2.0601,2.0092,1.9837,0.0,0.0,0.0,1.8665,1.8158,1.7424,1.6953,1.6421,1.5858,1.5526,1.5428,1.5401,0.0,0.0,0.0,0.0,0.0,0.0,1.712,1.8733,2.027,2.1568,2.2089,2.2433,2.2713,2.2685,2.2676,2.2822,0.0,0.0,0.0,0.0,0.0,0.0,0.0,0.0,0.0,0.0,0.0,0.0,0.0,0.0,0.0,0.0,0.0,0.0,0.0,0.0,0.0,0.0,0.0,0.0,0.0,0.0,0.0,0.0,0.0,0.0,0.0,0.0,0.0,0.0,0.0,0.0,0.0,0.0,0.0,0.0,3.3169,3.4311,3.5805,3.6621,3.6847,3.6094,3.4223,3.2051,0.0,0.0,2.5297,2.4217,2.3509,2.3108,2.3108,2.3017,2.3083,0.0,0.0,2.434,0.0,0.0,0.0,0.0,0.0,0.0,0.0,0.0,0.0,0.0,0.0,0.0,0.0,2.3662,2.3594,2.3594,2.3257,2.3091,2.3091,2.3091,2.2945,2.2698,2.2409,2.2026,2.1532,2.0816,2.0414,0.0,0.0,0.0,0.0,1.93,1.8859,1.8296,1.7775,1.726,1.6804,1.6562,1.649,1.6446,0.0,0.0,0.0,0.0,0.0,0.0,0.0,0.0,1.8623,1.9781,2.1094,2.1901,2.1911,2.2694,2.2721,0.0,0.0,0.0,0.0,0.0,0.0,0.0,0.0,0.0,0.0,0.0,0.0,1.9314,1.9314,0.0,0.0,0.0,0.0,0.0,0.0,0.0,0.0,0.0,0.0,0.0,0.0,0.0,0.0,0.0,0.0,0.0,0.0,0.0,0.0,0.0,0.0,0.0,0.0,0.0,0.0,0.0,3.0532,3.2491,3.3621,3.4336,3.4705,3.4738,3.3056,3.0972,0.0,2.7205,2.5297,2.4217,2.3509,2.3108,2.3108,2.3108,2.3235,2.3629,2.3983,0.0,0.0,0.0,0.0,0.0,0.0,0.0,0.0,0.0,0.0,0.0,0.0,0.0,0.0,0.0,2.3101,2.3101,2.3091,2.3091,2.3091,2.3091,2.2886,2.2519,2.2519,2.2295,2.1875,2.1395,0.0,0.0,0.0,0.0,0.0,1.9812,1.9117,1.8369,1.7968,1.7417,1.6908,1.6908,1.6908,1.6853,0.0,0.0,0.0,0.0,0.0,0.0,0.0,0.0,1.6833,1.8381,1.9198,1.9866,0.0,0.0,0.0,0.0,0.0,0.0,0.0,0.0,0.0,0.0,0.0,0.0,0.0,0.0,1.903,1.9717,1.9717,1.9717,1.9717,0.0,0.0,0.0,0.0,0.0,0.0,0.0,0.0,0.0,0.0,0.0,0.0,0.0,0.0,0.0,0.0,0.0,0.0,0.0,0.0,0.0,0.0,0.0,0.0,2.541,2.7381,0.0,3.0783,3.175,3.2365,3.2001,3.052,2.8812,2.7532,2.5824,2.4293,2.3521,2.3233,2.3108,2.3108,2.3108,2.3128,2.3285,2.3927,0.0,0.0,0.0,0.0,0.0,0.0,0.0,0.0,0.0,0.0,0.0,0.0,0.0,0.0,0.0,2.3624,2.3135,2.3091,2.3091,2.3091,2.2808,2.2646,2.251,2.1882,2.1522,2.1426,2.0977,0.0,0.0,0.0,0.0,0.0,1.9867,1.9308,1.8507,1.8408,1.8065,1.7666,1.7666,1.7666,1.7565,0.0,0.0,0.0,0.0,0.0,0.0,0.0,0.0,1.5601,1.6789,1.7721,1.8592,0.0,0.0,0.0,0.0,0.0,0.0,0.0,0.0,0.0,0.0,0.0,0.0,0.0,1.9277,1.9707,2.0372,2.0576,2.0576,2.0372,2.0372,2.0098,0.0,0.0,0.0,0.0,0.0,0.0,0.0,0.0,0.0,2.6499,0.0,0.0,0.0,0.0,0.0,0.0,0.0,0.0,0.0,0.0,0.0,0.0,0.0,2.5046,2.6841,0.0,2.9064,2.9541,2.939,2.8247,0.0,0.0,2.4883,2.3841,2.3221,2.3108,2.3108,2.3108,2.3108,2.317,2.3396,2.4091,0.0,0.0,0.0,0.0,0.0,0.0,0.0,0.0,0.0,0.0,0.0,0.0,0.0,0.0,0.0,2.4233,2.3483,2.3236,2.3116,2.304,2.2692,2.2355,2.2105,2.1646,2.1302,2.1056,0.0,0.0,0.0,0.0,0.0,0.0,1.9502,1.9085,1.8588,1.8422,1.8208,1.8008,1.8008,1.791,1.7681,0.0,0.0,0.0,0.0,0.0,0.0,0.0,0.0,0.0,0.0,0.0,0.0,0.0,0.0,0.0,0.0,0.0,0.0,0.0,0.0,0.0,0.0,0.0,0.0,0.0,2.038,2.0781,2.119,2.167,2.168,2.1239,2.1239,2.0791,2.001,2.001,0.0,0.0,0.0,0.0,0.0,0.0,0.0,0.0,0.0,0.0,0.0,0.0,0.0,0.0,0.0,0.0,0.0,0.0,0.0,0.0,0.0,0.0,0.0,0.0,2.6311,0.0,0.0,0.0,0.0,2.4838,2.433,0.0,2.3221,2.3108,2.3108,2.3108,2.3108,2.3283,2.3853,2.4431,0.0,0.0,0.0,0.0,0.0,0.0,0.0,0.0,0.0,0.0,0.0,0.0,0.0,0.0,0.0,0.0,2.4177,2.3597,2.3158,2.2904,2.2621,2.219,2.158,2.17,2.146,2.0885,0.0,0.0,0.0,0.0,0.0,0.0,1.8763,1.8588,1.852,1.8164,1.8008,1.8008,1.8008,1.7744,1.7314,0.0,0.0,0.0,0.0,0.0,0.0,0.0,0.0,0.0,0.0,0.0,0.0,0.0,0.0,0.0,0.0,0.0,0.0,0.0,0.0,0.0,0.0,0.0,0.0,0.0,2.038,2.0781,2.119,2.167,2.1836,2.1738,2.1738,2.1445,2.0888,2.0888,0.0,0.0,0.0,0.0,0.0,0.0,0.0,0.0,0.0,0.0,0.0,2.5209,2.5209,0.0,0.0,0.0,0.0,0.0,0.0,0.0,0.0,2.3195,2.3396,2.3772,0.0,2.5234,2.5372,2.4883,2.4343,0.0,2.3722,2.3271,2.3133,2.3108,2.3108,2.3108,2.3108,2.3145,2.3283,2.4148,0.0,0.0,0.0,0.0,0.0,0.0,0.0,0.0,0.0,0.0,0.0,0.0,0.0,0.0,0.0,0.0,2.4733,2.4274,2.3723,2.3084,2.2623,2.2336,2.2195,2.1935,2.1458,2.0794,0.0,0.0,0.0,0.0,0.0,1.8754,1.8646,1.8412,1.8144,1.8047,1.8008,1.8008,1.8008,1.7744,1.7314,0.0,0.0,0.0,0.0,0.0,0.0,0.0,0.0,0.0,0.0,0.0,0.0,0.0,0.0,0.0,0.0,0.0,0.0,0.0,0.0,0.0,0.0,0.0,0.0,2.0215,2.084,2.1289,2.1533,2.2158,2.2363,2.2168,2.2168,2.1943,2.1523,2.1479,0.0,0.0,0.0,0.0,0.0,2.5049,0.0,0.0,0.0,0.0,0.0,2.4788,2.4788,0.0,2.4531,2.4243,2.3954,0.0,0.0,0.0,0.0,2.3108,2.3108,2.3108,2.3547,2.401,2.401,2.3797,2.3602,2.3602,2.3133,2.2732,2.2732,0.0,0.0,0.0,0.0,0.0,0.0,0.0,0.0,0.0,0.0,0.0,0.0,0.0,0.0,0.0,0.0,0.0,0.0,0.0,0.0,0.0,0.0,0.0,0.0,2.511,2.4455,2.3409,2.3086,2.2851,2.2649,2.2296,2.1861,2.1314,0.0,0.0,0.0,0.0,0.0,1.8685,1.8685,1.8522,1.8245,1.8337,1.8381,1.8371,1.8472,1.8094,1.748,0.0,0.0,0.0,0.0,0.0,0.0,0.0,0.0,0.0,0.0,0.0,0.0,0.0,0.0,0.0,0.0,0.0,0.0,0.0,0.0,0.0,0.0,0.0,2.1055,2.0713,2.1505,2.1885,2.1885,2.2734,2.2916,2.2607,2.2607,2.2344,2.1906,2.1819,2.192,0.0,0.0,0.0,0.0,2.4935,0.0,0.0,0.0,0.0,0.0,0.0,0.0,0.0,2.3803,2.3615,2.3527,2.3007,0.0,0.0,0.0,0.0,0.0,2.2957,2.2982,2.2995,2.3083,2.3108,2.3108,2.3108,0.0,0.0,0.0,0.0,0.0,0.0,2.2794,0.0,0.0,0.0,0.0,0.0,0.0,0.0,0.0,0.0,0.0,0.0,0.0,0.0,0.0,0.0,0.0,0.0,0.0,0.0,0.0,2.5756,2.5112,2.3882,2.373,2.347,2.3128,2.2739,2.2355,2.1958,2.0911,0.0,0.0,0.0,0.0,1.8795,1.8734,1.8604,1.8448,1.8708,1.8806,1.8839,1.9077,1.8582,1.7739,0.0,0.0,0.0,0.0,0.0,0.0,0.0,0.0,0.0,0.0,0.0,0.0,0.0,0.0,0.0,0.0,0.0,0.0,0.0,0.0,0.0,0.0,2.1508,2.1161,2.1093,2.1631,2.1885,2.1885,2.2734,2.3062,2.3003,2.3003,2.2627,2.1906,2.1819,2.192,2.2187,2.3187,2.3889,2.4303,2.4329,0.0,0.0,0.0,0.0,0.0,0.0,0.0,0.0,2.2058,2.187,2.1857,2.1769,0.0,0.0,0.0,0.0,0.0,2.2309,2.2406,2.2518,2.2995,2.3108,2.3108,2.3108,2.3045,0.0,0.0,0.0,0.0,0.0,0.0,0.0,0.0,0.0,0.0,0.0,0.0,0.0,0.0,0.0,0.0,0.0,0.0,0.0,0.0,0.0,0.0,0.0,0.0,0.0,0.0,0.0,2.5024,2.4632,2.4108,2.3816,2.3746,2.3075,2.2457,2.1878,2.1275,2.0643,0.0,0.0,1.8828,1.8764,1.8385,1.8207,1.8207,1.8638,1.8796,1.887,1.9347,1.8935,1.7982,0.0,0.0,0.0,0.0,0.0,0.0,0.0,0.0,0.0,0.0,0.0,0.0,0.0,0.0,0.0,0.0,0.0,0.0,0.0,0.0,0.0,2.2515,2.1916,2.1582,2.1582,2.2002,2.2217,2.2217,2.2789,2.3091,2.3091,2.3091,2.2685,2.1916,2.223,2.2263,2.2176,2.3398,2.4046,2.4218,0.0,0.0,0.0,0.0,0.0,0.0,0.0,0.0,0.0,0.0,2.1493,2.1521,2.1592,0.0,0.0,0.0,0.0,0.0,2.2117,2.2426,2.2748,2.3061,2.3208,2.3271,2.3271,2.3149,0.0,0.0,0.0,0.0,0.0,0.0,0.0,0.0,0.0,0.0,0.0,0.0,0.0,0.0,0.0,0.0,0.0,0.0,0.0,0.0,0.0,0.0,0.0,0.0,0.0,0.0,0.0,0.0,2.4789,2.4251,2.3941,2.3951,2.3337,2.2793,2.2427,2.18,2.1161,0.0,0.0,1.9613,1.9155,1.8945,1.8756,1.8627,1.9028,1.9177,1.9196,1.9357,1.9056,1.8408,0.0,0.0,0.0,0.0,0.0,0.0,0.0,0.0,0.0,0.0,0.0,0.0,0.0,0.0,0.0,0.0,0.0,0.0,0.0,0.0,2.1859,2.2399,2.21,2.1934,2.2031,2.2246,2.2412,2.251,2.2886,2.3091,2.3091,2.3091,2.2685,2.1926,2.2523,2.2577,2.2241,2.3484,2.4038,2.4108,0.0,0.0,0.0,0.0,0.0,0.0,0.0,0.0,0.0,0.0,0.0,0.0,0.0,0.0,0.0,2.154,2.1621,2.17,2.1964,2.2369,2.2815,2.3201,2.3425,2.3595,2.3782,2.3651,0.0,0.0,0.0,0.0,0.0,0.0,0.0,0.0,0.0,0.0,0.0,0.0,0.0,0.0,0.0,0.0,0.0,0.0,0.0,0.0,0.0,0.0,0.0,0.0,0.0,0.0,0.0,0.0,2.4399,2.3879,2.3754,2.3994,2.3411,2.306,2.2877,2.2166,2.1515,2.0972,2.0683,2.0176,1.9552,1.9437,1.9235,1.9032,1.939,1.9633,1.972,1.9467,1.9228,1.895,0.0,0.0,0.0,0.0,0.0,0.0,0.0,0.0,0.0,0.0,0.0,0.0,0.0,0.0,0.0,0.0,0.0,0.0,0.0,0.0,2.088,2.1309,2.1697,2.207,2.2461,2.2119,2.2119,2.251,2.2886,2.3091,2.3091,2.3091,2.2685,2.1926,2.2523,2.2656,2.2408,2.3089,2.3513,2.3737,2.3735,0.0,0.0,0.0,0.0,0.0,0.0,0.0,0.0,0.0,0.0,0.0,0.0,0.0,2.0348,2.0614,2.0777,2.1021,2.1651,2.1862,2.2154,2.3295,2.38,2.4233,2.4906,2.5057,0.0,2.5988,0.0,0.0,0.0,0.0,0.0,0.0,0.0,0.0,0.0,0.0,0.0,0.0,0.0,0.0,0.0,0.0,0.0,0.0,0.0,0.0,0.0,0.0,0.0,0.0,0.0,0.0,2.3233,2.2681,2.2945,2.3992,2.3262,2.291,2.2855,2.2012,2.1595,2.1468,2.0298,1.9745,1.9646,1.9219,1.9015,1.9036,1.9502,1.9976,2.037,1.9865,1.9662,1.9562,0.0,0.0,0.0,0.0,0.0,0.0,0.0,0.0,0.0,0.0,0.0,0.0,0.0,0.0,0.0,0.0,0.0,0.0,0.0,0.0,2.0112,2.1163,2.1366,2.168,2.2119,2.2217,2.2353,2.251,2.2886,2.3091,2.3091,2.3091,2.2728,2.2122,2.2727,2.2932,2.282,2.3426,2.3764,2.3899,2.3889,2.3578,0.0,0.0,0.0,0.0,0.0,0.0,0.0,0.0,1.9145,1.9028,0.0,0.0,1.9643,2.0332,2.0348,2.0313,2.1178,2.1701,2.2341,2.3733,2.4469,0.0,0.0,2.6235,2.6901,2.7223,2.7581,0.0,0.0,0.0,0.0,0.0,0.0,0.0,0.0,0.0,0.0,0.0,0.0,0.0,0.0,0.0,0.0,0.0,0.0,0.0,0.0,0.0,0.0,0.0,0.0,0.0,0.0,2.1895,2.2008,2.2435,2.2163,2.2034,2.2022,2.1695,2.1365,2.1017,2.0528,2.0064,1.9625,1.9456,1.933,1.9275,1.955,1.9826,2.0027,1.9844,1.9717,1.9613,0.0,0.0,0.0,0.0,0.0,0.0,0.0,0.0,0.0,0.0,0.0,0.0,0.0,0.0,0.0,0.0,0.0,0.0,0.0,1.7987,1.918,2.0485,2.0689,2.1025,2.1465,2.1894,2.2178,2.2314,2.2607,2.2812,2.2896,2.2846,2.2601,2.2236,2.2807,2.2935,2.2776,2.3467,2.3752,2.3754,2.3723,2.3389,0.0,0.0,0.0,0.0,0.0,0.0,0.0,0.0,1.8649,0.0,0.0,0.0,0.0,0.0,2.0213,2.019,2.1157,2.1719,2.2436,2.4118,0.0,0.0,2.6638,2.744,2.8124,2.858,2.8913,0.0,0.0,0.0,0.0,0.0,0.0,0.0,0.0,0.0,0.0,0.0,0.0,0.0,0.0,0.0,0.0,0.0,0.0,0.0,0.0,0.0,0.0,0.0,0.0,0.0,0.0,2.1257,2.1142,2.0953,2.0953,2.1142,2.1481,2.1333,2.1043,2.0679,2.0503,2.0122,1.9656,1.9656,1.9617,1.9539,1.963,1.9734,1.9798,1.9798,1.9734,1.9656,0.0,0.0,0.0,0.0,0.0,0.0,0.0,0.0,0.0,0.0,0.0,0.0,0.0,0.0,0.0,0.0,0.0,0.0,0.0,1.6624,1.7965,1.9041,1.962,2.0117,2.0586,2.0996,2.1445,2.1885,2.1885,2.21,2.25,2.2278,2.2205,2.2216,2.2745,2.2713,2.2248,2.3051,2.3314,2.3194,2.3107,2.2769,2.2309,0.0,0.0,0.0,0.0,0.0,0.0,0.0,1.8437,1.8565,0.0,0.0,0.0,0.0,2.0444,2.079,2.1636,2.1888,2.2352,2.4317,0.0,0.0,2.845,2.8665,2.8828,3.0321,0.0,0.0,0.0,0.0,0.0,0.0,0.0,0.0,0.0,0.0,0.0,0.0,0.0,0.0,0.0,0.0,0.0,0.0,0.0,0.0,0.0,0.0,0.0,0.0,0.0,0.0,0.0,2.0679,2.039,1.9786,1.9786,2.0388,2.1455,2.093,2.0679,2.0654,2.0049,1.9798,1.9798,1.9798,1.9798,1.9798,1.9798,1.9798,1.9798,1.9798,1.9798,1.9798,0.0,0.0,0.0,0.0,0.0,0.0,0.0,0.0,0.0,0.0,0.0,0.0,0.0,0.0,0.0,0.0,0.0,0.0,0.0,1.643,1.7568,1.8574,1.9456,1.9971,2.0098,2.0537,2.1133,2.1885,2.1885,2.2026,2.2269,2.2223,2.223,2.2349,2.2482,2.261,2.2822,2.243,2.2719,2.3334,2.2376,2.2121,2.2234,0.0,0.0,0.0,0.0,0.0,0.0,0.0,0.0,0.0,0.0,0.0,0.0,1.9727,1.9823,1.9856,2.0681,2.127,0.0,2.4147,0.0,0.0,0.0,2.9933,0.0,0.0,0.0,0.0,0.0,0.0,0.0,0.0,0.0,0.0,0.0,0.0,0.0,0.0,0.0,0.0,0.0,0.0,0.0,0.0,0.0,0.0,0.0,0.0,0.0,0.0,0.0,0.0,0.0,0.0,1.9581,1.8886,1.9329,1.9788,2.03,2.0137,2.0062,2.0049,1.9874,1.9798,1.9798,1.9798,1.9798,1.9798,1.9798,1.9798,1.9798,1.9798,1.9798,1.9798,0.0,0.0,0.0,0.0,0.0,0.0,0.0,0.0,0.0,0.0,0.0,0.0,0.0,0.0,0.0,0.0,0.0,0.0,0.0,0.0,1.6768,1.7785,1.8942,1.9749,2.0166,2.0468,2.0869,2.1357,2.1357,2.1567,2.1937,2.192,2.2098,2.24,2.2386,2.2418,2.2434,2.2069,2.2163,2.2462,2.1781,2.1556,2.1556,0.0,0.0,0.0,0.0,0.0,0.0,0.0,0.0,0.0,1.8234,0.0,0.0,1.9435,1.9539,1.9657,2.0697,2.1461,0.0,2.4477,2.6213,2.7904,2.9894,0.0,0.0,0.0,0.0,0.0,0.0,0.0,0.0,0.0,0.0,0.0,0.0,0.0,0.0,0.0,0.0,0.0,0.0,0.0,0.0,0.0,0.0,0.0,0.0,0.0,0.0,0.0,0.0,0.0,0.0,0.0,0.0,1.8776,1.9136,1.9378,1.948,1.9813,1.9965,1.9952,1.9725,1.9636,1.9611,1.9371,1.9282,1.9282,1.9282,1.9282,1.9308,1.956,1.9611,1.9598,0.0,0.0,0.0,0.0,0.0,0.0,0.0,0.0,0.0,0.0,0.0,0.0,0.0,0.0,0.0,0.0,0.0,0.0,0.0,0.0,1.5787,1.6886,1.8273,1.9511,2.0586,2.0605,2.0586,2.0546,2.0546,2.085,2.1471,2.1462,2.1771,2.2343,2.2356,2.2054,2.1515,2.1733,2.1492,2.0945,2.1131,2.0955,2.0478,1.9874,0.0,0.0,0.0,0.0,0.0,0.0,0.0,0.0,1.8127,1.8553,1.8898,1.9302,1.952,1.9897,2.1241,0.0,0.0,2.5031,2.7066,0.0,0.0,0.0,0.0,0.0,0.0,0.0,0.0,0.0,0.0,0.0,0.0,0.0,0.0,0.0,0.0,0.0,0.0,0.0,0.0,0.0,0.0,0.0,0.0,0.0,0.0,0.0,0.0,0.0,0.0,0.0,0.0,0.0,0.0,0.0,1.915,1.9118,1.9018,1.9751,2.0104,2.0066,1.959,1.9383,1.9344,1.8796,1.8554,1.8554,1.8554,1.8554,1.8618,1.9179,1.9299,1.9253,0.0,0.0,0.0,0.0,0.0,0.0,0.0,0.0,0.0,0.0,0.0,0.0,0.0,0.0,0.0,0.0,0.0,0.0,0.0,0.0,1.5605,1.6269,1.8173,1.965,2.0586,2.0605,2.0439,2.0059,2.0059,2.0474,2.1258,2.1093,2.1368,2.2003,2.164,2.1419,2.1256,2.0189,2.0001,2.0293,1.9295,1.9095,1.9296,1.8756,1.8204,0.0,0.0,0.0,0.0,0.0,0.0,0.0,1.8246,1.8726,1.9101,1.9465,1.9614,1.9851,2.0692,2.1395,0.0,0.0,2.6712,2.8846,0.0,0.0,0.0,0.0,0.0,0.0,0.0,0.0,0.0,0.0,0.0,0.0,0.0,0.0,0.0,0.0,0.0,0.0,0.0,0.0,0.0,0.0,0.0,0.0,0.0,0.0,0.0,0.0,0.0,0.0,1.9357,1.9357,1.9038,0.0,1.8836,1.9041,1.9012,1.9178,1.9253,1.9264,1.9265,1.9235,1.9222,1.9104,1.9051,1.9051,1.9051,1.9051,1.9042,1.9078,1.9071,1.9037,0.0,0.0,0.0,0.0,0.0,0.0,0.0,0.0,0.0,0.0,0.0,0.0,0.0,0.0,0.0,0.0,0.0,0.0,0.0,0.0,0.0,0.0,1.8155,1.9287,1.9979,1.9989,1.9844,1.9609,1.9478,1.9852,2.0673,2.0844,2.1201,2.1685,2.133,2.0944,2.0526,1.9535,1.9091,1.899,1.8422,1.838,1.8556,1.8028,1.7626,1.7373,1.7074,0.0,0.0,0.0,0.0,0.0,0.0,0.0,1.9176,1.9541,1.9672,1.9857,2.0509,0.0,0.0,2.539,0.0,0.0,0.0,0.0,0.0,0.0,0.0,0.0,0.0,0.0,0.0,0.0,0.0,0.0,0.0,0.0,0.0,0.0,0.0,0.0,0.0,0.0,0.0,0.0,0.0,0.0,0.0,0.0,0.0,0.0,0.0,0.0,1.9259,1.9259,1.9049,1.8639,1.8917,1.8999,1.8961,1.9277,1.9432,1.9418,1.9202,1.9103,1.9076,1.8827,1.8719,1.8719,1.8719,1.8719,1.8746,1.8938,1.8936,1.8879,0.0,0.0,0.0,0.0,0.0,0.0,0.0,0.0,0.0,0.0,0.0,0.0,0.0,0.0,0.0,0.0,0.0,0.0,0.0,0.0,0.0,0.0,1.8104,1.8773,1.917,1.918,0.0,1.8955,1.8908,1.9264,1.9991,2.0734,2.1255,2.162,2.1324,2.0653,1.9732,1.9135,1.841,1.771,1.7859,1.7915,1.7865,1.74,1.7237,1.7184,1.6685,1.65,1.6565,1.7031,0.0,0.0,0.0,0.0,1.9176,1.9581,1.9708,1.9857,2.0509,0.0,2.3511,2.6222,2.7485,0.0,0.0,0.0,0.0,0.0,0.0,0.0,0.0,0.0,0.0,0.0,0.0,0.0,0.0,0.0,0.0,0.0,0.0,0.0,0.0,0.0,0.0,0.0,0.0,0.0,0.0,0.0,0.0,0.0,0.0,1.9321,1.9176,1.9176,1.9157,1.9139,1.9139,1.9082,1.9017,1.9564,1.9787,1.9695,1.9218,1.9016,1.8975,1.8542,1.8361,1.8361,1.8361,1.8361,1.8402,1.8815,1.8879,1.8795,0.0,0.0,0.0,0.0,0.0,0.0,0.0,0.0,0.0,0.0,0.0,0.0,0.0,0.0,0.0,0.0,0.0,0.0,1.0992,0.0,0.0,1.7217,1.8008,1.8515,1.8685,1.8685,1.8369,1.7637,1.8435,1.9055,1.953,2.0764,2.1664,2.2184,2.1735,2.087,1.9638,1.8481,1.7699,1.7258,1.6882,1.6726,1.6713,1.6638,1.6613,1.66,1.6525,1.65,1.6565,1.7031,1.7344,0.0,0.0,0.0,0.0,1.9581,1.9708,1.9857,0.0,0.0,2.358,0.0,2.5076,0.0,0.0,0.0,0.0,0.0,0.0,0.0,0.0,0.0,0.0,0.0,0.0,0.0,0.0,0.0,0.0,0.0,0.0,0.0,0.0,0.0,0.0,0.0,0.0,0.0,0.0,0.0,1.9654,1.9654,1.9654,0.0,1.9538,1.9538,1.9483,1.9358,1.9358,1.9358,1.9339,1.9422,1.9305,1.9041,1.907,1.9085,1.9085,1.8998,1.8988,1.8988,1.8988,1.8988,1.8984,1.8941,1.8893,1.8888,0.0,0.0,0.0,0.0,0.0,0.0,0.0,0.0,0.0,0.0,0.0,0.0,0.0,0.0,0.0,1.0334,1.0157,1.0432,1.1441,1.3359,1.505,1.6411,1.7235,1.777,1.793,1.7939,1.7637,1.7021,1.7999,1.8827,1.9615,2.135,2.2139,2.208,0.0,0.0,0.0,1.8678,1.7845,1.7167,1.6682,1.65,1.65,1.65,1.65,1.65,0.0,0.0,0.0,0.0,1.7344,1.7659,1.8519,0.0,0.0,0.0,1.9708,1.9857,2.0509,2.1605,2.2622,0.0,2.3789,0.0,0.0,0.0,0.0,0.0,0.0,0.0,0.0,0.0,0.0,0.0,0.0,0.0,0.0,0.0,0.0,0.0,0.0,0.0,0.0,0.0,0.0,0.0,0.0,0.0,0.0,1.9708,1.9708,1.9708,1.9708,0.0,1.965,1.965,1.9632,1.9578,1.9578,1.9578,1.9578,1.9578,1.9417,1.9176,1.9246,1.9265,1.9265,1.9265,1.9265,1.9265,1.9265,1.9265,1.9265,1.9195,1.9157,1.912,0.0,0.0,0.0,0.0,0.0,0.0,0.0,0.0,0.0,0.0,0.0,0.0,0.0,0.0,0.0,0.0,1.0047,1.0425,1.1912,1.3301,1.453,1.5574,1.6415,1.6911,1.7083,1.6934,1.667,1.621,1.7223,1.8239,1.9244,2.1449,2.2253,0.0,2.2183,2.1428,0.0,0.0,0.0,1.7222,1.6704,1.65,1.65,1.65,0.0,1.65,1.65,0.0,0.0,0.0,0.0,0.0,0.0,0.0,0.0,0.0,0.0,0.0,0.0,0.0,2.156,2.2074,2.2652,0.0,0.0,0.0,0.0,0.0,0.0,0.0,0.0,0.0,0.0,0.0,0.0,0.0,0.0,0.0,0.0,0.0,0.0,0.0,0.0,0.0,0.0,0.0,0.0,0.0,1.9708,1.9708,1.9708,1.9708,1.9708,1.9708,1.9708,1.9708,1.9708,1.9708,1.9708,1.9708,1.9708,1.9708,1.9617,1.9487,1.9487,1.9487,1.9487,1.9487,1.9487,1.9487,1.9487,1.9487,1.9487,1.9487,1.945,1.9398,0.0,0.0,0.0,0.0,0.0,0.0,0.0,0.0,0.0,0.0,0.0,0.0,1.0593,1.0281,1.0077,1.011,1.0114,1.0618,1.1934,1.3027,1.4093,1.5098,1.5854,0.0,1.6173,1.5723,1.5312,0.0,1.5973,1.6935,1.7862,2.0384,2.1682,2.1922,2.2967,2.2265,2.0308,0.0,0.0,0.0,0.0,0.0,0.0,0.0,0.0,0.0,0.0,0.0,0.0,0.0,0.0,0.0,0.0,0.0,0.0,0.0,0.0,0.0,0.0,2.0243,0.0,2.0793,0.0,0.0,0.0,0.0,0.0,0.0,0.0,0.0,0.0,0.0,0.0,0.0,0.0,0.0,0.0,0.0,0.0,0.0,0.0,0.0,0.0,0.0,0.0,0.0,0.0,0.0,1.9708,1.9708,1.9708,1.9708,1.9708,1.9708,1.9708,1.9708,1.9708,1.9708,1.9708,1.9708,1.9708,1.9708,1.969,1.969,1.969,1.969,1.969,1.969,1.969,1.969,1.969,1.969,1.969,1.969,1.969,1.969,0.0,0.0,0.0,0.0,0.0,0.0,0.0,0.0,0.0,0.0,0.0,0.0,0.0,1.0294,1.0194,1.0388,1.0705,1.1181,1.195,1.2964,1.4013,1.5053,1.5635,1.5975,1.6095,1.5635,1.5205,0.0,0.0,1.6378,1.7245,1.9561,2.0813,2.1128,2.2372,2.2184,2.0884,1.9417,0.0,0.0,0.0,0.0,0.0,0.0,0.0,0.0,0.0,0.0,0.0,0.0,0.0,0.0,0.0,0.0,0.0,0.0,0.0,0.0,0.0,0.0,0.0,2.0049,0.0,0.0,0.0,0.0,0.0,0.0,0.0,0.0,0.0,0.0,0.0,0.0,0.0,0.0,0.0,0.0,0.0,0.0,0.0,0.0,0.0,0.0,0.0,0.0,0.0,0.0,1.9975,1.9833,1.9762,1.9762,1.9726,1.9708,1.9708,1.9744,1.9762,1.9762,1.9848,1.9884,1.9884,1.9797,1.9762,1.9762,1.9726,1.9708,1.9708,1.9708,1.9708,1.9708,1.9708,1.9708,1.9708,1.9708,1.9708,1.9708,0.0,0.0,0.0,0.0,0.0,0.0,0.0,0.0,0.0,0.0,0.0,0.0,0.0,0.0,1.0595,1.0791,1.1181,1.1631,1.2151,1.2995,1.3926,1.4912,1.5378,1.5679,1.587,0.0,0.0,0.0,0.0,0.0,0.0,1.8419,1.9575,1.9903,2.0941,2.1163,0.0,0.0,0.0,1.7852,0.0,0.0,1.65,0.0,0.0,0.0,0.0,0.0,0.0,0.0,0.0,0.0,0.0,0.0,0.0,0.0,0.0,0.0,1.969,0.0,0.0,0.0,0.0,0.0,0.0,0.0,0.0,0.0,0.0,0.0,0.0,0.0,0.0,0.0,0.0,0.0,0.0,0.0,0.0,0.0,0.0,0.0,0.0,0.0,0.0,0.0,0.0,0.0,2.0168,2.001,1.9869,1.9797,1.9797,1.978,1.9726,1.9851,1.9922,1.9973,2.008,2.0131,2.0131,2.0045,1.9993,1.9973,1.9922,1.9833,1.9708,1.9708,1.9708,1.9708,1.9708,1.9708,1.9708,1.9708,1.9708,1.9726,0.0,0.0,0.0,0.0,0.0,0.0,0.0,0.0,0.0,0.0,0.0,0.0,0.0,0.0,0.0,1.122,1.1514,1.1929,1.2491,1.3155,1.3863,1.4686,1.5029,1.5264,1.541,0.0,0.0,0.0,0.0,0.0,0.0,0.0,1.7979,1.8384,1.8797,1.9246,1.9698,0.0,1.8355,1.736,0.0,1.65,1.65,0.0,0.0,0.0,1.65,1.65,0.0,0.0,0.0,0.0,0.0,0.0,0.0,0.0,0.0,0.0,0.0,0.0,0.0,0.0,0.0,0.0,0.0,0.0,0.0,0.0,0.0,0.0,0.0,0.0,0.0,0.0,0.0,0.0,0.0,0.0,0.0,0.0,0.0,0.0,0.0,0.0,0.0,0.0,0.0,2.0376,2.0321,2.0185,2.0028,1.9815,1.9937,1.9937,1.9815,2.0013,2.0185,2.0321,2.0376,2.0427,2.0427,2.041,2.0375,2.0304,2.0304,2.008,1.9711,1.9726,1.9726,1.9726,1.9726,1.9726,1.9726,1.9726,1.9762,1.9815,0.0,0.0,0.0,0.0,0.0,0.0,0.0,0.0,0.0,0.0,0.0,0.0,1.1382,1.1389,1.1424,1.1546,1.1864,1.2275,1.2814,1.3573,1.421,1.4677,1.5098,1.5362,1.541,0.0,0.0,0.0,0.0,0.0,0.0,0.0,0.0,0.0,1.8249,1.8292,1.8041,1.7926,0.0,0.0,1.6748,1.65,0.0,0.0,0.0,0.0,0.0,1.65,1.6522,0.0,1.6867,1.7178,0.0,0.0,0.0,0.0,0.0,0.0,1.9672,0.0,0.0,0.0,0.0,0.0,0.0,0.0,0.0,0.0,0.0,0.0,0.0,0.0,0.0,0.0,0.0,0.0,0.0,0.0,0.0,0.0,0.0,0.0,0.0,0.0,0.0,0.0,0.0,2.0957,2.0876,2.0578,2.0273,2.0013,2.0148,2.02,2.0166,2.0359,2.0529,2.0662,2.0779,2.0829,2.0829,2.0729,2.0678,2.0645,2.051,2.0375,2.0272,2.0168,2.0133,2.0133,2.0133,2.0133,2.0133,2.0133,2.0148,2.0166,0.0,0.0,0.0,0.0,0.0,0.0,0.0,0.0,0.0,0.0,0.0,0.0,1.2329,1.2443,1.2473,1.2497,1.2643,1.2976,1.3522,1.4022,1.4517,1.4902,1.5206,1.541,1.541,0.0,0.0,0.0,0.0,0.0,0.0,0.0,0.0,0.0,0.0,0.0,0.0,0.0,0.0,0.0,1.6638,0.0,0.0,1.65,1.65,0.0,0.0,0.0,1.6522,1.6599,1.6769,0.0,0.0,0.0,0.0,0.0,0.0,0.0,0.0,0.0,0.0,0.0,0.0,0.0,0.0,1.9465,0.0,0.0,0.0,0.0,0.0,0.0,0.0,0.0,0.0,0.0,0.0,0.0,0.0,0.0,0.0,0.0,0.0,0.0,0.0,0.0,2.1434,2.131,2.1151,2.0844,2.0579,2.0393,2.046,2.0509,2.0509,2.0745,2.0909,2.1055,2.1214,2.1292,2.1292,2.1214,2.1135,2.1087,2.0958,2.0926,2.091,2.0828,2.0629,2.0375,2.0375,2.0375,2.0375,2.0375,2.0441,2.0509,0.0,0.0,0.0,0.0,0.0,0.0,0.0,0.0,0.0,0.0,0.0,0.0,0.0,0.0,0.0,0.0,1.3653,1.3794,1.4365,1.4475,0.0,0.0,0.0,0.0,0.0,0.0,0.0,0.0,0.0,0.0,0.0,0.0,0.0,0.0,0.0,0.0,0.0,0.0,0.0,1.65,1.65,1.65,0.0,0.0,1.65,0.0,1.65,1.65,1.65,1.6522,1.6684,0.0,0.0,0.0,0.0,0.0,1.9157,0.0,0.0,0.0,0.0,0.0,0.0,0.0,1.9708,1.9181,1.8719,0.0,0.0,0.0,0.0,0.0,0.0,0.0,0.0,0.0,0.0,0.0,0.0,0.0,0.0,0.0,0.0,0.0,0.0,2.1769,2.1679,2.1511,2.1278,2.1087,2.0942,2.086,2.086,2.086,2.0876,2.1135,2.1325,2.1463,2.1631,2.1723,2.1723,2.1739,2.1646,2.1538,2.1539,2.1539,2.1539,2.1539,2.1166,2.0613,2.0613,2.0613,2.0613,2.0613,2.0712,2.0876,0.0,0.0,0.0,0.0,0.0,0.0,0.0,0.0,0.0,0.0,0.0,0.0,0.0,0.0,0.0,0.0,0.0,1.4205,1.4895,1.476,0.0,0.0,0.0,0.0,0.0,0.0,0.0,0.0,0.0,0.0,0.0,0.0,0.0,0.0,0.0,0.0,0.0,0.0,0.0,1.65,1.65,0.0,1.65,1.65,1.65,1.65,1.65,1.65,1.6522,0.0,1.6697,1.6825,0.0,0.0,0.0,0.0,0.0,0.0,0.0,0.0,0.0,0.0,0.0,0.0,1.9708,1.9181,1.8702,0.0,0.0,0.0,0.0,0.0,0.0,0.0,0.0,0.0,0.0,0.0,0.0,0.0,0.0,0.0,0.0,0.0,2.2111,2.2097,2.1947,2.1783,2.1619,2.1511,2.1388,2.1198,2.1198,2.123,2.1277,2.1495,2.1678,2.1794,2.1897,2.194,2.194,2.1899,2.1855,2.1809,2.1766,2.1736,2.1736,2.1736,2.1569,2.1291,2.1291,2.1291,2.1291,2.1291,2.1339,2.137,0.0,0.0,0.0,0.0,0.0,0.0,0.0,0.0,0.0,0.0,0.0,0.0,0.0,0.0,0.0,0.0,0.0,0.0,0.0,0.0,0.0,0.0,0.0,0.0,0.0,0.0,0.0,0.0,0.0,0.0,0.0,0.0,0.0,0.0,0.0,0.0,0.0,0.0,1.65,1.65,1.65,0.0,1.65,1.65,1.65,1.65,1.65,1.65,1.6522,1.6577,1.6599,0.0,0.0,1.7406,1.7767,0.0,1.886,1.9265,0.0,0.0,0.0,1.9708,0.0,0.0,0.0,1.9181,1.8702,0.0,0.0,0.0,0.0,0.0,0.0,0.0,0.0,0.0,0.0,0.0,0.0,0.0,0.0,0.0,0.0,0.0,2.22,2.22,2.2046,2.1911,2.1855,2.1797,2.1708,2.1601,2.1572,2.157,2.1661,2.1781,2.1915,2.2049,2.2135,2.2147,2.2147,2.2104,2.2106,2.2106,2.2063,2.2049,2.2049,2.2049,2.1991,2.1886,2.1721,2.1661,2.1661,2.1661,2.166,2.1705,1.3192,0.0,0.0,0.0,0.0,0.0,0.0,0.0,0.0,0.0,0.0,0.0,0.0,0.0,0.0,0.0,0.0,0.0,0.0,0.0,0.0,0.0,0.0,1.5176,0.0,0.0,0.0,0.0,0.0,0.0,0.0,0.0,0.0,0.0,0.0,0.0,0.0,0.0,0.0,1.65,0.0,1.65,1.65,1.65,1.65,1.65,1.65,1.65,1.65,1.65,0.0,1.6565,1.6876,1.722,0.0,0.0,0.0,0.0,0.0,0.0,0.0,0.0,0.0,1.9708,0.0,0.0,0.0,1.8702,0.0,0.0,0.0,0.0,0.0,0.0,0.0,0.0,0.0,0.0,0.0,0.0,0.0,0.0,0.0,0.0,2.2228,2.2228,2.2135,2.2073,2.2073,2.1986,2.1974,2.1974,2.1869,2.1869,2.1974,2.2015,2.2089,2.2228,2.2268,2.2296,2.2296,2.2296,2.2296,2.2296,2.2296,2.2296,2.2296,2.2296,2.2296,2.2268,2.2005,2.1886,2.1886,2.1886,2.193,2.1972,1.3244,1.3463,0.0,0.0,0.0,0.0,0.0,0.0,0.0,0.0,0.0,0.0,0.0,0.0,0.0,0.0,0.0,0.0,1.7504,0.0,0.0,0.0,0.0,0.0,1.4202,0.0,0.0,0.0,0.0,0.0,0.0,0.0,0.0,0.0,1.65,0.0,0.0,0.0,1.65,0.0,1.65,1.65,0.0,1.65,1.65,1.65,1.65,1.65,1.65,0.0,1.65,1.6543,0.0,1.7136,0.0,0.0,0.0,0.0,0.0,0.0,0.0,0.0,1.9708,0.0,0.0,0.0,1.8702,1.8702,0.0,0.0,0.0,0.0,0.0,0.0,0.0,0.0,0.0,0.0,0.0,0.0,0.0,0.0,0.0,0.0,0.0,2.2282,2.2265,2.2265,2.2265,2.2211,2.2168,2.2168,2.2046,2.2046,2.2168,2.2168,2.2211,2.2282,2.2296,2.2296,2.2296,2.2296,2.2296,2.2296,2.2296,2.2296,2.2296,2.2296,2.2296,2.2296,2.2268,2.2237,2.2237,2.2237,2.2254,2.2237,1.2998,1.3175,0.0,0.0,0.0,0.0,0.0,0.0,0.0,0.0,0.0,0.0,0.0,0.0,0.0,0.0,0.0,1.8906,0.0,0.0,0.0,0.0,0.0,0.0,0.0,0.0,0.0,0.0,1.3997,0.0,0.0,0.0,0.0,0.0,1.65,0.0,1.65,0.0,0.0,0.0,0.0,0.0,0.0,1.65,1.65,1.65,1.65,1.65,1.65,0.0,1.6543,0.0,0.0,0.0,0.0,0.0,0.0,0.0,0.0,0.0,0.0,0.0,0.0,0.0,0.0,0.0,1.9271,0.0,0.0,0.0,0.0,0.0,0.0,0.0,0.0,0.0,0.0,0.0,0.0,0.0,0.0,0.0,0.0,0.0,0.0,0.0,0.0,2.2296,2.2296,2.2268,2.2254,2.2254,2.2192,2.2192,2.2254,2.2254,2.2268,2.2296,2.2296,2.2296,2.2296,2.2296,2.2296,2.2296,2.2296,2.2296,2.2296,2.2296,2.2296,2.2296,2.2296,2.2296,2.2296,2.2296,2.2296,2.2296,1.3056,0.0,0.0,0.0,0.0,0.0,0.0,0.0,0.0,0.0,0.0,0.0,2.1146,2.1285,0.0,0.0,0.0,2.0204,0.0,0.0,1.7588,0.0,0.0,0.0,0.0,0.0,0.0,0.0,0.0,0.0,0.0,0.0,0.0,0.0,0.0,1.65,1.65,0.0,0.0,1.65,1.65,1.65,1.65,1.65,1.65,1.65,1.65,1.65,1.65,1.6543,1.6641,0.0,1.7023,0.0,0.0,0.0,0.0,0.0,1.9358,0.0,0.0,0.0,0.0,0.0,0.0,0.0,0.0,0.0,0.0,0.0,0.0,0.0,0.0,0.0,0.0,0.0,0.0,0.0,0.0,0.0,0.0,0.0,0.0,0.0,0.0,0.0,2.2296,0.0,2.2296,2.2296,2.2296,2.2296,2.2296,2.2296,2.2296,2.2296,2.2296,2.2296,2.2296,2.2296,2.2296,2.2296,2.2296,2.2296,2.2296,2.2296,2.2296,2.2296,2.2296,2.2296,2.2296,2.2296,2.2296,2.2296,2.2296,2.2296,1.3789,1.3909,0.0,0.0,0.0,0.0,0.0,0.0,0.0,0.0,0.0,0.0,0.0,0.0,0.0,0.0,0.0,2.0586,2.0546,0.0,1.7988,0.0,0.0,1.6268,0.0,0.0,0.0,0.0,0.0,0.0,0.0,0.0,0.0,0.0,0.0,1.65,1.65,1.65,1.65,1.65,1.65,1.65,1.65,0.0,1.65,1.65,1.65,0.0,0.0,1.6654,1.6782,0.0,0.0,0.0,0.0,0.0,0.0,0.0,0.0,0.0,0.0,0.0,0.0,0.0,0.0,0.0,1.9708,0.0,0.0,0.0,0.0,0.0,0.0,0.0,0.0,0.0,0.0,0.0,0.0,0.0,0.0,0.0,0.0,0.0,0.0,0.0,2.2296,0.0,2.2296,2.2296,2.2296,2.2296,2.2296,2.2296,2.2296,2.2296,2.2296,2.2296,2.2296,2.2296,2.2296,2.2296,2.2296,2.2296,2.2296,2.2296,2.2296,2.2296,2.2296,2.2296,2.2296,2.2296,2.2296,2.2296,2.2296,2.2296,0.0,0.0,0.0,0.0,0.0,0.0,0.0,1.9317,0.0,0.0,0.0,0.0,0.0,0.0,2.3144,0.0,0.0,2.1914,2.1064,2.0185,0.0,0.0,0.0,1.7362,0.0,0.0,0.0,0.0,0.0,0.0,0.0,0.0,0.0,0.0,0.0,1.65,0.0,0.0,0.0,0.0,0.0,1.65,1.65,0.0,0.0,1.662,1.662,1.6684,0.0,1.6876,1.7057,1.7287,1.757,1.7942,1.8338,1.8731,1.9055,0.0,0.0,0.0,1.9708,1.9708,0.0,0.0,0.0,0.0,0.0,0.0,0.0,0.0,0.0,0.0,0.0,0.0,0.0,0.0,0.0,0.0,0.0,0.0,0.0,0.0,0.0,0.0,0.0,2.2296,2.2296,2.2296,0.0,2.2296,2.2296,2.2296,2.2296,2.2296,2.2296,2.2296,2.2296,2.2296,2.2296,2.2296,2.2296,2.2296,2.2296,2.2296,2.2296,2.2296,2.2296,2.2296,2.2296,2.2296,2.2296,2.2296,2.2296,2.2296,2.2296,2.2296,1.4967,0.0,0.0,0.0,0.0,0.0,0.0,0.0,0.0,0.0,2.2129,0.0,2.3481,0.0,2.3789,0.0,2.3252,2.2526,2.1707,2.0986,0.0,1.9082,1.8765,0.0,0.0,0.0,0.0,0.0,0.0,1.6619,0.0,0.0,0.0,0.0,0.0,0.0,1.65,0.0,1.65,0.0,0.0,1.6565,0.0,0.0,1.6727,0.0,0.0,1.6918,1.7094,1.7157,1.7378,1.7666,1.7962,1.8338,1.8721,1.9017,1.928,1.9501,1.9574,1.965,0.0,0.0,1.9708,0.0,0.0,0.0,0.0,0.0,0.0,0.0,0.0,0.0,0.0,0.0,0.0,0.0,0.0,2.0273,0.0,0.0,0.0,0.0,0.0,0.0,2.2296,2.2296,2.2296,2.2296,0.0,0.0,2.2296,2.2296,2.2296,2.2296,2.2296,2.2296,2.2296,2.2296,2.2296,2.2296,2.2296,2.2296,2.2296,2.2296,2.2296,2.2296,2.2296,2.2296,2.2296,2.2296,2.2296,2.2296,2.2296,2.2296,2.2296,2.2296,0.0,0.0,0.0,0.0,1.7919,0.0,0.0,0.0,2.1114,0.0,2.29,2.3496,2.4297,2.4043,2.3818,2.3834,2.3047,0.0,2.2523,2.1399,0.0,0.0,1.9865,1.9239,1.9183,0.0,0.0,0.0,0.0,0.0,0.0,0.0,0.0,0.0,1.65,0.0,1.65,1.65,1.6522,1.6543,1.6663,1.6718,1.6761,1.696,0.0,1.696,1.7023,1.7199,1.7434,1.7516,1.776,1.8088,1.8422,1.8741,1.9069,1.9246,1.9465,1.9593,1.9593,1.965,1.9708,1.9708,0.0,0.0,0.0,0.0,1.9708,0.0,0.0,0.0,0.0,0.0,0.0,0.0,0.0,0.0,0.0,0.0,0.0,0.0,0.0,0.0,0.0,2.2192,2.2296,2.2296,2.2296,0.0,0.0,0.0,0.0,2.2296,2.2296,2.2296,2.2296,2.2296,2.2296,2.2296,2.2296,2.2296,2.2296,2.2296,2.2296,2.2296,2.2296,2.2296,2.2296,2.2296,2.2296,2.231,2.231,2.231,2.231,2.231,2.2296,2.2296,1.684,1.7591,1.8269,0.0,1.8939,1.9268,0.0,0.0,0.0,0.0,2.2969,2.3711,2.3926,2.4131,2.4176,2.4033,2.3806,0.0,0.0,0.0,0.0,2.1176,2.0756,2.0452,2.0215,1.9467,0.0,1.9212,0.0,0.0,1.7506,0.0,0.0,0.0,0.0,0.0,1.65,1.6599,1.6727,1.6863,1.6918,1.7044,0.0,0.0,1.7598,1.77,1.7578,1.7659,1.7868,1.8028,1.8246,1.8495,1.8774,1.9074,1.9335,1.9483,1.9596,1.9672,1.9672,1.969,1.9708,1.9708,1.9708,1.9708,0.0,0.0,0.0,0.0,0.0,0.0,0.0,0.0,0.0,0.0,0.0,0.0,0.0,0.0,0.0,0.0,0.0,0.0,0.0,2.224,2.2296,2.2296,2.2296,0.0,0.0,0.0,0.0,2.2296,2.2296,2.2296,2.2296,2.2296,2.2296,2.2296,2.2296,2.2296,2.2296,2.2296,2.2296,2.2296,2.2296,2.2296,2.2296,2.2296,2.2338,2.2363,2.2363,2.2432,2.2501,2.2366,2.2296,2.2296,1.747,0.0,0.0,1.9453,0.0,0.0,2.0166,0.0,0.0,2.2383,2.3232,0.0,2.4043,2.4202,2.4191,2.3988,2.3988,0.0,0.0,0.0,0.0,2.1951,2.155,2.1208,2.0864,2.0121,0.0,1.9474,0.0,0.0,1.7537,0.0,0.0,0.0,0.0,1.6522,0.0,1.6812,1.7023,1.7199,1.7303,0.0,0.0,1.7928,1.8127,1.8266,1.8305,1.8324,1.8364,1.85,1.8726,1.895,1.913,1.9317,1.952,1.9614,1.9672,1.9708,1.9708,1.9708,1.9708,1.9708,1.9708,1.9708,1.9708,1.9726,1.9744,0.0,0.0,0.0,0.0,0.0,0.0,0.0,0.0,0.0,0.0,0.0,0.0,0.0,0.0,0.0,0.0,0.0,0.0,0.0,0.0,0.0,0.0,0.0,0.0,2.2296,2.2296,2.2296,2.2296,2.2296,2.2296,2.2296,2.2296,2.2324,2.2352,2.2352,2.2366,2.2394,2.2394,2.2394,2.2377,2.2419,2.2446,2.2501,2.2555,2.2632,2.2712,2.2592,2.2528,2.2474,0.0,0.0,0.0,0.0,0.0,0.0,0.0,2.1475,0.0,2.2916,0.0,2.3893,2.4255,2.4137,2.3953,2.3833,0.0,2.3762,2.3572,2.3293,2.3091,2.294,2.2293,2.1699,2.1325,2.0706,0.0,0.0,0.0,0.0,0.0,0.0,0.0,0.0,0.0,0.0,0.0,1.7136,1.7352,0.0,1.7787,1.7908,1.7988,1.8422,1.863,1.8726,1.9045,1.9045,1.8879,1.8936,1.912,1.9358,1.9413,1.952,1.9629,1.969,1.9708,1.9708,1.9708,1.9708,1.9708,1.9708,1.9708,1.9708,1.9708,1.9744,1.9797,1.9815,1.9993,0.0,0.0,0.0,0.0,0.0,0.0,0.0,0.0,0.0,0.0,0.0,0.0,0.0,0.0,0.0,0.0,0.0,0.0,0.0,0.0,0.0,0.0,0.0,2.231,0.0,2.231,0.0,2.2338,2.2338,2.2352,2.2377,2.2432,2.2446,2.2487,2.2542,2.2555,2.2555,2.2569,2.2623,2.2646,2.2672,2.2842,2.2927,2.2977,2.299,2.2927,2.2812,0.0,0.0,0.0,0.0,0.0,2.1357,2.206,2.2305,2.2461,2.2607,2.3172,0.0,2.3634,2.3637,2.3716,2.4012,2.3986,0.0,0.0,0.0,0.0,2.3711,2.2929,2.2251,2.1889,2.1221,2.0434,0.0,0.0,0.0,0.0,0.0,0.0,0.0,0.0,0.0,1.73,1.7509,0.0,1.8167,1.8305,1.85,1.8726,1.8917,1.9064,1.9195,1.9431,1.9376,1.9213,1.9302,1.9413,1.9556,1.9556,1.9614,1.969,1.9708,1.9708,1.9708,1.9708,1.9708,1.9708,1.9708,1.9708,1.9708,1.9708,1.9744,1.983,1.9937,2.0131,2.0287,2.0308,0.0,0.0,0.0,0.0,0.0,0.0,0.0,0.0,0.0,0.0,0.0,0.0,0.0,0.0,0.0,0.0,0.0,0.0,0.0,0.0,0.0,0.0,0.0,0.0,0.0,0.0,2.2555,2.2592,2.2632,2.2646,2.2699,2.2738,2.2751,2.2803,2.2829,2.2829,2.2838,2.2902,2.3045,2.3283,2.3371,2.3394,2.345,2.3455,2.3393,0.0,0.0,0.0,0.0,0.0,0.0,0.0,2.3315,0.0,2.3057,2.3504,2.3884,2.4003,2.4095,2.4176,2.439,2.4508,2.4446,2.42,2.4235,2.406,2.3571,2.2847,0.0,2.164,2.0736,1.9812,1.8883,0.0,0.0,0.0,0.0,0.0,0.0,0.0,1.7267,0.0,0.0,0.0,1.8592,1.8822,1.8988,1.912,1.9302,1.9395,1.9468,1.9596,1.9596,1.9508,1.9545,1.9596,1.965,1.965,1.9672,1.9708,1.9708,1.9708,1.9708,1.9708,1.9726,1.9744,1.9744,1.9797,1.9866,1.9866,1.9973,2.0113,2.022,2.0478,2.0697,2.0844,2.0811,0.0,0.0,0.0,0.0,0.0,0.0,0.0,0.0,0.0,0.0,0.0,0.0,0.0,0.0,0.0,0.0,0.0,0.0,0.0,0.0,0.0,0.0,0.0,0.0,0.0,2.2764,2.279,2.2842,2.2919,2.2944,2.2977,2.307,2.3077,2.3107,2.3102,2.3187,2.3289,2.3422,2.3547,2.3613,2.3664,2.3682,2.3703,2.366,0.0,2.108,0.0,0.0,2.3043,0.0,0.0,2.4387,2.4551,2.3884,2.4196,2.4488,2.4618,2.48,2.488,2.4798,2.4886,2.4753,2.4176,2.4246,2.4053,2.3418,2.269,2.1984,2.1362,2.0229,1.9158,0.0,0.0,0.0,0.0,0.0,0.0,0.0,0.0,0.0,0.0,0.0,1.8726,1.8936,1.9246,1.9376,1.9413,1.956,1.9629,1.9629,1.9672,1.9708,1.9708,1.9708,1.9708,1.9708,1.9708,1.9708,1.9708,1.9708,1.9708,1.9708,1.9726,1.978,1.9848,1.9851,1.9973,2.0061,2.0061,2.02,2.039,2.0527,2.0861,2.1182,2.1371,2.1276,0.0,0.0,0.0,0.0,0.0,0.0,0.0,0.0,0.0,0.0,0.0,0.0,0.0,0.0,0.0,0.0,0.0,0.0,0.0,0.0,0.0,0.0,2.285,0.0,2.2977,0.0,2.3035,2.3096,2.3206,2.3218,2.3295,2.3389,2.34,2.3412,2.3412,2.3549,2.3653,2.3753,2.3774,2.3816,2.3876,2.3886,2.3886,2.3876,0.0,0.0,0.0,0.0,0.0,0.0,0.0,2.5453,2.5516,2.4861,2.5115,2.5282,2.5057,2.5346,2.5382,2.5079,2.4743,2.4661,2.4964,2.423,2.3809,2.391,2.2872,2.2038,2.1478,2.0349,1.9259,0.0,0.0,0.0,0.0,0.0,0.0,0.0,0.0,0.0,0.0,1.8807,1.9111,1.9358,1.952,1.9596,1.9657,1.969,1.969,1.969,1.9708,1.9708,1.9708,1.9708,1.9708,1.9708,1.9708,1.9708,1.9708,1.9708,1.9708,1.9708,1.9762,1.9884,1.999,2.0063,2.0168,2.027,2.027,2.039,2.0544,2.0728,2.1183,2.1588,2.1738,2.1736,2.1751,0.0,0.0,0.0,0.0,0.0,0.0,0.0,0.0,0.0,0.0,0.0,0.0,0.0,0.0,0.0,0.0,0.0,0.0,0.0,0.0,2.307,2.3082,2.3319,0.0,2.3429,2.3513,2.3551,2.3562,2.3617,2.3649,2.3678,2.3732,2.3753,2.3753,2.3834,2.3876,2.3896,2.4016,2.4074,2.4084,2.4151,2.4161,2.4161,0.0,0.0,0.0,0.0,0.0,0.0,0.0,2.626,2.6388,2.5933,2.5918,2.5878,2.5594,2.5738,2.5712,2.5349,2.5113,2.4771,2.4295,2.4009,2.3598,2.3025,2.2234,2.1556,2.1031,1.9674,1.8752,0.0,0.0,0.0,0.0,0.0,0.0,0.0,0.0,1.8475,1.8812,1.9097,1.9354,1.9538,1.9614,1.9687,1.9708,1.9708,1.9708,1.9708,1.9708,1.9708,1.9708,1.9708,1.9708,1.9708,1.9708,1.9726,1.9762,1.9762,1.9851,1.9942,1.9975,2.0133,2.0323,2.0378,2.0529,2.0679,2.0713,2.0811,2.0974,2.1166,2.1539,2.1886,2.2022,2.1974,2.1957,0.0,0.0,0.0,0.0,0.0,0.0,0.0,0.0,0.0,0.0,0.0,0.0,0.0,0.0,0.0,0.0,0.0,0.0,2.3223,0.0,2.3371,2.3457,2.3569,2.3635,2.3667,2.371,2.3735,2.3785,2.3806,2.3837,2.3886,2.3907,2.421,2.4707,2.4728,2.4758,2.4807,2.4866,2.4592,2.4161,2.418,2.419,2.419,2.3226,0.0,2.4653,0.0,2.5954,2.6511,2.6461,2.6811,2.6904,2.6532,2.6479,2.6382,2.6068,2.6055,2.5875,2.5469,2.5114,2.4581,2.3841,2.3779,2.3314,2.2405,2.1838,0.0,2.0891,1.9316,1.8544,1.8613,1.7601,0.0,0.0,0.0,0.0,0.0,1.8592,1.8893,1.913,1.9354,1.9523,1.9632,1.9672,1.9708,1.9708,1.9708,1.9708,1.9708,1.9708,1.9708,1.9726,1.9726,1.978,1.9815,1.9744,1.9797,1.9904,1.9937,2.0063,2.0204,2.0273,2.0461,2.0646,2.0763,2.0926,2.1071,2.1134,2.1246,2.1387,2.1615,2.1884,2.2089,2.2211,2.2149,2.2118,0.0,0.0,0.0,0.0,0.0,0.0,0.0,0.0,2.2699,2.2803,0.0,0.0,0.0,0.0,0.0,0.0,0.0,0.0,0.0,0.0,0.0,0.0,0.0,2.3964,2.4242,2.4262,2.4411,2.4689,2.4452,2.4235,2.4064,2.4302,2.4752,2.5342,2.558,2.5564,2.5393,2.5393,2.4915,2.419,2.419,2.419,2.4226,2.3792,2.446,2.5158,2.568,2.6339,2.6786,2.6786,2.7024,2.7016,2.6481,2.6734,2.6854,2.6457,2.6218,2.5884,2.5351,2.4516,2.4017,2.4004,2.3434,2.2916,0.0,0.0,2.1586,2.1302,1.9596,1.8832,1.9087,0.0,0.0,1.7787,0.0,0.0,1.8611,1.8936,1.9195,1.9395,1.9538,1.9647,1.9708,1.9708,1.9708,1.9708,1.9708,1.9708,1.9708,1.9708,1.9744,1.9797,1.9797,1.9922,2.0048,1.9851,1.994,2.0133,2.0252,2.034,2.0461,2.0728,2.0844,2.0974,2.123,2.134,2.1417,2.1478,2.1601,2.1753,2.1955,2.2106,2.2228,2.2282,2.2296,2.2296,2.2296,0.0,0.0,0.0,0.0,0.0,0.0,2.2712,2.2881,2.3082,0.0,0.0,0.0,0.0,0.0,0.0,0.0,0.0,2.3692,2.3827,0.0,2.3896,2.4026,2.4478,2.5285,2.5354,2.5805,2.6528,2.5731,2.4952,2.4245,2.5044,2.5393,2.5466,2.6264,2.6117,2.5393,2.5393,2.4915,2.419,2.419,2.419,2.43,2.392,2.4558,2.5253,2.5776,2.6455,2.6955,2.6931,2.7112,2.7094,2.6547,2.6205,2.6002,2.5853,2.5806,2.5398,0.0,2.4161,2.3841,0.0,2.2946,2.2524,2.212,2.1736,2.1186,2.036,1.9675,1.9155,1.8846,0.0,0.0,0.0,1.8803,1.8969,1.9082,1.9339,1.9483,1.9538,1.9632,1.9672,1.9708,1.9708,1.9708,1.9708,1.9708,1.9726,1.9762,1.9762,1.9869,2.0028,2.0098,2.0273,2.0446,2.0461,2.0461,2.0478,2.0611,2.0827,2.1023,2.1119,2.1293,2.148,2.1617,2.1691,2.1749,2.1838,2.1945,2.2068,2.2123,2.2211,2.2268,2.2296,2.2296,2.231,2.2366,0.0,0.0,0.0,0.0,0.0,0.0,0.0,2.3119,0.0,2.3486,0.0,0.0,0.0,0.0,0.0,0.0,0.0,0.0,2.4829,0.0,2.5732,2.5782,2.5921,2.6188,2.6198,2.6355,2.6583,2.6337,2.608,2.586,2.6117,2.6521,2.7064,2.731,2.6943,2.6227,2.6227,2.5383,2.419,2.419,2.4548,2.5044,2.3976,2.4361,2.493,2.5661,2.6173,2.6542,2.6779,2.6909,2.6801,2.6248,2.5892,2.5547,2.5131,2.5113,0.0,2.4148,2.3896,0.0,2.3416,2.2932,2.2542,2.225,2.1878,2.1264,2.0331,0.0,0.0,1.9107,1.8903,1.8879,1.9045,1.9195,1.9339,1.9413,1.956,1.9632,1.9632,1.9672,1.9708,1.9708,1.9726,1.9744,1.9744,1.9833,1.9887,1.9922,2.001,2.0135,2.0308,2.0443,2.0646,2.0893,2.099,2.1039,2.1055,2.1039,2.123,2.1464,2.1509,2.1663,2.1797,2.1917,2.1991,2.2032,2.2104,2.218,2.2225,2.2225,2.2268,2.2296,2.2296,2.2324,2.2366,2.2419,0.0,0.0,0.0,0.0,0.0,0.0,0.0,0.0,0.0,2.3678,0.0,0.0,0.0,0.0,0.0,0.0,0.0,2.5305,2.5334,0.0,2.6583,2.6602,2.6759,2.7053,2.7354,2.7336,2.7053,2.7053,2.6888,2.662,2.6924,2.7346,2.7824,2.8136,2.7603,2.6602,2.6602,2.5805,2.4658,2.4658,2.5154,2.5888,2.3841,2.3966,0.0,0.0,2.5573,0.0,2.6411,2.6499,2.6285,2.5707,2.5772,2.5452,2.4342,2.4343,2.4349,2.4226,0.0,0.0,0.0,2.3327,2.2938,2.2791,2.2293,0.0,2.099,2.0573,2.0174,1.9794,1.9467,1.9321,1.9339,1.952,1.9611,1.9611,1.9672,1.9708,1.9708,1.9708,1.9726,1.9744,1.9797,1.9833,1.9851,2.0063,2.0118,2.017,2.0359,2.0513,2.0663,2.0795,2.1055,2.134,2.1402,2.1616,2.1783,2.1509,2.1587,2.1769,2.1884,2.1928,2.1957,2.2168,2.2214,2.2211,2.2282,2.2296,2.2296,2.2296,2.2296,2.2296,2.231,2.2366,2.2432,2.2515,2.2632,2.2803,2.3008,0.0,0.0,0.0,0.0,0.0,0.0,2.3927,2.4026,0.0,0.0,0.0,0.0,0.0,2.4536,2.5448,2.5485,2.5907,2.6749,2.6767,2.7145,2.7879,2.8638,2.8601,2.789,2.789,2.7475,2.6804,2.7567,2.789,2.7934,2.8693,2.8088,2.6675,2.6675,2.619,2.5485,2.5485,2.5988,2.6796,0.0,0.0,2.4217,2.4883,2.5335,2.5787,2.6411,2.6589,2.6455,2.5886,2.5703,2.5356,2.4661,2.4424,2.4357,2.4402,2.4122,2.3832,2.3544,2.3283,2.2962,2.2498,2.238,2.1805,2.0727,2.0896,2.0555,1.9649,1.9575,1.956,1.9599,1.9654,1.9687,1.9687,1.969,1.9726,1.978,1.978,1.9869,2.001,2.0013,2.0118,2.0256,2.0308,2.0461,2.0629,2.0695,2.0893,2.1151,2.123,2.1448,2.1676,2.1766,2.193,2.2065,2.1857,2.1915,2.2097,2.2125,2.2166,2.2209,2.2268,2.2268,2.2282,2.2296,2.2296,2.2296,2.2296,2.2296,2.2324,2.2366,2.2432,2.2542,2.2699,2.2842,2.302,2.3265,0.0,0.0,0.0,2.3771,2.3845,2.3876,2.3996,2.4084,0.0,0.0,0.0,0.0,0.0,2.4841,2.6264,2.6319,2.6998,2.8418,2.8436,2.8528,2.8712,2.8913,2.8895,2.8712,2.8712,2.8601,2.8436,2.862,2.8712,2.873,2.8932,2.84,2.7512,2.7512,2.7016,2.6319,2.6319,2.6833,2.753,2.3241,2.3614,2.4218,2.502,2.5467,2.5972,2.6836,2.6801,2.6482,2.6013,2.5728,2.5366,2.4905,2.4824,2.4879,2.5034,2.4736,2.4368,2.4027,2.3738,2.3377,2.2979,2.2436,2.1787,2.0934,2.0903,2.0469,1.965,1.965,1.9654,1.9708,1.9708,1.9726,1.9744,1.9744,1.9815,1.994,1.9993,2.0115,2.0256,2.0359,2.0478,2.0596,2.0745,2.0893,2.1039,2.1167,2.1356,2.1541,2.1616,2.1797,2.1991,2.202,2.2123,2.2225,2.2106,2.2166,2.2257,2.2257,2.2268,2.2296,2.2296,2.2296,2.2296,2.2296,2.2296,2.231,2.2338,2.2352,2.238,2.2474,2.2582,2.2699,2.2889,2.3102,2.3307,2.3497,2.3642,0.0,2.3876,2.3955,2.4006,2.4026,2.4103,2.4151,2.4151,0.0,0.0,2.419,2.419,2.4759,2.6007,2.641,2.72,2.8436,2.8822,2.9005,2.9005,2.9005,2.9005,2.9005,2.9005,2.9005,2.9005,2.9005,2.9005,2.9005,2.9005,2.8539,2.7798,2.7798,2.753,2.7145,2.7184,2.7702,2.8412,2.3539,2.376,2.4303,2.5387,2.5662,2.6078,2.7138,2.6895,2.6454,2.6016,2.5858,2.5598,2.5186,2.5398,2.5591,2.5671,2.5356,2.5025,2.4684,2.4247,2.3808,2.3382,2.2497,2.1739,2.1191,2.0641,2.0147,1.9708,1.9708,1.9726,1.9726,1.9762,1.9797,1.9851,1.9869,2.001,2.0187,2.0323,2.0443,2.0562,2.0778,2.0893,2.0974,2.1246,2.1371,2.1418,2.1648,2.1783,2.1871,2.193,2.2063,2.2228,2.2228,2.2254,2.2296,2.2296,2.2296,2.2296,2.2296,2.2296,2.2296,2.2296,2.2296,2.2296,2.2296,2.231,2.2338,2.2391,2.2432,2.2487,2.2632,2.2777,2.2932,2.3139,2.3389,2.3587,2.3714,0.0,2.4168,2.4286,2.4406,2.4489,2.4557,2.4557,2.4557,2.4557,2.4557,0.0,0.0,2.4447,2.4695,2.5374,2.6062,2.6869,2.7787,2.8601,2.9005,2.9005,2.9005,2.9005,2.9005,2.9005,2.9005,2.9005,2.9017,2.9017,2.9017,2.904,2.8628,2.8033,2.8026,2.8037,2.8037,2.8098,2.8544,2.9156,2.4147,2.4218,2.4487,2.5292,2.5455,2.5667,2.6312,2.6543,2.6476,2.5916,2.6249,2.6343,2.5826,2.6109,2.611,2.558,2.5718,2.5459,2.4511,2.4163,2.3493,2.2382,2.2378,2.1839,2.0641,2.0091,1.9779,1.9708,1.9762,1.978,1.978,1.9975,2.003,2.0048,2.0222,2.0393,2.053,2.0678,2.0893,2.1167,2.1198,2.1356,2.1572,2.1634,2.1708,2.1811,2.1838,2.1974,2.214,2.2154,2.2211,2.2282,2.2282,2.2282,2.2296,2.2296,2.2296,2.2296,2.2296,2.2296,2.2296,2.2296,2.2296,2.2296,2.2296,2.2352,2.2391,2.2474,2.2565,2.2712,2.2889,2.3057,2.3211,2.3481,2.3591,2.3742,0.0,0.0,2.511,2.5189,2.5795,2.6216,2.6227,2.6227,2.6227,2.6227,2.6227,2.6227,2.6227,2.5576,2.5264,2.5393,2.5521,2.6292,2.7798,2.8601,2.9005,2.9005,2.9005,2.9005,2.9005,2.9005,2.9005,2.9005,2.9062,2.9078,2.9078,2.9197,2.9185,2.9066,2.9063,2.9066,2.9066,2.9076,2.919,2.9361,2.4584,2.4935,2.5366,2.6039,2.6264,2.6544,2.7136,2.709,2.6886,2.6679,2.6664,2.651,2.6014,2.6176,2.6083,2.5417,2.5233,2.4919,2.4445,2.4279,2.3681,2.2482,2.22,2.1456,2.0146,1.9891,1.9815,1.9922,1.9957,2.0028,2.0133,2.0222,2.0342,2.0478,2.0562,2.0745,2.099,2.1087,2.1261,2.151,2.1586,2.1691,2.1827,2.1917,2.2007,2.2063,2.2106,2.218,2.2254,2.2254,2.2268,2.2296,2.2296,2.2296,2.2296,2.2296,2.2296,2.2296,2.2296,2.2296,2.2296,2.2296,2.2324,2.2349,2.2349,2.277,2.3182,2.3292,2.3721,2.4186,2.4464,2.4632,2.476,2.4976,2.5099,0.0,0.0,2.5724,2.6004,2.6043,2.6374,2.6602,2.6602,2.6602,2.6602,2.6602,2.6602,2.6602,2.6602,2.6245,2.6043,2.6043,2.6043,2.6612,2.7787,2.8601,2.9005,2.9005,2.9005,2.9005,2.9005,2.904,2.9044,2.9062,2.9163,2.92,2.9225,2.9299,2.937,2.9411,2.9412,2.9404,2.9414,2.9445,2.9484,2.9513,2.4998,2.5479,2.6001,2.6678,2.6957,2.7225,2.7711,2.741,2.7134,2.7097,2.6808,2.6426,2.5908,2.5973,2.5795,2.5121,2.4705,2.444,2.4276,2.4306,2.3767,2.2529,2.1729,2.0869,1.9899,1.9922,2.0028,2.017,2.0222,2.0342,2.0495,2.0579,2.0712,2.0925,2.099,2.1167,2.1418,2.1494,2.1632,2.1829,2.193,2.1988,2.2017,2.2152,2.2211,2.2242,2.2282,2.2296,2.2296,2.2296,2.2296,2.2296,2.2296,2.2296,2.2296,2.2296,2.231,2.2324,2.231,2.231,2.2324,2.2324,2.2527,2.2733,2.276,2.346,2.4192,2.4329,2.494,2.5544,2.5818,2.5972,2.6117,2.6243,0.0,0.0,0.0,2.6727,2.6888,2.6888,2.7042,2.7152,2.7152,2.7152,2.7152,2.7152,2.7152,2.7152,2.7152,2.6979,2.6796,2.6633,2.6778,2.7181,2.7787,2.8601,2.9005,2.9005,2.9017,2.9028,2.9028,2.9119,2.9163,2.9149,2.9304,2.938,2.9375,2.9483,2.9541,2.9589,2.9608,2.9617,2.9608,2.9662,2.9697,2.9742,2.5297,2.5503,2.5782,2.6587,2.6715,2.6744,2.6814,2.6919,2.6791,2.6163,2.6287,2.6155,2.5521,2.5557,2.5373,2.4716,2.4717,2.4506,2.3881,2.4028,2.3456,2.1923,2.081,2.0172,2.008,2.0256,2.0359,2.0376,2.0628,2.0761,2.0778,2.1087,2.123,2.1262,2.151,2.1678,2.1783,2.184,2.1974,2.2154,2.2168,2.2211,2.2268,2.2282,2.2296,2.2296,2.2296,2.2296,2.2296,2.2296,2.2296,2.2296,2.2296,2.2296,2.2296,2.2296,2.2352,2.2394,2.2324,2.2352,2.2391,2.2391,2.3058,2.3712,2.3781,2.4527,2.5242,2.5442,2.573,2.596,2.6057,2.6186,2.6329,2.6458,0.0,0.0,2.6573,2.7236,2.7714,2.7714,2.8374,2.8822,2.8822,2.8822,2.8822,2.8822,2.8822,2.8822,2.8822,2.8117,2.7397,2.6706,2.7361,2.7732,2.7798,2.8601,2.9005,2.9005,2.9055,2.9078,2.9108,2.9218,2.9286,2.9312,2.9491,2.9589,2.9598,2.9769,2.9864,2.9872,2.995,2.9962,2.9962,2.9969,3.0011,3.0072,2.5042,2.5656,2.6157,2.6457,2.6927,2.7121,2.6707,2.6688,2.6515,2.5847,2.5845,2.5663,2.5076,2.507,2.4867,2.4327,2.4346,2.4326,2.425,2.4317,2.3702,2.2256,2.1362,2.0793,2.0544,2.0596,2.0745,2.0958,2.1055,2.1198,2.1356,2.148,2.1587,2.1676,2.1781,2.1901,2.2051,2.208,2.2152,2.2254,2.2254,2.2268,2.2296,2.2296,2.2296,2.2296,2.2296,2.2296,2.2296,2.2296,2.2296,2.2296,2.2296,2.2338,2.2394,2.246,2.2501,2.2542,2.2592,2.2582,2.2644,2.3206,2.3694,2.4199,2.4772,2.5654,2.6384,2.6511,2.7115,2.7645,2.7749,2.7845,2.7938,2.8054,0.0,2.8065,2.8088,2.8345,2.8528,2.8528,2.8803,2.9005,2.9005,2.9005,2.9005,2.9005,2.9005,2.9005,2.9005,2.8757,2.8511,2.8323,2.8574,2.849,2.7986,2.8779,2.9178,2.9185,2.9206,2.9527,3.0089,2.9663,2.9781,3.0262,2.9925,2.9815,2.9855,2.9988,3.0049,3.0079,3.0116,3.0436,3.0806,3.0305,3.0491,3.097,2.4746,2.539,2.5896,2.6104,2.6613,2.6821,2.6348,2.6288,2.6072,2.5437,2.5362,2.5152,2.4631,2.4615,2.4526,2.425,2.4292,2.4431,2.4609,2.4751,2.4143,2.2583,2.1992,2.1489,2.0974,2.1039,2.1198,2.1434,2.1464,2.157,2.1768,2.1829,2.1903,2.2003,2.2017,2.2092,2.2242,2.2242,2.2254,2.2296,2.2296,2.2296,2.2296,2.2296,2.2296,2.2296,2.2296,2.2296,2.2296,2.2296,2.2296,2.231,2.2324,2.2422,2.2515,2.2619,2.2712,2.2842,2.3172,2.3267,2.3376,2.3902,2.4559,2.5248,2.5848,2.6769,2.7518,2.7599,2.8171,2.8724,2.881,2.8881,2.894,2.8994,2.9005,2.9005,2.9005,2.9005,2.9005,2.9005,2.9225,2.9372,2.9372,2.961,2.9739,2.9739,2.9542,2.9308,2.9115,2.9134,2.9232,2.9378,2.9384,2.9154,2.8679,2.914,2.937,2.9373,2.9646,3.0144,3.0764,3.0565,3.0819,3.1374,3.0964,3.0814,3.086,3.0667,3.0602,3.0648,3.0655,3.1007,3.1454,3.1161,3.1436,3.1948,2.447,2.4605,2.4814,2.5495,2.56,2.56,2.56,2.56,2.5398,2.4867,2.4799,2.4616,2.4155,2.4224,2.4359,2.4498,2.4755,2.4902,2.4902,2.5326,2.4756,2.2898,2.2549,2.2054,2.1309,2.1573,2.1709,2.1693,2.184,2.1913,2.1913,2.2109,2.22,2.2214,2.2268,2.2296,2.2296,2.2296,2.2296,2.2296,2.2296,2.2296,2.2296,2.2296,2.2296,2.2296,2.2296,2.2296,2.2296,2.2296,2.2296,2.231,2.2394,2.2542,2.2712,2.279,2.2957,2.3295,2.4101,2.4513,2.4652,2.4388,2.5679,2.7025,2.7107,2.7895,2.8625,2.87,2.8822,2.8905,2.8905,2.897,2.9005,2.9005,2.9005,2.9005,2.9005,2.9005,2.9005,2.9005,2.9702,3.021,3.021,3.0925,3.1397,3.1397,3.0722,3.0012,2.9357,2.9328,2.9412,2.9616,2.9617,2.9717,2.9916,2.9645,2.9502,2.9521,3.0461,3.0903,3.0969,3.1945,3.2448,3.2528,3.2649,3.2744,3.2749,3.1936,3.1604,3.1623,3.1686,3.1718,3.1814,3.2602,3.2891,3.291,2.3864,2.4342,2.4792,2.4987,2.553,2.5796,2.5318,2.5324,2.5162,2.4533,2.452,2.459,2.4589,2.4659,2.4859,2.5243,2.5359,2.5476,2.5663,2.5443,2.484,2.3769,2.349,2.2849,2.1754,2.1796,2.1901,2.2053,2.208,2.2137,2.218,2.224,2.2268,2.2268,2.2282,2.2296,2.2296,2.2296,2.2296,2.2296,2.2296,2.2296,2.2296,2.2296,2.2296,2.2296,2.2296,2.2338,2.238,2.238,2.2432,2.2542,2.2699,2.2829,2.3057,2.3839,2.4134,2.4432,2.5374,2.6105,2.6543,2.6315,2.6787,2.7591,2.8793,2.9373,2.9819,3.0398,3.0143,2.9819,2.9819,2.9831,2.9831,2.9831,2.9831,2.9831,2.9831,2.9354,2.9207,2.9757,3.0063,3.0454,3.1054,3.1323,3.1507,3.1602,3.1496,3.1384,3.1267,3.1254,3.1364,3.155,3.1018,3.0801,3.0959,3.0175,3.0115,3.076,3.105,3.1832,3.2995,3.2727,3.2955,3.3528,3.3044,3.2856,3.2851,3.2609,3.2513,3.2513,3.2519,3.291,3.341,3.3045,3.3295,3.3821,2.3888,2.4279,2.4626,2.467,2.5114,2.5345,2.4964,2.4966,2.4911,2.458,2.4609,2.4771,2.5091,2.5173,2.5365,2.5735,2.5828,2.5974,2.6224,2.5663,2.5012,2.4291,2.3862,2.313,2.2036,2.2032,2.212,2.2225,2.2225,2.2254,2.2296,2.2296,2.2296,2.2296,2.2296,2.2296,2.2296,2.2296,2.2296,2.2296,2.2296,2.2296,2.231,2.2338,2.2338,2.2352,2.2391,2.2446,2.2487,2.2542,2.2659,2.2829,2.2982,2.3337,2.3831,2.4534,2.5004,2.5534,2.6464,2.7119,2.7561,2.7749,2.8136,2.8737,2.9745,3.0307,3.0748,3.1242,3.0974,3.0668,3.0668,3.0668,3.0668,3.0668,3.0411,3.021,3.021,2.95,2.9299,3.0099,3.0491,3.1054,3.1925,3.2354,3.2499,3.2329,3.2417,3.2373,3.2232,3.2241,3.2352,3.2515,3.208,3.1886,3.1986,3.1397,3.1169,3.1348,3.205,3.2932,3.3937,3.3811,3.4059,3.4522,3.41,3.3935,3.3896,3.3558,3.341,3.341,3.341,3.3744,3.4186,3.4007,3.4257,3.4718,2.4323,2.4343,2.4385,2.4503,2.458,2.4605,2.469,2.4695,2.4775,2.4977,2.4981,2.5173,2.5605,2.5701,2.583,2.6028,2.6225,2.64,2.6589,2.5865,2.5139,2.4525,2.3729,2.2958,2.2214,2.2268,2.2296,2.2296,2.2296,2.2296,2.2296,2.2296,2.2296,2.2296,2.2296,2.2296,2.2296,2.231,2.231,2.231,2.2324,2.2324,2.2338,2.2391,2.2432,2.2446,2.2565,2.2619,2.2659,2.2816,2.303,2.3262,2.3329,2.4082,2.4949,2.5108,2.5751,2.6602,2.7402,2.772,2.8013,2.8825,2.9612,3.021,3.021,3.0888,3.1525,3.1599,3.1562,3.1507,3.1507,3.1507,3.1507,3.1507,3.0889,3.0411,3.0411,2.9721,2.9519,3.0332,3.1127,3.1955,3.2859,3.3727,3.4027,3.3477,3.3452,3.3222,3.2686,3.271,3.2803,3.294,3.2927,3.2957,3.3019,3.3019,3.2549,3.1673,3.3252,3.4071,3.4167,3.5019,3.5412,3.5412,3.5467,3.55,3.5442,3.4641,3.4321,3.4321,3.4321,3.4321,3.441,3.5212,3.55,3.55,2.4528,2.4655,2.4779,2.4799,2.5111,2.5359,2.5378,2.5511,2.5624,2.568,2.5735,2.5846,2.6063,2.6136,2.6242,2.6451,2.6555,2.6624,2.6674,2.5457,2.4661,2.4508,2.3241,2.2465,2.2282,2.2296,2.2296,2.2296,2.2296,2.2296,2.2296,2.2296,2.2296,2.2296,2.2296,2.2296,2.231,2.2366,2.2394,2.2394,2.2501,2.2525,2.2542,2.2605,2.2672,2.2712,2.2751,2.2868,2.3033,2.3271,2.3798,2.4355,2.449,2.5156,2.6029,2.6779,2.7198,2.7577,2.8453,2.8695,2.892,2.9727,3.0528,3.1115,3.1115,3.1739,3.2522,3.3146,3.2779,3.2339,3.2339,3.2339,3.2339,3.2339,3.2179,3.2069,3.2069,3.1384,3.1207,3.2065,3.2367,3.2902,3.3887,3.4408,3.4637,3.4557,3.4651,3.4674,3.4606,3.4666,3.473,3.4813,3.4175,3.3838,3.3923,3.3923,3.3814,3.3608,3.3973,3.4511,3.5177,3.5383,3.5486,3.5486,3.5493,3.55,3.5481,3.5288,3.5212,3.5212,3.5212,3.5212,3.5231,3.5423,3.55,3.55,2.5144,2.5304,2.54,2.5422,2.5626,2.5809,2.5864,2.599,2.6045,2.6099,2.6118,2.6207,2.6365,2.6417,2.6503,2.664,2.6691,2.6691,2.6691,2.5659,2.488,2.4508,2.341,2.2651,2.2296,2.2296,2.2296,2.2296,2.2296,2.2296,2.2296,2.2338,2.2352,2.2352,2.2394,2.2408,2.2391,2.246,2.2515,2.2555,2.2646,2.2712,2.2751,2.2838,2.2902,2.297,2.3089,2.3501,2.3981,2.412,2.475,2.5485,2.5559,2.6193,2.7011,2.7499,2.7965,2.8421,2.8883,2.928,2.9666,3.0099,3.1091,3.1971,3.1971,3.2596,3.3293,3.3715,3.3476,3.3183,3.3183,3.3183,3.3183,3.3183,3.2839,3.2614,3.2653,3.1967,3.1777,3.2693,3.2883,3.3376,3.447,3.4802,3.4982,3.5072,3.5168,3.5215,3.5289,3.5331,3.5376,3.5453,3.5011,3.4775,3.4814,3.4814,3.4814,3.4814,3.4814,3.5064,3.55,3.55,3.55,3.55,3.55,3.55,3.55,3.55,3.55,3.55,3.55,3.55,3.55,3.55,3.55,3.5558,2.5606,2.5872,2.599,2.6028,2.6081,2.6152,2.6259,2.6277,2.6312,2.6365,2.6383,2.6435,2.6606,2.6623,2.664,2.6691,2.6691,2.6691,2.6691,2.6015,2.527,2.4525,2.3797,2.3069,2.2341,2.2338,2.2338,2.2324,2.2324,2.2338,2.2352,2.2405,2.2432,2.2446,2.2528,2.2555,2.2569,2.2646,2.2725,2.2777,2.2876,2.2952,2.3015,2.3139,2.3182,2.3235,2.3452,2.4134,2.4953,2.512,2.5789,2.6552,2.6563,2.7177,2.7933,2.7933,2.8432,2.9005,2.9005,2.9592,3.0228,3.0375,3.15,3.2638,3.2766,3.333,3.3807,3.3807,3.3807,3.3807,3.3807,3.3807,3.3788,3.382,3.3251,3.2855,3.2944,3.2361,3.2268,3.3084,3.3321,3.3824,3.4841,3.5065,3.5187,3.53,3.5335,3.5365,3.5412,3.5412,3.5446,3.55,3.55,3.55,3.55,3.5635,3.5635,3.55,3.5635,3.5635,3.55,3.55,3.55,3.55,3.55,3.55,3.55,3.55,3.55,3.55,3.55,3.55,3.55,3.55,3.5596,3.5808,2.5107,2.5724,2.6242,2.626,2.6399,2.652,2.6537,2.6606,2.664,2.6641,2.6641,2.6657,2.6674,2.6691,2.6674,2.6691,2.6691,2.6691,2.6691,2.6015,2.527,2.4525,2.3856,2.3138,2.2394,2.2501,2.2501,2.2394,2.2394,2.2446,2.2569,2.2582,2.2592,2.2659,2.2725,2.2764,2.2777,2.294,2.3045,2.3082,2.3319,2.3424,2.3435,2.3495,2.3573,2.3617,2.3649,2.4288,2.5194,2.6012,2.6834,2.7515,2.7578,2.8168,2.8828,2.8828,2.8902,2.9005,2.9005,2.9592,3.0375,3.1054,3.1916,3.2784,3.3476,3.3715,3.3807,3.3807,3.3807,3.3807,3.3807,3.3807,3.3815,3.3868,3.3808,3.3773,3.3895,3.3864,3.3954,3.424,3.4561,3.4822,3.5043,3.5187,3.53,3.5383,3.5439,3.5479,3.5493,3.5493,3.5493,3.55,3.55,3.55,3.55,3.6192,3.6192,3.5519,3.6212,3.6173,3.55,3.55,3.55,3.55,3.55,3.55,3.55,3.55,3.55,3.55,3.55,3.55,3.55,3.55,3.5942,3.6558,2.5263,2.5984,2.6521,2.6521,2.6607,2.6657,2.6657,2.6691,2.6691,2.6691,2.6691,2.6691,2.6691,2.6691,2.6691,2.6691,2.6758,2.6809,2.6809,2.6568,2.6104,2.5371,2.5086,2.4614,2.3918,2.3971,2.3819,2.3457,2.2892,2.2646,2.2712,2.2829,2.2906,2.2932,2.3028,2.3082,2.3095,2.3247,2.3342,2.3389,2.3553,2.3624,2.3667,2.3742,2.3785,2.3871,2.4416,2.5181,2.6066,2.6925,2.7754,2.8432,2.8455,2.8712,2.9005,2.9005,2.9005,2.9097,2.9537,3.0265,3.1054,3.1861,3.2687,3.3366,3.3768,3.3873,3.386,3.382,3.3815,3.3873,3.3873,3.3908,3.3972,3.4011,3.4074,3.4173,3.4305,3.4778,3.5364,3.6103,3.5979,3.6065,3.6616,3.6305,3.63,3.6805,3.6877,3.6673,3.6192,3.6173,3.5962,3.5519,3.55,3.5712,3.6173,3.6519,3.6769,3.6911,3.7257,3.675,3.5519,3.5962,3.6173,3.6192,3.6692,3.6911,3.6873,3.6365,3.6173,3.6135,3.5673,3.55,3.5558,3.6,3.6404,3.6846]}]]